<?xml version="1.0" encoding="UTF-8" standalone="no" ?>
<gpx xmlns="http://www.topografix.com/GPX/1/1" xmlns:xsi="http://www.w3.org/2001/XMLSchema-instance" xsi:schemaLocation="http://www.topografix.com/GPX/1/1 http://www.topografix.com/GPX/1/1/gpx.xsd" version="1.1" creator="VisuGPX - https://www.visugpx.com">
  <metadata>
    <name>14625091-Clairvaux Chatillon</name>
  </metadata>
  <trk>
    <name><![CDATA[14625091-Clairvaux Chatillon]]></name>
    <trkseg>
      <trkpt lat="46.5116" lon="5.83998">
        <ele>909</ele>
        <time>2022-06-06T14:01:16Z</time>
      </trkpt>
      <trkpt lat="46.51147" lon="5.83994">
        <ele>910</ele>
        <time>2022-06-06T14:01:18Z</time>
      </trkpt>
      <trkpt lat="46.51141" lon="5.83989">
        <ele>910</ele>
        <time>2022-06-06T14:01:20Z</time>
      </trkpt>
      <trkpt lat="46.51135" lon="5.8398">
        <ele>910</ele>
        <time>2022-06-06T14:01:21Z</time>
      </trkpt>
      <trkpt lat="46.51154" lon="5.83977">
        <ele>910</ele>
        <time>2022-06-06T14:01:25Z</time>
      </trkpt>
      <trkpt lat="46.51157" lon="5.83982">
        <ele>910</ele>
        <time>2022-06-06T14:01:25Z</time>
      </trkpt>
      <trkpt lat="46.51161" lon="5.83983">
        <ele>910</ele>
        <time>2022-06-06T14:01:26Z</time>
      </trkpt>
      <trkpt lat="46.51164" lon="5.8398">
        <ele>910</ele>
        <time>2022-06-06T14:01:27Z</time>
      </trkpt>
      <trkpt lat="46.51166" lon="5.83974">
        <ele>910</ele>
        <time>2022-06-06T14:01:28Z</time>
      </trkpt>
      <trkpt lat="46.51164" lon="5.83968">
        <ele>911</ele>
        <time>2022-06-06T14:01:28Z</time>
      </trkpt>
      <trkpt lat="46.51161" lon="5.83965">
        <ele>911</ele>
        <time>2022-06-06T14:01:29Z</time>
      </trkpt>
      <trkpt lat="46.51162" lon="5.83951">
        <ele>911</ele>
        <time>2022-06-06T14:01:31Z</time>
      </trkpt>
      <trkpt lat="46.51173" lon="5.83908">
        <ele>914</ele>
        <time>2022-06-06T14:01:36Z</time>
      </trkpt>
      <trkpt lat="46.51192" lon="5.83853">
        <ele>922</ele>
        <time>2022-06-06T14:01:44Z</time>
      </trkpt>
      <trkpt lat="46.51194" lon="5.83841">
        <ele>924</ele>
        <time>2022-06-06T14:01:45Z</time>
      </trkpt>
      <trkpt lat="46.51194" lon="5.83825">
        <ele>926</ele>
        <time>2022-06-06T14:01:47Z</time>
      </trkpt>
      <trkpt lat="46.5119" lon="5.83811">
        <ele>928</ele>
        <time>2022-06-06T14:01:49Z</time>
      </trkpt>
      <trkpt lat="46.51184" lon="5.83799">
        <ele>929</ele>
        <time>2022-06-06T14:01:51Z</time>
      </trkpt>
      <trkpt lat="46.5117" lon="5.83787">
        <ele>930</ele>
        <time>2022-06-06T14:01:54Z</time>
      </trkpt>
      <trkpt lat="46.51135" lon="5.83781">
        <ele>927</ele>
        <time>2022-06-06T14:02:00Z</time>
      </trkpt>
      <trkpt lat="46.51124" lon="5.83774">
        <ele>927</ele>
        <time>2022-06-06T14:02:02Z</time>
      </trkpt>
      <trkpt lat="46.51117" lon="5.83763">
        <ele>928</ele>
        <time>2022-06-06T14:02:04Z</time>
      </trkpt>
      <trkpt lat="46.51112" lon="5.83748">
        <ele>930</ele>
        <time>2022-06-06T14:02:06Z</time>
      </trkpt>
      <trkpt lat="46.51112" lon="5.83737">
        <ele>932</ele>
        <time>2022-06-06T14:02:08Z</time>
      </trkpt>
      <trkpt lat="46.51114" lon="5.83721">
        <ele>934</ele>
        <time>2022-06-06T14:02:10Z</time>
      </trkpt>
      <trkpt lat="46.51118" lon="5.8371">
        <ele>936</ele>
        <time>2022-06-06T14:02:11Z</time>
      </trkpt>
      <trkpt lat="46.51148" lon="5.83657">
        <ele>942</ele>
        <time>2022-06-06T14:02:19Z</time>
      </trkpt>
      <trkpt lat="46.51166" lon="5.83633">
        <ele>941</ele>
        <time>2022-06-06T14:02:24Z</time>
      </trkpt>
      <trkpt lat="46.51195" lon="5.83604">
        <ele>942</ele>
        <time>2022-06-06T14:02:30Z</time>
      </trkpt>
      <trkpt lat="46.51202" lon="5.83593">
        <ele>942</ele>
        <time>2022-06-06T14:02:32Z</time>
      </trkpt>
      <trkpt lat="46.5124" lon="5.8353">
        <ele>946</ele>
        <time>2022-06-06T14:02:42Z</time>
      </trkpt>
      <trkpt lat="46.51272" lon="5.8349">
        <ele>949</ele>
        <time>2022-06-06T14:02:50Z</time>
      </trkpt>
      <trkpt lat="46.51287" lon="5.83461">
        <ele>950</ele>
        <time>2022-06-06T14:02:54Z</time>
      </trkpt>
      <trkpt lat="46.51306" lon="5.8342">
        <ele>951</ele>
        <time>2022-06-06T14:03:00Z</time>
      </trkpt>
      <trkpt lat="46.51328" lon="5.83388">
        <ele>953</ele>
        <time>2022-06-06T14:03:06Z</time>
      </trkpt>
      <trkpt lat="46.51338" lon="5.83367">
        <ele>952</ele>
        <time>2022-06-06T14:03:09Z</time>
      </trkpt>
      <trkpt lat="46.51362" lon="5.83302">
        <ele>950</ele>
        <time>2022-06-06T14:03:18Z</time>
      </trkpt>
      <trkpt lat="46.51402" lon="5.83169">
        <ele>953</ele>
        <time>2022-06-06T14:03:36Z</time>
      </trkpt>
      <trkpt lat="46.51406" lon="5.83149">
        <ele>954</ele>
        <time>2022-06-06T14:03:38Z</time>
      </trkpt>
      <trkpt lat="46.51409" lon="5.83124">
        <ele>954</ele>
        <time>2022-06-06T14:03:41Z</time>
      </trkpt>
      <trkpt lat="46.51409" lon="5.83107">
        <ele>955</ele>
        <time>2022-06-06T14:03:43Z</time>
      </trkpt>
      <trkpt lat="46.51406" lon="5.83089">
        <ele>956</ele>
        <time>2022-06-06T14:03:46Z</time>
      </trkpt>
      <trkpt lat="46.51401" lon="5.83077">
        <ele>957</ele>
        <time>2022-06-06T14:03:47Z</time>
      </trkpt>
      <trkpt lat="46.51388" lon="5.83055">
        <ele>957</ele>
        <time>2022-06-06T14:03:51Z</time>
      </trkpt>
      <trkpt lat="46.51345" lon="5.83015">
        <ele>955</ele>
        <time>2022-06-06T14:04:00Z</time>
      </trkpt>
      <trkpt lat="46.51336" lon="5.83001">
        <ele>953</ele>
        <time>2022-06-06T14:04:02Z</time>
      </trkpt>
      <trkpt lat="46.5133" lon="5.82985">
        <ele>954</ele>
        <time>2022-06-06T14:04:05Z</time>
      </trkpt>
      <trkpt lat="46.51325" lon="5.82958">
        <ele>956</ele>
        <time>2022-06-06T14:04:08Z</time>
      </trkpt>
      <trkpt lat="46.51326" lon="5.82937">
        <ele>957</ele>
        <time>2022-06-06T14:04:11Z</time>
      </trkpt>
      <trkpt lat="46.51331" lon="5.82886">
        <ele>958</ele>
        <time>2022-06-06T14:04:17Z</time>
      </trkpt>
      <trkpt lat="46.5133" lon="5.82868">
        <ele>959</ele>
        <time>2022-06-06T14:04:19Z</time>
      </trkpt>
      <trkpt lat="46.51323" lon="5.82832">
        <ele>960</ele>
        <time>2022-06-06T14:04:24Z</time>
      </trkpt>
      <trkpt lat="46.51315" lon="5.82806">
        <ele>960</ele>
        <time>2022-06-06T14:04:27Z</time>
      </trkpt>
      <trkpt lat="46.51307" lon="5.82786">
        <ele>960</ele>
        <time>2022-06-06T14:04:30Z</time>
      </trkpt>
      <trkpt lat="46.51273" lon="5.8273">
        <ele>958</ele>
        <time>2022-06-06T14:04:39Z</time>
      </trkpt>
      <trkpt lat="46.51248" lon="5.82675">
        <ele>959</ele>
        <time>2022-06-06T14:04:47Z</time>
      </trkpt>
      <trkpt lat="46.5123" lon="5.82647">
        <ele>960</ele>
        <time>2022-06-06T14:04:52Z</time>
      </trkpt>
      <trkpt lat="46.51217" lon="5.82632">
        <ele>960</ele>
        <time>2022-06-06T14:04:55Z</time>
      </trkpt>
      <trkpt lat="46.51202" lon="5.8262">
        <ele>960</ele>
        <time>2022-06-06T14:04:58Z</time>
      </trkpt>
      <trkpt lat="46.51187" lon="5.82611">
        <ele>960</ele>
        <time>2022-06-06T14:05:01Z</time>
      </trkpt>
      <trkpt lat="46.51165" lon="5.82603">
        <ele>959</ele>
        <time>2022-06-06T14:05:05Z</time>
      </trkpt>
      <trkpt lat="46.51148" lon="5.82599">
        <ele>959</ele>
        <time>2022-06-06T14:05:08Z</time>
      </trkpt>
      <trkpt lat="46.51115" lon="5.82596">
        <ele>959</ele>
        <time>2022-06-06T14:05:14Z</time>
      </trkpt>
      <trkpt lat="46.51105" lon="5.82593">
        <ele>960</ele>
        <time>2022-06-06T14:05:16Z</time>
      </trkpt>
      <trkpt lat="46.51093" lon="5.82584">
        <ele>960</ele>
        <time>2022-06-06T14:05:18Z</time>
      </trkpt>
      <trkpt lat="46.51084" lon="5.82574">
        <ele>961</ele>
        <time>2022-06-06T14:05:20Z</time>
      </trkpt>
      <trkpt lat="46.51076" lon="5.82556">
        <ele>962</ele>
        <time>2022-06-06T14:05:23Z</time>
      </trkpt>
      <trkpt lat="46.51056" lon="5.82483">
        <ele>965</ele>
        <time>2022-06-06T14:05:32Z</time>
      </trkpt>
      <trkpt lat="46.51045" lon="5.8246">
        <ele>965</ele>
        <time>2022-06-06T14:05:36Z</time>
      </trkpt>
      <trkpt lat="46.51029" lon="5.82434">
        <ele>964</ele>
        <time>2022-06-06T14:05:40Z</time>
      </trkpt>
      <trkpt lat="46.5102" lon="5.82411">
        <ele>964</ele>
        <time>2022-06-06T14:05:43Z</time>
      </trkpt>
      <trkpt lat="46.51017" lon="5.82386">
        <ele>963</ele>
        <time>2022-06-06T14:05:46Z</time>
      </trkpt>
      <trkpt lat="46.51019" lon="5.82352">
        <ele>962</ele>
        <time>2022-06-06T14:05:50Z</time>
      </trkpt>
      <trkpt lat="46.51028" lon="5.82319">
        <ele>962</ele>
        <time>2022-06-06T14:05:55Z</time>
      </trkpt>
      <trkpt lat="46.51038" lon="5.82296">
        <ele>961</ele>
        <time>2022-06-06T14:05:58Z</time>
      </trkpt>
      <trkpt lat="46.5105" lon="5.82276">
        <ele>961</ele>
        <time>2022-06-06T14:06:01Z</time>
      </trkpt>
      <trkpt lat="46.51066" lon="5.8226">
        <ele>961</ele>
        <time>2022-06-06T14:06:05Z</time>
      </trkpt>
      <trkpt lat="46.51107" lon="5.82227">
        <ele>961</ele>
        <time>2022-06-06T14:06:13Z</time>
      </trkpt>
      <trkpt lat="46.51135" lon="5.82193">
        <ele>961</ele>
        <time>2022-06-06T14:06:20Z</time>
      </trkpt>
      <trkpt lat="46.51162" lon="5.82169">
        <ele>961</ele>
        <time>2022-06-06T14:06:25Z</time>
      </trkpt>
      <trkpt lat="46.51172" lon="5.82154">
        <ele>961</ele>
        <time>2022-06-06T14:06:28Z</time>
      </trkpt>
      <trkpt lat="46.51181" lon="5.82138">
        <ele>961</ele>
        <time>2022-06-06T14:06:30Z</time>
      </trkpt>
      <trkpt lat="46.51194" lon="5.82102">
        <ele>960</ele>
        <time>2022-06-06T14:06:35Z</time>
      </trkpt>
      <trkpt lat="46.51204" lon="5.82069">
        <ele>961</ele>
        <time>2022-06-06T14:06:40Z</time>
      </trkpt>
      <trkpt lat="46.5121" lon="5.82056">
        <ele>961</ele>
        <time>2022-06-06T14:06:42Z</time>
      </trkpt>
      <trkpt lat="46.51228" lon="5.82036">
        <ele>962</ele>
        <time>2022-06-06T14:06:46Z</time>
      </trkpt>
      <trkpt lat="46.51244" lon="5.82026">
        <ele>963</ele>
        <time>2022-06-06T14:06:49Z</time>
      </trkpt>
      <trkpt lat="46.51258" lon="5.82014">
        <ele>964</ele>
        <time>2022-06-06T14:06:52Z</time>
      </trkpt>
      <trkpt lat="46.51283" lon="5.8198">
        <ele>964</ele>
        <time>2022-06-06T14:06:58Z</time>
      </trkpt>
      <trkpt lat="46.51311" lon="5.81936">
        <ele>963</ele>
        <time>2022-06-06T14:07:05Z</time>
      </trkpt>
      <trkpt lat="46.51325" lon="5.8192">
        <ele>962</ele>
        <time>2022-06-06T14:07:08Z</time>
      </trkpt>
      <trkpt lat="46.51346" lon="5.81908">
        <ele>960</ele>
        <time>2022-06-06T14:07:12Z</time>
      </trkpt>
      <trkpt lat="46.51369" lon="5.81903">
        <ele>957</ele>
        <time>2022-06-06T14:07:16Z</time>
      </trkpt>
      <trkpt lat="46.51399" lon="5.81907">
        <ele>954</ele>
        <time>2022-06-06T14:07:22Z</time>
      </trkpt>
      <trkpt lat="46.51473" lon="5.81933">
        <ele>948</ele>
        <time>2022-06-06T14:07:35Z</time>
      </trkpt>
      <trkpt lat="46.51492" lon="5.81941">
        <ele>946</ele>
        <time>2022-06-06T14:07:39Z</time>
      </trkpt>
      <trkpt lat="46.51498" lon="5.81946">
        <ele>945</ele>
        <time>2022-06-06T14:07:40Z</time>
      </trkpt>
      <trkpt lat="46.51508" lon="5.81959">
        <ele>945</ele>
        <time>2022-06-06T14:07:43Z</time>
      </trkpt>
      <trkpt lat="46.51517" lon="5.81982">
        <ele>945</ele>
        <time>2022-06-06T14:07:46Z</time>
      </trkpt>
      <trkpt lat="46.51524" lon="5.82009">
        <ele>945</ele>
        <time>2022-06-06T14:07:49Z</time>
      </trkpt>
      <trkpt lat="46.51534" lon="5.82071">
        <ele>947</ele>
        <time>2022-06-06T14:07:57Z</time>
      </trkpt>
      <trkpt lat="46.51543" lon="5.8209">
        <ele>946</ele>
        <time>2022-06-06T14:08:00Z</time>
      </trkpt>
      <trkpt lat="46.51553" lon="5.82098">
        <ele>944</ele>
        <time>2022-06-06T14:08:02Z</time>
      </trkpt>
      <trkpt lat="46.51575" lon="5.82103">
        <ele>940</ele>
        <time>2022-06-06T14:08:06Z</time>
      </trkpt>
      <trkpt lat="46.51608" lon="5.82106">
        <ele>938</ele>
        <time>2022-06-06T14:08:12Z</time>
      </trkpt>
      <trkpt lat="46.5164" lon="5.82106">
        <ele>937</ele>
        <time>2022-06-06T14:08:18Z</time>
      </trkpt>
      <trkpt lat="46.51651" lon="5.82104">
        <ele>936</ele>
        <time>2022-06-06T14:08:19Z</time>
      </trkpt>
      <trkpt lat="46.51682" lon="5.82086">
        <ele>934</ele>
        <time>2022-06-06T14:08:25Z</time>
      </trkpt>
      <trkpt lat="46.517" lon="5.82067">
        <ele>932</ele>
        <time>2022-06-06T14:08:29Z</time>
      </trkpt>
      <trkpt lat="46.51728" lon="5.82035">
        <ele>928</ele>
        <time>2022-06-06T14:08:36Z</time>
      </trkpt>
      <trkpt lat="46.51738" lon="5.82028">
        <ele>927</ele>
        <time>2022-06-06T14:08:38Z</time>
      </trkpt>
      <trkpt lat="46.51744" lon="5.82026">
        <ele>927</ele>
        <time>2022-06-06T14:08:39Z</time>
      </trkpt>
      <trkpt lat="46.51759" lon="5.82027">
        <ele>927</ele>
        <time>2022-06-06T14:08:41Z</time>
      </trkpt>
      <trkpt lat="46.51788" lon="5.82045">
        <ele>928</ele>
        <time>2022-06-06T14:08:47Z</time>
      </trkpt>
      <trkpt lat="46.518" lon="5.82049">
        <ele>927</ele>
        <time>2022-06-06T14:08:49Z</time>
      </trkpt>
      <trkpt lat="46.51823" lon="5.82049">
        <ele>926</ele>
        <time>2022-06-06T14:08:53Z</time>
      </trkpt>
      <trkpt lat="46.51877" lon="5.82037">
        <ele>923</ele>
        <time>2022-06-06T14:09:03Z</time>
      </trkpt>
      <trkpt lat="46.51909" lon="5.82041">
        <ele>922</ele>
        <time>2022-06-06T14:09:09Z</time>
      </trkpt>
      <trkpt lat="46.5201" lon="5.82066">
        <ele>918</ele>
        <time>2022-06-06T14:09:27Z</time>
      </trkpt>
      <trkpt lat="46.52027" lon="5.82067">
        <ele>918</ele>
        <time>2022-06-06T14:09:30Z</time>
      </trkpt>
      <trkpt lat="46.52049" lon="5.82059">
        <ele>916</ele>
        <time>2022-06-06T14:09:34Z</time>
      </trkpt>
      <trkpt lat="46.52103" lon="5.82023">
        <ele>910</ele>
        <time>2022-06-06T14:09:45Z</time>
      </trkpt>
      <trkpt lat="46.52122" lon="5.82017">
        <ele>908</ele>
        <time>2022-06-06T14:09:48Z</time>
      </trkpt>
      <trkpt lat="46.52175" lon="5.82009">
        <ele>905</ele>
        <time>2022-06-06T14:09:58Z</time>
      </trkpt>
      <trkpt lat="46.52193" lon="5.82001">
        <ele>903</ele>
        <time>2022-06-06T14:10:01Z</time>
      </trkpt>
      <trkpt lat="46.52212" lon="5.81987">
        <ele>898</ele>
        <time>2022-06-06T14:10:05Z</time>
      </trkpt>
      <trkpt lat="46.5223" lon="5.81981">
        <ele>895</ele>
        <time>2022-06-06T14:10:08Z</time>
      </trkpt>
      <trkpt lat="46.52245" lon="5.81983">
        <ele>895</ele>
        <time>2022-06-06T14:10:11Z</time>
      </trkpt>
      <trkpt lat="46.52257" lon="5.81991">
        <ele>896</ele>
        <time>2022-06-06T14:10:13Z</time>
      </trkpt>
      <trkpt lat="46.52285" lon="5.82034">
        <ele>900</ele>
        <time>2022-06-06T14:10:20Z</time>
      </trkpt>
      <trkpt lat="46.523" lon="5.82052">
        <ele>901</ele>
        <time>2022-06-06T14:10:24Z</time>
      </trkpt>
      <trkpt lat="46.52312" lon="5.82054">
        <ele>900</ele>
        <time>2022-06-06T14:10:26Z</time>
      </trkpt>
      <trkpt lat="46.52322" lon="5.8205">
        <ele>898</ele>
        <time>2022-06-06T14:10:28Z</time>
      </trkpt>
      <trkpt lat="46.52329" lon="5.82039">
        <ele>895</ele>
        <time>2022-06-06T14:10:30Z</time>
      </trkpt>
      <trkpt lat="46.5233" lon="5.82025">
        <ele>892</ele>
        <time>2022-06-06T14:10:31Z</time>
      </trkpt>
      <trkpt lat="46.52328" lon="5.82012">
        <ele>890</ele>
        <time>2022-06-06T14:10:33Z</time>
      </trkpt>
      <trkpt lat="46.52325" lon="5.82004">
        <ele>889</ele>
        <time>2022-06-06T14:10:34Z</time>
      </trkpt>
      <trkpt lat="46.52317" lon="5.81994">
        <ele>887</ele>
        <time>2022-06-06T14:10:36Z</time>
      </trkpt>
      <trkpt lat="46.52309" lon="5.8199">
        <ele>887</ele>
        <time>2022-06-06T14:10:37Z</time>
      </trkpt>
      <trkpt lat="46.52287" lon="5.8199">
        <ele>891</ele>
        <time>2022-06-06T14:10:41Z</time>
      </trkpt>
      <trkpt lat="46.52276" lon="5.81987">
        <ele>892</ele>
        <time>2022-06-06T14:10:43Z</time>
      </trkpt>
      <trkpt lat="46.52267" lon="5.81977">
        <ele>890</ele>
        <time>2022-06-06T14:10:45Z</time>
      </trkpt>
      <trkpt lat="46.52242" lon="5.81935">
        <ele>881</ele>
        <time>2022-06-06T14:10:52Z</time>
      </trkpt>
      <trkpt lat="46.52228" lon="5.81919">
        <ele>878</ele>
        <time>2022-06-06T14:10:55Z</time>
      </trkpt>
      <trkpt lat="46.52215" lon="5.81907">
        <ele>875</ele>
        <time>2022-06-06T14:10:58Z</time>
      </trkpt>
      <trkpt lat="46.52201" lon="5.81899">
        <ele>874</ele>
        <time>2022-06-06T14:11:01Z</time>
      </trkpt>
      <trkpt lat="46.52194" lon="5.81896">
        <ele>874</ele>
        <time>2022-06-06T14:11:02Z</time>
      </trkpt>
      <trkpt lat="46.52178" lon="5.81893">
        <ele>875</ele>
        <time>2022-06-06T14:11:05Z</time>
      </trkpt>
      <trkpt lat="46.52149" lon="5.81896">
        <ele>881</ele>
        <time>2022-06-06T14:11:10Z</time>
      </trkpt>
      <trkpt lat="46.52122" lon="5.81885">
        <ele>881</ele>
        <time>2022-06-06T14:11:15Z</time>
      </trkpt>
      <trkpt lat="46.52091" lon="5.81883">
        <ele>886</ele>
        <time>2022-06-06T14:11:21Z</time>
      </trkpt>
      <trkpt lat="46.5208" lon="5.81873">
        <ele>885</ele>
        <time>2022-06-06T14:11:23Z</time>
      </trkpt>
      <trkpt lat="46.52069" lon="5.81853">
        <ele>883</ele>
        <time>2022-06-06T14:11:26Z</time>
      </trkpt>
      <trkpt lat="46.52042" lon="5.81787">
        <ele>874</ele>
        <time>2022-06-06T14:11:35Z</time>
      </trkpt>
      <trkpt lat="46.51994" lon="5.81689">
        <ele>868</ele>
        <time>2022-06-06T14:11:50Z</time>
      </trkpt>
      <trkpt lat="46.51947" lon="5.81621">
        <ele>862</ele>
        <time>2022-06-06T14:12:02Z</time>
      </trkpt>
      <trkpt lat="46.51933" lon="5.81608">
        <ele>863</ele>
        <time>2022-06-06T14:12:05Z</time>
      </trkpt>
      <trkpt lat="46.5191" lon="5.81592">
        <ele>867</ele>
        <time>2022-06-06T14:12:09Z</time>
      </trkpt>
      <trkpt lat="46.51893" lon="5.81573">
        <ele>869</ele>
        <time>2022-06-06T14:12:13Z</time>
      </trkpt>
      <trkpt lat="46.51881" lon="5.81552">
        <ele>867</ele>
        <time>2022-06-06T14:12:17Z</time>
      </trkpt>
      <trkpt lat="46.51873" lon="5.81524">
        <ele>862</ele>
        <time>2022-06-06T14:12:20Z</time>
      </trkpt>
      <trkpt lat="46.51858" lon="5.8149">
        <ele>858</ele>
        <time>2022-06-06T14:12:25Z</time>
      </trkpt>
      <trkpt lat="46.51842" lon="5.81471">
        <ele>857</ele>
        <time>2022-06-06T14:12:29Z</time>
      </trkpt>
      <trkpt lat="46.51805" lon="5.81448">
        <ele>861</ele>
        <time>2022-06-06T14:12:36Z</time>
      </trkpt>
      <trkpt lat="46.51756" lon="5.81413">
        <ele>863</ele>
        <time>2022-06-06T14:12:46Z</time>
      </trkpt>
      <trkpt lat="46.51715" lon="5.81373">
        <ele>857</ele>
        <time>2022-06-06T14:12:55Z</time>
      </trkpt>
      <trkpt lat="46.51683" lon="5.81354">
        <ele>857</ele>
        <time>2022-06-06T14:13:01Z</time>
      </trkpt>
      <trkpt lat="46.51666" lon="5.81342">
        <ele>857</ele>
        <time>2022-06-06T14:13:04Z</time>
      </trkpt>
      <trkpt lat="46.51661" lon="5.81337">
        <ele>857</ele>
        <time>2022-06-06T14:13:05Z</time>
      </trkpt>
      <trkpt lat="46.51639" lon="5.81302">
        <ele>854</ele>
        <time>2022-06-06T14:13:11Z</time>
      </trkpt>
      <trkpt lat="46.51584" lon="5.81237">
        <ele>847</ele>
        <time>2022-06-06T14:13:24Z</time>
      </trkpt>
      <trkpt lat="46.51562" lon="5.81213">
        <ele>847</ele>
        <time>2022-06-06T14:13:29Z</time>
      </trkpt>
      <trkpt lat="46.51522" lon="5.81177">
        <ele>846</ele>
        <time>2022-06-06T14:13:37Z</time>
      </trkpt>
      <trkpt lat="46.51509" lon="5.81155">
        <ele>842</ele>
        <time>2022-06-06T14:13:40Z</time>
      </trkpt>
      <trkpt lat="46.51473" lon="5.81088">
        <ele>836</ele>
        <time>2022-06-06T14:13:51Z</time>
      </trkpt>
      <trkpt lat="46.51454" lon="5.81062">
        <ele>836</ele>
        <time>2022-06-06T14:13:55Z</time>
      </trkpt>
      <trkpt lat="46.51392" lon="5.80986">
        <ele>827</ele>
        <time>2022-06-06T14:14:10Z</time>
      </trkpt>
      <trkpt lat="46.51384" lon="5.80974">
        <ele>825</ele>
        <time>2022-06-06T14:14:12Z</time>
      </trkpt>
      <trkpt lat="46.51371" lon="5.80939">
        <ele>818</ele>
        <time>2022-06-06T14:14:17Z</time>
      </trkpt>
      <trkpt lat="46.51367" lon="5.80911">
        <ele>812</ele>
        <time>2022-06-06T14:14:20Z</time>
      </trkpt>
      <trkpt lat="46.51369" lon="5.80891">
        <ele>809</ele>
        <time>2022-06-06T14:14:23Z</time>
      </trkpt>
      <trkpt lat="46.51457" lon="5.80498">
        <ele>793</ele>
        <time>2022-06-06T14:15:13Z</time>
      </trkpt>
      <trkpt lat="46.51445" lon="5.80493">
        <ele>793</ele>
        <time>2022-06-06T14:15:16Z</time>
      </trkpt>
      <trkpt lat="46.51435" lon="5.8048">
        <ele>793</ele>
        <time>2022-06-06T14:15:18Z</time>
      </trkpt>
      <trkpt lat="46.51429" lon="5.80467">
        <ele>794</ele>
        <time>2022-06-06T14:15:20Z</time>
      </trkpt>
      <trkpt lat="46.51399" lon="5.80347">
        <ele>798</ele>
        <time>2022-06-06T14:15:36Z</time>
      </trkpt>
      <trkpt lat="46.51385" lon="5.80315">
        <ele>796</ele>
        <time>2022-06-06T14:15:40Z</time>
      </trkpt>
      <trkpt lat="46.51376" lon="5.80302">
        <ele>795</ele>
        <time>2022-06-06T14:15:42Z</time>
      </trkpt>
      <trkpt lat="46.51359" lon="5.80282">
        <ele>793</ele>
        <time>2022-06-06T14:15:46Z</time>
      </trkpt>
      <trkpt lat="46.51339" lon="5.80264">
        <ele>790</ele>
        <time>2022-06-06T14:15:51Z</time>
      </trkpt>
      <trkpt lat="46.51309" lon="5.80241">
        <ele>788</ele>
        <time>2022-06-06T14:15:57Z</time>
      </trkpt>
      <trkpt lat="46.51268" lon="5.80217">
        <ele>787</ele>
        <time>2022-06-06T14:16:04Z</time>
      </trkpt>
      <trkpt lat="46.51255" lon="5.80206">
        <ele>787</ele>
        <time>2022-06-06T14:16:07Z</time>
      </trkpt>
      <trkpt lat="46.51247" lon="5.80194">
        <ele>787</ele>
        <time>2022-06-06T14:16:09Z</time>
      </trkpt>
      <trkpt lat="46.51237" lon="5.8017">
        <ele>787</ele>
        <time>2022-06-06T14:16:13Z</time>
      </trkpt>
      <trkpt lat="46.51225" lon="5.80091">
        <ele>788</ele>
        <time>2022-06-06T14:16:23Z</time>
      </trkpt>
      <trkpt lat="46.51217" lon="5.80058">
        <ele>788</ele>
        <time>2022-06-06T14:16:27Z</time>
      </trkpt>
      <trkpt lat="46.51182" lon="5.79971">
        <ele>786</ele>
        <time>2022-06-06T14:16:39Z</time>
      </trkpt>
      <trkpt lat="46.51147" lon="5.79898">
        <ele>788</ele>
        <time>2022-06-06T14:16:50Z</time>
      </trkpt>
      <trkpt lat="46.51132" lon="5.79841">
        <ele>792</ele>
        <time>2022-06-06T14:16:58Z</time>
      </trkpt>
      <trkpt lat="46.51119" lon="5.79804">
        <ele>793</ele>
        <time>2022-06-06T14:17:03Z</time>
      </trkpt>
      <trkpt lat="46.51109" lon="5.79784">
        <ele>794</ele>
        <time>2022-06-06T14:17:06Z</time>
      </trkpt>
      <trkpt lat="46.51091" lon="5.79759">
        <ele>794</ele>
        <time>2022-06-06T14:17:10Z</time>
      </trkpt>
      <trkpt lat="46.51058" lon="5.79725">
        <ele>796</ele>
        <time>2022-06-06T14:17:17Z</time>
      </trkpt>
      <trkpt lat="46.51033" lon="5.79692">
        <ele>797</ele>
        <time>2022-06-06T14:17:23Z</time>
      </trkpt>
      <trkpt lat="46.51013" lon="5.79658">
        <ele>798</ele>
        <time>2022-06-06T14:17:29Z</time>
      </trkpt>
      <trkpt lat="46.50986" lon="5.796">
        <ele>802</ele>
        <time>2022-06-06T14:17:37Z</time>
      </trkpt>
      <trkpt lat="46.50861" lon="5.79388">
        <ele>813</ele>
        <time>2022-06-06T14:18:11Z</time>
      </trkpt>
      <trkpt lat="46.50869" lon="5.79381">
        <ele>813</ele>
        <time>2022-06-06T14:18:13Z</time>
      </trkpt>
      <trkpt lat="46.50877" lon="5.79363">
        <ele>813</ele>
        <time>2022-06-06T14:18:16Z</time>
      </trkpt>
      <trkpt lat="46.50879" lon="5.79348">
        <ele>814</ele>
        <time>2022-06-06T14:18:18Z</time>
      </trkpt>
      <trkpt lat="46.50878" lon="5.79319">
        <ele>814</ele>
        <time>2022-06-06T14:18:21Z</time>
      </trkpt>
      <trkpt lat="46.50891" lon="5.79312">
        <ele>814</ele>
        <time>2022-06-06T14:18:24Z</time>
      </trkpt>
      <trkpt lat="46.50906" lon="5.79297">
        <ele>814</ele>
        <time>2022-06-06T14:18:27Z</time>
      </trkpt>
      <trkpt lat="46.50952" lon="5.79212">
        <ele>813</ele>
        <time>2022-06-06T14:18:40Z</time>
      </trkpt>
      <trkpt lat="46.5096" lon="5.79202">
        <ele>813</ele>
        <time>2022-06-06T14:18:42Z</time>
      </trkpt>
      <trkpt lat="46.50977" lon="5.79186">
        <ele>812</ele>
        <time>2022-06-06T14:18:46Z</time>
      </trkpt>
      <trkpt lat="46.51053" lon="5.79127">
        <ele>810</ele>
        <time>2022-06-06T14:19:01Z</time>
      </trkpt>
      <trkpt lat="46.51077" lon="5.79103">
        <ele>810</ele>
        <time>2022-06-06T14:19:06Z</time>
      </trkpt>
      <trkpt lat="46.51093" lon="5.79078">
        <ele>810</ele>
        <time>2022-06-06T14:19:10Z</time>
      </trkpt>
      <trkpt lat="46.51198" lon="5.78867">
        <ele>810</ele>
        <time>2022-06-06T14:19:42Z</time>
      </trkpt>
      <trkpt lat="46.51216" lon="5.78837">
        <ele>810</ele>
        <time>2022-06-06T14:19:47Z</time>
      </trkpt>
      <trkpt lat="46.51236" lon="5.78821">
        <ele>810</ele>
        <time>2022-06-06T14:19:51Z</time>
      </trkpt>
      <trkpt lat="46.51266" lon="5.78807">
        <ele>810</ele>
        <time>2022-06-06T14:19:57Z</time>
      </trkpt>
      <trkpt lat="46.51466" lon="5.78752">
        <ele>816</ele>
        <time>2022-06-06T14:20:33Z</time>
      </trkpt>
      <trkpt lat="46.51478" lon="5.7875">
        <ele>817</ele>
        <time>2022-06-06T14:20:35Z</time>
      </trkpt>
      <trkpt lat="46.51498" lon="5.78751">
        <ele>819</ele>
        <time>2022-06-06T14:20:39Z</time>
      </trkpt>
      <trkpt lat="46.51519" lon="5.78755">
        <ele>820</ele>
        <time>2022-06-06T14:20:42Z</time>
      </trkpt>
      <trkpt lat="46.51542" lon="5.78767">
        <ele>821</ele>
        <time>2022-06-06T14:20:47Z</time>
      </trkpt>
      <trkpt lat="46.5157" lon="5.78787">
        <ele>823</ele>
        <time>2022-06-06T14:20:52Z</time>
      </trkpt>
      <trkpt lat="46.51601" lon="5.78814">
        <ele>825</ele>
        <time>2022-06-06T14:20:59Z</time>
      </trkpt>
      <trkpt lat="46.51645" lon="5.78845">
        <ele>826</ele>
        <time>2022-06-06T14:21:07Z</time>
      </trkpt>
      <trkpt lat="46.5167" lon="5.78859">
        <ele>826</ele>
        <time>2022-06-06T14:21:12Z</time>
      </trkpt>
      <trkpt lat="46.51691" lon="5.78867">
        <ele>827</ele>
        <time>2022-06-06T14:21:16Z</time>
      </trkpt>
      <trkpt lat="46.51709" lon="5.78879">
        <ele>828</ele>
        <time>2022-06-06T14:21:20Z</time>
      </trkpt>
      <trkpt lat="46.51783" lon="5.78946">
        <ele>829</ele>
        <time>2022-06-06T14:21:35Z</time>
      </trkpt>
      <trkpt lat="46.51814" lon="5.78977">
        <ele>827</ele>
        <time>2022-06-06T14:21:42Z</time>
      </trkpt>
      <trkpt lat="46.51888" lon="5.79071">
        <ele>824</ele>
        <time>2022-06-06T14:21:59Z</time>
      </trkpt>
      <trkpt lat="46.5194" lon="5.79149">
        <ele>819</ele>
        <time>2022-06-06T14:22:13Z</time>
      </trkpt>
      <trkpt lat="46.51959" lon="5.79168">
        <ele>817</ele>
        <time>2022-06-06T14:22:17Z</time>
      </trkpt>
      <trkpt lat="46.52022" lon="5.79217">
        <ele>812</ele>
        <time>2022-06-06T14:22:29Z</time>
      </trkpt>
      <trkpt lat="46.52029" lon="5.79224">
        <ele>811</ele>
        <time>2022-06-06T14:22:31Z</time>
      </trkpt>
      <trkpt lat="46.52066" lon="5.79275">
        <ele>807</ele>
        <time>2022-06-06T14:22:40Z</time>
      </trkpt>
      <trkpt lat="46.52093" lon="5.79295">
        <ele>805</ele>
        <time>2022-06-06T14:22:45Z</time>
      </trkpt>
      <trkpt lat="46.5216" lon="5.79325">
        <ele>802</ele>
        <time>2022-06-06T14:22:58Z</time>
      </trkpt>
      <trkpt lat="46.52171" lon="5.79334">
        <ele>801</ele>
        <time>2022-06-06T14:23:00Z</time>
      </trkpt>
      <trkpt lat="46.52183" lon="5.79354">
        <ele>801</ele>
        <time>2022-06-06T14:23:03Z</time>
      </trkpt>
      <trkpt lat="46.52219" lon="5.79439">
        <ele>802</ele>
        <time>2022-06-06T14:23:16Z</time>
      </trkpt>
      <trkpt lat="46.5223" lon="5.79455">
        <ele>802</ele>
        <time>2022-06-06T14:23:18Z</time>
      </trkpt>
      <trkpt lat="46.52302" lon="5.79535">
        <ele>801</ele>
        <time>2022-06-06T14:23:35Z</time>
      </trkpt>
      <trkpt lat="46.52316" lon="5.7954">
        <ele>801</ele>
        <time>2022-06-06T14:23:37Z</time>
      </trkpt>
      <trkpt lat="46.52332" lon="5.79541">
        <ele>800</ele>
        <time>2022-06-06T14:23:40Z</time>
      </trkpt>
      <trkpt lat="46.52368" lon="5.79537">
        <ele>797</ele>
        <time>2022-06-06T14:23:46Z</time>
      </trkpt>
      <trkpt lat="46.52379" lon="5.79539">
        <ele>797</ele>
        <time>2022-06-06T14:23:48Z</time>
      </trkpt>
      <trkpt lat="46.5239" lon="5.79543">
        <ele>796</ele>
        <time>2022-06-06T14:23:50Z</time>
      </trkpt>
      <trkpt lat="46.52409" lon="5.79557">
        <ele>794</ele>
        <time>2022-06-06T14:23:54Z</time>
      </trkpt>
      <trkpt lat="46.52501" lon="5.79639">
        <ele>782</ele>
        <time>2022-06-06T14:24:13Z</time>
      </trkpt>
      <trkpt lat="46.52512" lon="5.79647">
        <ele>782</ele>
        <time>2022-06-06T14:24:16Z</time>
      </trkpt>
      <trkpt lat="46.52523" lon="5.79648">
        <ele>781</ele>
        <time>2022-06-06T14:24:17Z</time>
      </trkpt>
      <trkpt lat="46.52537" lon="5.7964">
        <ele>780</ele>
        <time>2022-06-06T14:24:20Z</time>
      </trkpt>
      <trkpt lat="46.52583" lon="5.79585">
        <ele>776</ele>
        <time>2022-06-06T14:24:31Z</time>
      </trkpt>
      <trkpt lat="46.52598" lon="5.7957">
        <ele>776</ele>
        <time>2022-06-06T14:24:34Z</time>
      </trkpt>
      <trkpt lat="46.5261" lon="5.79562">
        <ele>774</ele>
        <time>2022-06-06T14:24:36Z</time>
      </trkpt>
      <trkpt lat="46.52633" lon="5.7955">
        <ele>771</ele>
        <time>2022-06-06T14:24:41Z</time>
      </trkpt>
      <trkpt lat="46.52641" lon="5.79542">
        <ele>770</ele>
        <time>2022-06-06T14:24:42Z</time>
      </trkpt>
      <trkpt lat="46.52652" lon="5.79523">
        <ele>768</ele>
        <time>2022-06-06T14:24:45Z</time>
      </trkpt>
      <trkpt lat="46.52664" lon="5.79487">
        <ele>765</ele>
        <time>2022-06-06T14:24:50Z</time>
      </trkpt>
      <trkpt lat="46.52667" lon="5.79463">
        <ele>764</ele>
        <time>2022-06-06T14:24:53Z</time>
      </trkpt>
      <trkpt lat="46.52666" lon="5.79453">
        <ele>764</ele>
        <time>2022-06-06T14:24:55Z</time>
      </trkpt>
      <trkpt lat="46.52658" lon="5.7942">
        <ele>765</ele>
        <time>2022-06-06T14:24:59Z</time>
      </trkpt>
      <trkpt lat="46.52657" lon="5.79395">
        <ele>764</ele>
        <time>2022-06-06T14:25:02Z</time>
      </trkpt>
      <trkpt lat="46.52663" lon="5.79369">
        <ele>760</ele>
        <time>2022-06-06T14:25:05Z</time>
      </trkpt>
      <trkpt lat="46.5268" lon="5.79329">
        <ele>757</ele>
        <time>2022-06-06T14:25:11Z</time>
      </trkpt>
      <trkpt lat="46.52708" lon="5.79271">
        <ele>759</ele>
        <time>2022-06-06T14:25:20Z</time>
      </trkpt>
      <trkpt lat="46.52719" lon="5.79236">
        <ele>759</ele>
        <time>2022-06-06T14:25:24Z</time>
      </trkpt>
      <trkpt lat="46.52737" lon="5.79164">
        <ele>757</ele>
        <time>2022-06-06T14:25:34Z</time>
      </trkpt>
      <trkpt lat="46.52747" lon="5.79144">
        <ele>755</ele>
        <time>2022-06-06T14:25:37Z</time>
      </trkpt>
      <trkpt lat="46.52753" lon="5.79136">
        <ele>754</ele>
        <time>2022-06-06T14:25:38Z</time>
      </trkpt>
      <trkpt lat="46.52765" lon="5.79126">
        <ele>753</ele>
        <time>2022-06-06T14:25:41Z</time>
      </trkpt>
      <trkpt lat="46.52784" lon="5.7912">
        <ele>752</ele>
        <time>2022-06-06T14:25:44Z</time>
      </trkpt>
      <trkpt lat="46.52801" lon="5.79122">
        <ele>751</ele>
        <time>2022-06-06T14:25:47Z</time>
      </trkpt>
      <trkpt lat="46.52838" lon="5.79132">
        <ele>749</ele>
        <time>2022-06-06T14:25:54Z</time>
      </trkpt>
      <trkpt lat="46.52852" lon="5.79132">
        <ele>749</ele>
        <time>2022-06-06T14:25:56Z</time>
      </trkpt>
      <trkpt lat="46.52866" lon="5.79129">
        <ele>749</ele>
        <time>2022-06-06T14:25:59Z</time>
      </trkpt>
      <trkpt lat="46.52897" lon="5.79116">
        <ele>748</ele>
        <time>2022-06-06T14:26:05Z</time>
      </trkpt>
      <trkpt lat="46.52916" lon="5.79103">
        <ele>747</ele>
        <time>2022-06-06T14:26:08Z</time>
      </trkpt>
      <trkpt lat="46.52948" lon="5.79065">
        <ele>749</ele>
        <time>2022-06-06T14:26:16Z</time>
      </trkpt>
      <trkpt lat="46.52965" lon="5.79053">
        <ele>752</ele>
        <time>2022-06-06T14:26:19Z</time>
      </trkpt>
      <trkpt lat="46.52985" lon="5.79048">
        <ele>755</ele>
        <time>2022-06-06T14:26:23Z</time>
      </trkpt>
      <trkpt lat="46.53012" lon="5.79052">
        <ele>757</ele>
        <time>2022-06-06T14:26:28Z</time>
      </trkpt>
      <trkpt lat="46.53051" lon="5.79061">
        <ele>759</ele>
        <time>2022-06-06T14:26:35Z</time>
      </trkpt>
      <trkpt lat="46.53085" lon="5.79072">
        <ele>759</ele>
        <time>2022-06-06T14:26:41Z</time>
      </trkpt>
      <trkpt lat="46.5317" lon="5.79113">
        <ele>759</ele>
        <time>2022-06-06T14:26:57Z</time>
      </trkpt>
      <trkpt lat="46.53217" lon="5.79141">
        <ele>758</ele>
        <time>2022-06-06T14:27:06Z</time>
      </trkpt>
      <trkpt lat="46.53234" lon="5.79155">
        <ele>756</ele>
        <time>2022-06-06T14:27:09Z</time>
      </trkpt>
      <trkpt lat="46.53283" lon="5.79205">
        <ele>752</ele>
        <time>2022-06-06T14:27:20Z</time>
      </trkpt>
      <trkpt lat="46.53346" lon="5.79248">
        <ele>750</ele>
        <time>2022-06-06T14:27:32Z</time>
      </trkpt>
      <trkpt lat="46.53366" lon="5.79268">
        <ele>750</ele>
        <time>2022-06-06T14:27:37Z</time>
      </trkpt>
      <trkpt lat="46.53375" lon="5.79279">
        <ele>749</ele>
        <time>2022-06-06T14:27:39Z</time>
      </trkpt>
      <trkpt lat="46.53398" lon="5.79321">
        <ele>745</ele>
        <time>2022-06-06T14:27:45Z</time>
      </trkpt>
      <trkpt lat="46.53414" lon="5.79345">
        <ele>743</ele>
        <time>2022-06-06T14:27:49Z</time>
      </trkpt>
      <trkpt lat="46.53432" lon="5.79362">
        <ele>743</ele>
        <time>2022-06-06T14:27:53Z</time>
      </trkpt>
      <trkpt lat="46.53446" lon="5.79372">
        <ele>743</ele>
        <time>2022-06-06T14:27:56Z</time>
      </trkpt>
      <trkpt lat="46.53492" lon="5.79394">
        <ele>747</ele>
        <time>2022-06-06T14:28:05Z</time>
      </trkpt>
      <trkpt lat="46.53552" lon="5.79411">
        <ele>748</ele>
        <time>2022-06-06T14:28:15Z</time>
      </trkpt>
      <trkpt lat="46.53576" lon="5.79414">
        <ele>749</ele>
        <time>2022-06-06T14:28:20Z</time>
      </trkpt>
      <trkpt lat="46.5369" lon="5.79407">
        <ele>752</ele>
        <time>2022-06-06T14:28:40Z</time>
      </trkpt>
      <trkpt lat="46.53715" lon="5.79408">
        <ele>752</ele>
        <time>2022-06-06T14:28:44Z</time>
      </trkpt>
      <trkpt lat="46.53734" lon="5.79412">
        <ele>751</ele>
        <time>2022-06-06T14:28:48Z</time>
      </trkpt>
      <trkpt lat="46.53787" lon="5.79431">
        <ele>748</ele>
        <time>2022-06-06T14:28:58Z</time>
      </trkpt>
      <trkpt lat="46.53819" lon="5.79445">
        <ele>747</ele>
        <time>2022-06-06T14:29:04Z</time>
      </trkpt>
      <trkpt lat="46.53892" lon="5.79462">
        <ele>749</ele>
        <time>2022-06-06T14:29:17Z</time>
      </trkpt>
      <trkpt lat="46.53936" lon="5.79479">
        <ele>749</ele>
        <time>2022-06-06T14:29:25Z</time>
      </trkpt>
      <trkpt lat="46.53971" lon="5.795">
        <ele>749</ele>
        <time>2022-06-06T14:29:32Z</time>
      </trkpt>
      <trkpt lat="46.53998" lon="5.79524">
        <ele>747</ele>
        <time>2022-06-06T14:29:37Z</time>
      </trkpt>
      <trkpt lat="46.54019" lon="5.79539">
        <ele>744</ele>
        <time>2022-06-06T14:29:41Z</time>
      </trkpt>
      <trkpt lat="46.54047" lon="5.7955">
        <ele>742</ele>
        <time>2022-06-06T14:29:47Z</time>
      </trkpt>
      <trkpt lat="46.5407" lon="5.79553">
        <ele>742</ele>
        <time>2022-06-06T14:29:51Z</time>
      </trkpt>
      <trkpt lat="46.54082" lon="5.79553">
        <ele>742</ele>
        <time>2022-06-06T14:29:53Z</time>
      </trkpt>
      <trkpt lat="46.54105" lon="5.79546">
        <ele>743</ele>
        <time>2022-06-06T14:29:57Z</time>
      </trkpt>
      <trkpt lat="46.54127" lon="5.79534">
        <ele>745</ele>
        <time>2022-06-06T14:30:01Z</time>
      </trkpt>
      <trkpt lat="46.54155" lon="5.79511">
        <ele>746</ele>
        <time>2022-06-06T14:30:07Z</time>
      </trkpt>
      <trkpt lat="46.54185" lon="5.79483">
        <ele>746</ele>
        <time>2022-06-06T14:30:13Z</time>
      </trkpt>
      <trkpt lat="46.54226" lon="5.79427">
        <ele>742</ele>
        <time>2022-06-06T14:30:23Z</time>
      </trkpt>
      <trkpt lat="46.54239" lon="5.79416">
        <ele>740</ele>
        <time>2022-06-06T14:30:26Z</time>
      </trkpt>
      <trkpt lat="46.54246" lon="5.79412">
        <ele>739</ele>
        <time>2022-06-06T14:30:27Z</time>
      </trkpt>
      <trkpt lat="46.54263" lon="5.79411">
        <ele>738</ele>
        <time>2022-06-06T14:30:30Z</time>
      </trkpt>
      <trkpt lat="46.54318" lon="5.79418">
        <ele>736</ele>
        <time>2022-06-06T14:30:40Z</time>
      </trkpt>
      <trkpt lat="46.54338" lon="5.79418">
        <ele>735</ele>
        <time>2022-06-06T14:30:44Z</time>
      </trkpt>
      <trkpt lat="46.5436" lon="5.79415">
        <ele>734</ele>
        <time>2022-06-06T14:30:48Z</time>
      </trkpt>
      <trkpt lat="46.54381" lon="5.79406">
        <ele>734</ele>
        <time>2022-06-06T14:30:51Z</time>
      </trkpt>
      <trkpt lat="46.54422" lon="5.79379">
        <ele>731</ele>
        <time>2022-06-06T14:30:59Z</time>
      </trkpt>
      <trkpt lat="46.5444" lon="5.79364">
        <ele>730</ele>
        <time>2022-06-06T14:31:03Z</time>
      </trkpt>
      <trkpt lat="46.54465" lon="5.79335">
        <ele>727</ele>
        <time>2022-06-06T14:31:09Z</time>
      </trkpt>
      <trkpt lat="46.54487" lon="5.79314">
        <ele>726</ele>
        <time>2022-06-06T14:31:14Z</time>
      </trkpt>
      <trkpt lat="46.54497" lon="5.79302">
        <ele>725</ele>
        <time>2022-06-06T14:31:16Z</time>
      </trkpt>
      <trkpt lat="46.54514" lon="5.79275">
        <ele>724</ele>
        <time>2022-06-06T14:31:20Z</time>
      </trkpt>
      <trkpt lat="46.54522" lon="5.79266">
        <ele>723</ele>
        <time>2022-06-06T14:31:22Z</time>
      </trkpt>
      <trkpt lat="46.54542" lon="5.79256">
        <ele>721</ele>
        <time>2022-06-06T14:31:26Z</time>
      </trkpt>
      <trkpt lat="46.5458" lon="5.79253">
        <ele>717</ele>
        <time>2022-06-06T14:31:33Z</time>
      </trkpt>
      <trkpt lat="46.54602" lon="5.79243">
        <ele>717</ele>
        <time>2022-06-06T14:31:37Z</time>
      </trkpt>
      <trkpt lat="46.54622" lon="5.79227">
        <ele>716</ele>
        <time>2022-06-06T14:31:41Z</time>
      </trkpt>
      <trkpt lat="46.54701" lon="5.79152">
        <ele>711</ele>
        <time>2022-06-06T14:31:58Z</time>
      </trkpt>
      <trkpt lat="46.54715" lon="5.79144">
        <ele>711</ele>
        <time>2022-06-06T14:32:00Z</time>
      </trkpt>
      <trkpt lat="46.54749" lon="5.79133">
        <ele>712</ele>
        <time>2022-06-06T14:32:06Z</time>
      </trkpt>
      <trkpt lat="46.54759" lon="5.79125">
        <ele>712</ele>
        <time>2022-06-06T14:32:08Z</time>
      </trkpt>
      <trkpt lat="46.54764" lon="5.79119">
        <ele>712</ele>
        <time>2022-06-06T14:32:10Z</time>
      </trkpt>
      <trkpt lat="46.54772" lon="5.791">
        <ele>712</ele>
        <time>2022-06-06T14:32:12Z</time>
      </trkpt>
      <trkpt lat="46.54775" lon="5.79074">
        <ele>711</ele>
        <time>2022-06-06T14:32:16Z</time>
      </trkpt>
      <trkpt lat="46.54773" lon="5.79048">
        <ele>710</ele>
        <time>2022-06-06T14:32:19Z</time>
      </trkpt>
      <trkpt lat="46.54743" lon="5.78888">
        <ele>704</ele>
        <time>2022-06-06T14:32:39Z</time>
      </trkpt>
      <trkpt lat="46.5474" lon="5.7885">
        <ele>705</ele>
        <time>2022-06-06T14:32:44Z</time>
      </trkpt>
      <trkpt lat="46.5474" lon="5.78788">
        <ele>706</ele>
        <time>2022-06-06T14:32:51Z</time>
      </trkpt>
      <trkpt lat="46.54745" lon="5.78767">
        <ele>707</ele>
        <time>2022-06-06T14:32:54Z</time>
      </trkpt>
      <trkpt lat="46.54748" lon="5.78757">
        <ele>708</ele>
        <time>2022-06-06T14:32:55Z</time>
      </trkpt>
      <trkpt lat="46.54762" lon="5.78738">
        <ele>708</ele>
        <time>2022-06-06T14:32:59Z</time>
      </trkpt>
      <trkpt lat="46.54774" lon="5.78727">
        <ele>708</ele>
        <time>2022-06-06T14:33:01Z</time>
      </trkpt>
      <trkpt lat="46.54814" lon="5.78703">
        <ele>709</ele>
        <time>2022-06-06T14:33:09Z</time>
      </trkpt>
      <trkpt lat="46.54868" lon="5.78693">
        <ele>709</ele>
        <time>2022-06-06T14:33:19Z</time>
      </trkpt>
      <trkpt lat="46.54953" lon="5.78666">
        <ele>707</ele>
        <time>2022-06-06T14:33:34Z</time>
      </trkpt>
      <trkpt lat="46.54969" lon="5.78655">
        <ele>707</ele>
        <time>2022-06-06T14:33:37Z</time>
      </trkpt>
      <trkpt lat="46.54981" lon="5.78639">
        <ele>707</ele>
        <time>2022-06-06T14:33:40Z</time>
      </trkpt>
      <trkpt lat="46.54986" lon="5.78631">
        <ele>707</ele>
        <time>2022-06-06T14:33:42Z</time>
      </trkpt>
      <trkpt lat="46.54995" lon="5.78601">
        <ele>708</ele>
        <time>2022-06-06T14:33:46Z</time>
      </trkpt>
      <trkpt lat="46.54999" lon="5.78577">
        <ele>709</ele>
        <time>2022-06-06T14:33:49Z</time>
      </trkpt>
      <trkpt lat="46.55" lon="5.78555">
        <ele>710</ele>
        <time>2022-06-06T14:33:51Z</time>
      </trkpt>
      <trkpt lat="46.55" lon="5.78468">
        <ele>711</ele>
        <time>2022-06-06T14:34:02Z</time>
      </trkpt>
      <trkpt lat="46.55002" lon="5.78447">
        <ele>710</ele>
        <time>2022-06-06T14:34:05Z</time>
      </trkpt>
      <trkpt lat="46.55008" lon="5.78419">
        <ele>710</ele>
        <time>2022-06-06T14:34:08Z</time>
      </trkpt>
      <trkpt lat="46.55029" lon="5.78351">
        <ele>708</ele>
        <time>2022-06-06T14:34:17Z</time>
      </trkpt>
      <trkpt lat="46.55035" lon="5.78324">
        <ele>708</ele>
        <time>2022-06-06T14:34:21Z</time>
      </trkpt>
      <trkpt lat="46.55038" lon="5.78297">
        <ele>707</ele>
        <time>2022-06-06T14:34:24Z</time>
      </trkpt>
      <trkpt lat="46.55041" lon="5.78251">
        <ele>706</ele>
        <time>2022-06-06T14:34:30Z</time>
      </trkpt>
      <trkpt lat="46.55045" lon="5.78216">
        <ele>704</ele>
        <time>2022-06-06T14:34:34Z</time>
      </trkpt>
      <trkpt lat="46.55048" lon="5.78205">
        <ele>703</ele>
        <time>2022-06-06T14:34:36Z</time>
      </trkpt>
      <trkpt lat="46.55056" lon="5.78183">
        <ele>703</ele>
        <time>2022-06-06T14:34:39Z</time>
      </trkpt>
      <trkpt lat="46.55066" lon="5.78164">
        <ele>702</ele>
        <time>2022-06-06T14:34:41Z</time>
      </trkpt>
      <trkpt lat="46.55091" lon="5.78127">
        <ele>702</ele>
        <time>2022-06-06T14:34:48Z</time>
      </trkpt>
      <trkpt lat="46.5511" lon="5.78089">
        <ele>702</ele>
        <time>2022-06-06T14:34:54Z</time>
      </trkpt>
      <trkpt lat="46.55123" lon="5.78059">
        <ele>702</ele>
        <time>2022-06-06T14:34:58Z</time>
      </trkpt>
      <trkpt lat="46.55169" lon="5.77903">
        <ele>694</ele>
        <time>2022-06-06T14:35:19Z</time>
      </trkpt>
      <trkpt lat="46.55183" lon="5.77875">
        <ele>692</ele>
        <time>2022-06-06T14:35:23Z</time>
      </trkpt>
      <trkpt lat="46.55209" lon="5.77836">
        <ele>690</ele>
        <time>2022-06-06T14:35:30Z</time>
      </trkpt>
      <trkpt lat="46.55224" lon="5.77815">
        <ele>690</ele>
        <time>2022-06-06T14:35:33Z</time>
      </trkpt>
      <trkpt lat="46.5524" lon="5.77799">
        <ele>690</ele>
        <time>2022-06-06T14:35:37Z</time>
      </trkpt>
      <trkpt lat="46.5529" lon="5.77778">
        <ele>688</ele>
        <time>2022-06-06T14:35:46Z</time>
      </trkpt>
      <trkpt lat="46.55331" lon="5.77752">
        <ele>682</ele>
        <time>2022-06-06T14:35:54Z</time>
      </trkpt>
      <trkpt lat="46.55348" lon="5.7774">
        <ele>681</ele>
        <time>2022-06-06T14:35:57Z</time>
      </trkpt>
      <trkpt lat="46.55383" lon="5.77707">
        <ele>678</ele>
        <time>2022-06-06T14:36:05Z</time>
      </trkpt>
      <trkpt lat="46.55393" lon="5.777">
        <ele>677</ele>
        <time>2022-06-06T14:36:07Z</time>
      </trkpt>
      <trkpt lat="46.55413" lon="5.7769">
        <ele>676</ele>
        <time>2022-06-06T14:36:10Z</time>
      </trkpt>
      <trkpt lat="46.55435" lon="5.77684">
        <ele>676</ele>
        <time>2022-06-06T14:36:14Z</time>
      </trkpt>
      <trkpt lat="46.55453" lon="5.77674">
        <ele>675</ele>
        <time>2022-06-06T14:36:18Z</time>
      </trkpt>
      <trkpt lat="46.5547" lon="5.77653">
        <ele>673</ele>
        <time>2022-06-06T14:36:22Z</time>
      </trkpt>
      <trkpt lat="46.55485" lon="5.77626">
        <ele>672</ele>
        <time>2022-06-06T14:36:26Z</time>
      </trkpt>
      <trkpt lat="46.55513" lon="5.77564">
        <ele>671</ele>
        <time>2022-06-06T14:36:35Z</time>
      </trkpt>
      <trkpt lat="46.55554" lon="5.77499">
        <ele>670</ele>
        <time>2022-06-06T14:36:46Z</time>
      </trkpt>
      <trkpt lat="46.55562" lon="5.77478">
        <ele>671</ele>
        <time>2022-06-06T14:36:49Z</time>
      </trkpt>
      <trkpt lat="46.55581" lon="5.77413">
        <ele>673</ele>
        <time>2022-06-06T14:36:58Z</time>
      </trkpt>
      <trkpt lat="46.55591" lon="5.77393">
        <ele>673</ele>
        <time>2022-06-06T14:37:01Z</time>
      </trkpt>
      <trkpt lat="46.55604" lon="5.77379">
        <ele>672</ele>
        <time>2022-06-06T14:37:03Z</time>
      </trkpt>
      <trkpt lat="46.55628" lon="5.77361">
        <ele>669</ele>
        <time>2022-06-06T14:37:08Z</time>
      </trkpt>
      <trkpt lat="46.55641" lon="5.77348">
        <ele>667</ele>
        <time>2022-06-06T14:37:11Z</time>
      </trkpt>
      <trkpt lat="46.55657" lon="5.77325">
        <ele>663</ele>
        <time>2022-06-06T14:37:15Z</time>
      </trkpt>
      <trkpt lat="46.55668" lon="5.77303">
        <ele>659</ele>
        <time>2022-06-06T14:37:18Z</time>
      </trkpt>
      <trkpt lat="46.5568" lon="5.77274">
        <ele>655</ele>
        <time>2022-06-06T14:37:23Z</time>
      </trkpt>
      <trkpt lat="46.55718" lon="5.77151">
        <ele>649</ele>
        <time>2022-06-06T14:37:39Z</time>
      </trkpt>
      <trkpt lat="46.55757" lon="5.77048">
        <ele>648</ele>
        <time>2022-06-06T14:37:53Z</time>
      </trkpt>
      <trkpt lat="46.55761" lon="5.77026">
        <ele>647</ele>
        <time>2022-06-06T14:37:56Z</time>
      </trkpt>
      <trkpt lat="46.5576" lon="5.76949">
        <ele>643</ele>
        <time>2022-06-06T14:38:06Z</time>
      </trkpt>
      <trkpt lat="46.55771" lon="5.7687">
        <ele>639</ele>
        <time>2022-06-06T14:38:15Z</time>
      </trkpt>
      <trkpt lat="46.55773" lon="5.76782">
        <ele>638</ele>
        <time>2022-06-06T14:38:26Z</time>
      </trkpt>
      <trkpt lat="46.55783" lon="5.76673">
        <ele>640</ele>
        <time>2022-06-06T14:38:40Z</time>
      </trkpt>
      <trkpt lat="46.55781" lon="5.7665">
        <ele>640</ele>
        <time>2022-06-06T14:38:43Z</time>
      </trkpt>
      <trkpt lat="46.55759" lon="5.7658">
        <ele>641</ele>
        <time>2022-06-06T14:38:52Z</time>
      </trkpt>
      <trkpt lat="46.55755" lon="5.76558">
        <ele>642</ele>
        <time>2022-06-06T14:38:55Z</time>
      </trkpt>
      <trkpt lat="46.55756" lon="5.76529">
        <ele>642</ele>
        <time>2022-06-06T14:38:58Z</time>
      </trkpt>
      <trkpt lat="46.5576" lon="5.76508">
        <ele>642</ele>
        <time>2022-06-06T14:39:01Z</time>
      </trkpt>
      <trkpt lat="46.55768" lon="5.76485">
        <ele>640</ele>
        <time>2022-06-06T14:39:04Z</time>
      </trkpt>
      <trkpt lat="46.55777" lon="5.76467">
        <ele>638</ele>
        <time>2022-06-06T14:39:07Z</time>
      </trkpt>
      <trkpt lat="46.55844" lon="5.76346">
        <ele>630</ele>
        <time>2022-06-06T14:39:26Z</time>
      </trkpt>
      <trkpt lat="46.55865" lon="5.76318">
        <ele>627</ele>
        <time>2022-06-06T14:39:31Z</time>
      </trkpt>
      <trkpt lat="46.55885" lon="5.76302">
        <ele>623</ele>
        <time>2022-06-06T14:39:35Z</time>
      </trkpt>
      <trkpt lat="46.559" lon="5.76294">
        <ele>620</ele>
        <time>2022-06-06T14:39:38Z</time>
      </trkpt>
      <trkpt lat="46.55962" lon="5.76272">
        <ele>616</ele>
        <time>2022-06-06T14:39:49Z</time>
      </trkpt>
      <trkpt lat="46.55997" lon="5.76252">
        <ele>613</ele>
        <time>2022-06-06T14:39:56Z</time>
      </trkpt>
      <trkpt lat="46.56026" lon="5.76226">
        <ele>610</ele>
        <time>2022-06-06T14:40:02Z</time>
      </trkpt>
      <trkpt lat="46.56094" lon="5.7616">
        <ele>604</ele>
        <time>2022-06-06T14:40:16Z</time>
      </trkpt>
      <trkpt lat="46.56115" lon="5.76146">
        <ele>603</ele>
        <time>2022-06-06T14:40:21Z</time>
      </trkpt>
      <trkpt lat="46.56129" lon="5.7614">
        <ele>602</ele>
        <time>2022-06-06T14:40:23Z</time>
      </trkpt>
      <trkpt lat="46.56144" lon="5.76137">
        <ele>601</ele>
        <time>2022-06-06T14:40:26Z</time>
      </trkpt>
      <trkpt lat="46.56167" lon="5.76138">
        <ele>601</ele>
        <time>2022-06-06T14:40:30Z</time>
      </trkpt>
      <trkpt lat="46.56235" lon="5.76152">
        <ele>594</ele>
        <time>2022-06-06T14:40:42Z</time>
      </trkpt>
      <trkpt lat="46.5627" lon="5.76157">
        <ele>594</ele>
        <time>2022-06-06T14:40:48Z</time>
      </trkpt>
      <trkpt lat="46.56293" lon="5.76154">
        <ele>594</ele>
        <time>2022-06-06T14:40:53Z</time>
      </trkpt>
      <trkpt lat="46.5631" lon="5.76147">
        <ele>592</ele>
        <time>2022-06-06T14:40:56Z</time>
      </trkpt>
      <trkpt lat="46.5633" lon="5.76128">
        <ele>588</ele>
        <time>2022-06-06T14:41:00Z</time>
      </trkpt>
      <trkpt lat="46.56346" lon="5.76104">
        <ele>585</ele>
        <time>2022-06-06T14:41:04Z</time>
      </trkpt>
      <trkpt lat="46.56391" lon="5.76013">
        <ele>577</ele>
        <time>2022-06-06T14:41:18Z</time>
      </trkpt>
      <trkpt lat="46.5641" lon="5.75971">
        <ele>573</ele>
        <time>2022-06-06T14:41:24Z</time>
      </trkpt>
      <trkpt lat="46.56445" lon="5.75912">
        <ele>568</ele>
        <time>2022-06-06T14:41:33Z</time>
      </trkpt>
      <trkpt lat="46.56467" lon="5.75881">
        <ele>568</ele>
        <time>2022-06-06T14:41:39Z</time>
      </trkpt>
      <trkpt lat="46.56509" lon="5.75834">
        <ele>567</ele>
        <time>2022-06-06T14:41:48Z</time>
      </trkpt>
      <trkpt lat="46.56542" lon="5.75799">
        <ele>562</ele>
        <time>2022-06-06T14:41:56Z</time>
      </trkpt>
      <trkpt lat="46.56571" lon="5.75772">
        <ele>560</ele>
        <time>2022-06-06T14:42:02Z</time>
      </trkpt>
      <trkpt lat="46.56595" lon="5.75754">
        <ele>559</ele>
        <time>2022-06-06T14:42:07Z</time>
      </trkpt>
      <trkpt lat="46.56623" lon="5.75737">
        <ele>557</ele>
        <time>2022-06-06T14:42:12Z</time>
      </trkpt>
      <trkpt lat="46.56663" lon="5.75717">
        <ele>556</ele>
        <time>2022-06-06T14:42:19Z</time>
      </trkpt>
      <trkpt lat="46.56759" lon="5.75681">
        <ele>556</ele>
        <time>2022-06-06T14:42:37Z</time>
      </trkpt>
      <trkpt lat="46.56777" lon="5.75672">
        <ele>556</ele>
        <time>2022-06-06T14:42:40Z</time>
      </trkpt>
      <trkpt lat="46.56794" lon="5.75661">
        <ele>557</ele>
        <time>2022-06-06T14:42:44Z</time>
      </trkpt>
      <trkpt lat="46.56814" lon="5.75641">
        <ele>556</ele>
        <time>2022-06-06T14:42:48Z</time>
      </trkpt>
      <trkpt lat="46.56855" lon="5.75593">
        <ele>554</ele>
        <time>2022-06-06T14:42:57Z</time>
      </trkpt>
      <trkpt lat="46.56883" lon="5.75572">
        <ele>554</ele>
        <time>2022-06-06T14:43:03Z</time>
      </trkpt>
      <trkpt lat="46.57199" lon="5.75426">
        <ele>547</ele>
        <time>2022-06-06T14:44:02Z</time>
      </trkpt>
      <trkpt lat="46.57221" lon="5.75419">
        <ele>547</ele>
        <time>2022-06-06T14:44:06Z</time>
      </trkpt>
      <trkpt lat="46.57239" lon="5.75407">
        <ele>546</ele>
        <time>2022-06-06T14:44:10Z</time>
      </trkpt>
      <trkpt lat="46.57245" lon="5.75402">
        <ele>546</ele>
        <time>2022-06-06T14:44:11Z</time>
      </trkpt>
      <trkpt lat="46.57313" lon="5.75324">
        <ele>546</ele>
        <time>2022-06-06T14:44:26Z</time>
      </trkpt>
      <trkpt lat="46.57448" lon="5.75166">
        <ele>543</ele>
        <time>2022-06-06T14:44:57Z</time>
      </trkpt>
      <trkpt lat="46.5752" lon="5.75073">
        <ele>542</ele>
        <time>2022-06-06T14:45:14Z</time>
      </trkpt>
      <trkpt lat="46.57515" lon="5.75065">
        <ele>542</ele>
        <time>2022-06-06T14:45:16Z</time>
      </trkpt>
      <trkpt lat="46.5749" lon="5.75047">
        <ele>541</ele>
        <time>2022-06-06T14:45:20Z</time>
      </trkpt>
      <trkpt lat="46.57481" lon="5.75037">
        <ele>540</ele>
        <time>2022-06-06T14:45:22Z</time>
      </trkpt>
      <trkpt lat="46.57434" lon="5.7497">
        <ele>534</ele>
        <time>2022-06-06T14:45:34Z</time>
      </trkpt>
      <trkpt lat="46.57418" lon="5.7494">
        <ele>532</ele>
        <time>2022-06-06T14:45:39Z</time>
      </trkpt>
      <trkpt lat="46.57407" lon="5.74912">
        <ele>532</ele>
        <time>2022-06-06T14:45:43Z</time>
      </trkpt>
      <trkpt lat="46.57406" lon="5.74892">
        <ele>531</ele>
        <time>2022-06-06T14:45:45Z</time>
      </trkpt>
      <trkpt lat="46.57415" lon="5.74828">
        <ele>530</ele>
        <time>2022-06-06T14:45:53Z</time>
      </trkpt>
      <trkpt lat="46.57416" lon="5.74823">
        <ele>530</ele>
        <time>2022-06-06T14:45:54Z</time>
      </trkpt>
      <trkpt lat="46.57423" lon="5.74816">
        <ele>530</ele>
        <time>2022-06-06T14:45:55Z</time>
      </trkpt>
      <trkpt lat="46.5742" lon="5.74808">
        <ele>530</ele>
        <time>2022-06-06T14:45:56Z</time>
      </trkpt>
      <trkpt lat="46.57416" lon="5.74793">
        <ele>530</ele>
        <time>2022-06-06T14:45:58Z</time>
      </trkpt>
      <trkpt lat="46.57418" lon="5.7478">
        <ele>530</ele>
        <time>2022-06-06T14:46:00Z</time>
      </trkpt>
      <trkpt lat="46.57429" lon="5.74739">
        <ele>531</ele>
        <time>2022-06-06T14:46:05Z</time>
      </trkpt>
      <trkpt lat="46.57426" lon="5.74728">
        <ele>531</ele>
        <time>2022-06-06T14:46:07Z</time>
      </trkpt>
      <trkpt lat="46.57421" lon="5.74723">
        <ele>531</ele>
        <time>2022-06-06T14:46:08Z</time>
      </trkpt>
      <trkpt lat="46.57416" lon="5.74723">
        <ele>531</ele>
        <time>2022-06-06T14:46:09Z</time>
      </trkpt>
      <trkpt lat="46.57393" lon="5.74716">
        <ele>531</ele>
        <time>2022-06-06T14:46:13Z</time>
      </trkpt>
      <trkpt lat="46.57348" lon="5.74668">
        <ele>534</ele>
        <time>2022-06-06T14:46:23Z</time>
      </trkpt>
      <trkpt lat="46.57315" lon="5.74645">
        <ele>536</ele>
        <time>2022-06-06T14:46:30Z</time>
      </trkpt>
      <trkpt lat="46.57255" lon="5.74611">
        <ele>538</ele>
        <time>2022-06-06T14:46:41Z</time>
      </trkpt>
      <trkpt lat="46.57175" lon="5.74581">
        <ele>534</ele>
        <time>2022-06-06T14:46:56Z</time>
      </trkpt>
      <trkpt lat="46.56897" lon="5.74487">
        <ele>537</ele>
        <time>2022-06-06T14:47:46Z</time>
      </trkpt>
      <trkpt lat="46.5679" lon="5.74454">
        <ele>540</ele>
        <time>2022-06-06T14:48:06Z</time>
      </trkpt>
      <trkpt lat="46.5674" lon="5.74442">
        <ele>539</ele>
        <time>2022-06-06T14:48:15Z</time>
      </trkpt>
      <trkpt lat="46.56336" lon="5.74383">
        <ele>539</ele>
        <time>2022-06-06T14:49:27Z</time>
      </trkpt>
      <trkpt lat="46.5629" lon="5.74379">
        <ele>540</ele>
        <time>2022-06-06T14:49:35Z</time>
      </trkpt>
      <trkpt lat="46.56264" lon="5.74381">
        <ele>540</ele>
        <time>2022-06-06T14:49:40Z</time>
      </trkpt>
      <trkpt lat="46.56241" lon="5.74385">
        <ele>540</ele>
        <time>2022-06-06T14:49:44Z</time>
      </trkpt>
      <trkpt lat="46.55879" lon="5.74492">
        <ele>547</ele>
        <time>2022-06-06T14:50:50Z</time>
      </trkpt>
      <trkpt lat="46.55858" lon="5.74495">
        <ele>547</ele>
        <time>2022-06-06T14:50:54Z</time>
      </trkpt>
      <trkpt lat="46.55808" lon="5.74494">
        <ele>547</ele>
        <time>2022-06-06T14:51:03Z</time>
      </trkpt>
      <trkpt lat="46.55644" lon="5.74481">
        <ele>550</ele>
        <time>2022-06-06T14:51:32Z</time>
      </trkpt>
      <trkpt lat="46.55607" lon="5.74483">
        <ele>551</ele>
        <time>2022-06-06T14:51:38Z</time>
      </trkpt>
      <trkpt lat="46.55564" lon="5.74492">
        <ele>552</ele>
        <time>2022-06-06T14:51:46Z</time>
      </trkpt>
      <trkpt lat="46.55482" lon="5.74521">
        <ele>554</ele>
        <time>2022-06-06T14:52:01Z</time>
      </trkpt>
      <trkpt lat="46.55452" lon="5.74543">
        <ele>556</ele>
        <time>2022-06-06T14:52:07Z</time>
      </trkpt>
      <trkpt lat="46.55429" lon="5.74552">
        <ele>556</ele>
        <time>2022-06-06T14:52:11Z</time>
      </trkpt>
      <trkpt lat="46.55408" lon="5.74553">
        <ele>556</ele>
        <time>2022-06-06T14:52:15Z</time>
      </trkpt>
      <trkpt lat="46.5539" lon="5.74552">
        <ele>556</ele>
        <time>2022-06-06T14:52:18Z</time>
      </trkpt>
      <trkpt lat="46.55373" lon="5.74547">
        <ele>555</ele>
        <time>2022-06-06T14:52:21Z</time>
      </trkpt>
      <trkpt lat="46.5539" lon="5.74552">
        <ele>556</ele>
        <time>2022-06-06T14:52:24Z</time>
      </trkpt>
      <trkpt lat="46.55408" lon="5.74553">
        <ele>556</ele>
        <time>2022-06-06T14:52:28Z</time>
      </trkpt>
      <trkpt lat="46.55429" lon="5.74552">
        <ele>556</ele>
        <time>2022-06-06T14:52:31Z</time>
      </trkpt>
      <trkpt lat="46.55452" lon="5.74543">
        <ele>556</ele>
        <time>2022-06-06T14:52:36Z</time>
      </trkpt>
      <trkpt lat="46.55482" lon="5.74521">
        <ele>554</ele>
        <time>2022-06-06T14:52:42Z</time>
      </trkpt>
      <trkpt lat="46.55564" lon="5.74492">
        <ele>552</ele>
        <time>2022-06-06T14:52:57Z</time>
      </trkpt>
      <trkpt lat="46.55607" lon="5.74483">
        <ele>551</ele>
        <time>2022-06-06T14:53:04Z</time>
      </trkpt>
      <trkpt lat="46.55603" lon="5.74459">
        <ele>549</ele>
        <time>2022-06-06T14:53:07Z</time>
      </trkpt>
      <trkpt lat="46.55593" lon="5.74453">
        <ele>549</ele>
        <time>2022-06-06T14:53:09Z</time>
      </trkpt>
      <trkpt lat="46.55577" lon="5.74453">
        <ele>549</ele>
        <time>2022-06-06T14:53:12Z</time>
      </trkpt>
      <trkpt lat="46.55464" lon="5.74503">
        <ele>552</ele>
        <time>2022-06-06T14:53:33Z</time>
      </trkpt>
      <trkpt lat="46.5545" lon="5.74506">
        <ele>552</ele>
        <time>2022-06-06T14:53:36Z</time>
      </trkpt>
      <trkpt lat="46.55432" lon="5.74504">
        <ele>552</ele>
        <time>2022-06-06T14:53:39Z</time>
      </trkpt>
      <trkpt lat="46.55421" lon="5.74501">
        <ele>551</ele>
        <time>2022-06-06T14:53:41Z</time>
      </trkpt>
      <trkpt lat="46.55408" lon="5.74494">
        <ele>551</ele>
        <time>2022-06-06T14:53:43Z</time>
      </trkpt>
      <trkpt lat="46.55394" lon="5.74482">
        <ele>550</ele>
        <time>2022-06-06T14:53:46Z</time>
      </trkpt>
      <trkpt lat="46.55385" lon="5.74471">
        <ele>550</ele>
        <time>2022-06-06T14:53:48Z</time>
      </trkpt>
      <trkpt lat="46.55377" lon="5.74457">
        <ele>549</ele>
        <time>2022-06-06T14:53:51Z</time>
      </trkpt>
      <trkpt lat="46.55352" lon="5.74398">
        <ele>548</ele>
        <time>2022-06-06T14:53:59Z</time>
      </trkpt>
      <trkpt lat="46.55306" lon="5.74298">
        <ele>552</ele>
        <time>2022-06-06T14:54:14Z</time>
      </trkpt>
      <trkpt lat="46.55291" lon="5.74262">
        <ele>551</ele>
        <time>2022-06-06T14:54:19Z</time>
      </trkpt>
      <trkpt lat="46.55286" lon="5.74244">
        <ele>551</ele>
        <time>2022-06-06T14:54:21Z</time>
      </trkpt>
      <trkpt lat="46.55284" lon="5.74224">
        <ele>550</ele>
        <time>2022-06-06T14:54:24Z</time>
      </trkpt>
      <trkpt lat="46.55285" lon="5.74203">
        <ele>550</ele>
        <time>2022-06-06T14:54:26Z</time>
      </trkpt>
      <trkpt lat="46.55294" lon="5.74156">
        <ele>550</ele>
        <time>2022-06-06T14:54:32Z</time>
      </trkpt>
      <trkpt lat="46.55293" lon="5.74131">
        <ele>551</ele>
        <time>2022-06-06T14:54:35Z</time>
      </trkpt>
      <trkpt lat="46.55272" lon="5.74045">
        <ele>548</ele>
        <time>2022-06-06T14:54:46Z</time>
      </trkpt>
      <trkpt lat="46.55271" lon="5.74026">
        <ele>547</ele>
        <time>2022-06-06T14:54:49Z</time>
      </trkpt>
      <trkpt lat="46.55265" lon="5.73998">
        <ele>546</ele>
        <time>2022-06-06T14:54:52Z</time>
      </trkpt>
      <trkpt lat="46.55249" lon="5.7396">
        <ele>540</ele>
        <time>2022-06-06T14:54:58Z</time>
      </trkpt>
      <trkpt lat="46.55243" lon="5.73939">
        <ele>539</ele>
        <time>2022-06-06T14:55:01Z</time>
      </trkpt>
      <trkpt lat="46.55236" lon="5.73909">
        <ele>537</ele>
        <time>2022-06-06T14:55:05Z</time>
      </trkpt>
      <trkpt lat="46.55233" lon="5.73809">
        <ele>530</ele>
        <time>2022-06-06T14:55:17Z</time>
      </trkpt>
      <trkpt lat="46.55236" lon="5.73752">
        <ele>525</ele>
        <time>2022-06-06T14:55:24Z</time>
      </trkpt>
      <trkpt lat="46.55235" lon="5.73733">
        <ele>523</ele>
        <time>2022-06-06T14:55:26Z</time>
      </trkpt>
      <trkpt lat="46.55225" lon="5.73662">
        <ele>519</ele>
        <time>2022-06-06T14:55:35Z</time>
      </trkpt>
      <trkpt lat="46.55227" lon="5.73629">
        <ele>517</ele>
        <time>2022-06-06T14:55:39Z</time>
      </trkpt>
      <trkpt lat="46.55237" lon="5.73578">
        <ele>514</ele>
        <time>2022-06-06T14:55:45Z</time>
      </trkpt>
      <trkpt lat="46.55247" lon="5.73512">
        <ele>513</ele>
        <time>2022-06-06T14:55:54Z</time>
      </trkpt>
      <trkpt lat="46.55249" lon="5.73495">
        <ele>513</ele>
        <time>2022-06-06T14:55:56Z</time>
      </trkpt>
      <trkpt lat="46.55239" lon="5.73351">
        <ele>507</ele>
        <time>2022-06-06T14:56:14Z</time>
      </trkpt>
      <trkpt lat="46.55241" lon="5.73311">
        <ele>505</ele>
        <time>2022-06-06T14:56:18Z</time>
      </trkpt>
      <trkpt lat="46.55244" lon="5.733">
        <ele>505</ele>
        <time>2022-06-06T14:56:20Z</time>
      </trkpt>
      <trkpt lat="46.55264" lon="5.73257">
        <ele>504</ele>
        <time>2022-06-06T14:56:26Z</time>
      </trkpt>
      <trkpt lat="46.55274" lon="5.7323">
        <ele>503</ele>
        <time>2022-06-06T14:56:30Z</time>
      </trkpt>
      <trkpt lat="46.55289" lon="5.73164">
        <ele>502</ele>
        <time>2022-06-06T14:56:39Z</time>
      </trkpt>
      <trkpt lat="46.55294" lon="5.73153">
        <ele>503</ele>
        <time>2022-06-06T14:56:40Z</time>
      </trkpt>
      <trkpt lat="46.55305" lon="5.73142">
        <ele>503</ele>
        <time>2022-06-06T14:56:43Z</time>
      </trkpt>
      <trkpt lat="46.5532" lon="5.73138">
        <ele>504</ele>
        <time>2022-06-06T14:56:45Z</time>
      </trkpt>
      <trkpt lat="46.5533" lon="5.7314">
        <ele>504</ele>
        <time>2022-06-06T14:56:47Z</time>
      </trkpt>
      <trkpt lat="46.55377" lon="5.73156">
        <ele>503</ele>
        <time>2022-06-06T14:56:56Z</time>
      </trkpt>
      <trkpt lat="46.55386" lon="5.73157">
        <ele>503</ele>
        <time>2022-06-06T14:56:57Z</time>
      </trkpt>
      <trkpt lat="46.55396" lon="5.73155">
        <ele>502</ele>
        <time>2022-06-06T14:56:59Z</time>
      </trkpt>
      <trkpt lat="46.55407" lon="5.73147">
        <ele>502</ele>
        <time>2022-06-06T14:57:01Z</time>
      </trkpt>
      <trkpt lat="46.55429" lon="5.73109">
        <ele>501</ele>
        <time>2022-06-06T14:57:07Z</time>
      </trkpt>
      <trkpt lat="46.55442" lon="5.73101">
        <ele>502</ele>
        <time>2022-06-06T14:57:10Z</time>
      </trkpt>
      <trkpt lat="46.55467" lon="5.73093">
        <ele>502</ele>
        <time>2022-06-06T14:57:14Z</time>
      </trkpt>
      <trkpt lat="46.55491" lon="5.7308">
        <ele>502</ele>
        <time>2022-06-06T14:57:19Z</time>
      </trkpt>
      <trkpt lat="46.55511" lon="5.73059">
        <ele>501</ele>
        <time>2022-06-06T14:57:23Z</time>
      </trkpt>
      <trkpt lat="46.55541" lon="5.73015">
        <ele>500</ele>
        <time>2022-06-06T14:57:31Z</time>
      </trkpt>
      <trkpt lat="46.55577" lon="5.72954">
        <ele>498</ele>
        <time>2022-06-06T14:57:41Z</time>
      </trkpt>
      <trkpt lat="46.55655" lon="5.72844">
        <ele>496</ele>
        <time>2022-06-06T14:58:00Z</time>
      </trkpt>
      <trkpt lat="46.55686" lon="5.72802">
        <ele>496</ele>
        <time>2022-06-06T14:58:08Z</time>
      </trkpt>
      <trkpt lat="46.5571" lon="5.72778">
        <ele>496</ele>
        <time>2022-06-06T14:58:13Z</time>
      </trkpt>
      <trkpt lat="46.55955" lon="5.72617">
        <ele>490</ele>
        <time>2022-06-06T14:59:01Z</time>
      </trkpt>
      <trkpt lat="46.55962" lon="5.72635">
        <ele>490</ele>
        <time>2022-06-06T14:59:03Z</time>
      </trkpt>
      <trkpt lat="46.56003" lon="5.72691">
        <ele>491</ele>
        <time>2022-06-06T14:59:13Z</time>
      </trkpt>
      <trkpt lat="46.55962" lon="5.72635">
        <ele>490</ele>
        <time>2022-06-06T14:59:23Z</time>
      </trkpt>
      <trkpt lat="46.55955" lon="5.72617">
        <ele>490</ele>
        <time>2022-06-06T14:59:26Z</time>
      </trkpt>
      <trkpt lat="46.56466" lon="5.72276">
        <ele>482</ele>
        <time>2022-06-06T15:01:06Z</time>
      </trkpt>
      <trkpt lat="46.56543" lon="5.72221">
        <ele>482</ele>
        <time>2022-06-06T15:01:21Z</time>
      </trkpt>
      <trkpt lat="46.56577" lon="5.72185">
        <ele>482</ele>
        <time>2022-06-06T15:01:28Z</time>
      </trkpt>
      <trkpt lat="46.56608" lon="5.72147">
        <ele>483</ele>
        <time>2022-06-06T15:01:36Z</time>
      </trkpt>
      <trkpt lat="46.56629" lon="5.72117">
        <ele>483</ele>
        <time>2022-06-06T15:01:41Z</time>
      </trkpt>
      <trkpt lat="46.5665" lon="5.72084">
        <ele>483</ele>
        <time>2022-06-06T15:01:46Z</time>
      </trkpt>
      <trkpt lat="46.56688" lon="5.72012">
        <ele>482</ele>
        <time>2022-06-06T15:01:58Z</time>
      </trkpt>
      <trkpt lat="46.56893" lon="5.71563">
        <ele>482</ele>
        <time>2022-06-06T15:03:03Z</time>
      </trkpt>
      <trkpt lat="46.56947" lon="5.71439">
        <ele>482</ele>
        <time>2022-06-06T15:03:21Z</time>
      </trkpt>
      <trkpt lat="46.56958" lon="5.714">
        <ele>482</ele>
        <time>2022-06-06T15:03:27Z</time>
      </trkpt>
      <trkpt lat="46.56965" lon="5.71362">
        <ele>481</ele>
        <time>2022-06-06T15:03:31Z</time>
      </trkpt>
      <trkpt lat="46.56973" lon="5.71256">
        <ele>480</ele>
        <time>2022-06-06T15:03:44Z</time>
      </trkpt>
      <trkpt lat="46.56981" lon="5.71064">
        <ele>480</ele>
        <time>2022-06-06T15:04:08Z</time>
      </trkpt>
      <trkpt lat="46.56984" lon="5.7105">
        <ele>481</ele>
        <time>2022-06-06T15:04:10Z</time>
      </trkpt>
      <trkpt lat="46.56988" lon="5.71038">
        <ele>482</ele>
        <time>2022-06-06T15:04:11Z</time>
      </trkpt>
      <trkpt lat="46.56995" lon="5.71029">
        <ele>483</ele>
        <time>2022-06-06T15:04:13Z</time>
      </trkpt>
      <trkpt lat="46.57003" lon="5.71023">
        <ele>484</ele>
        <time>2022-06-06T15:04:15Z</time>
      </trkpt>
      <trkpt lat="46.57085" lon="5.70992">
        <ele>485</ele>
        <time>2022-06-06T15:04:30Z</time>
      </trkpt>
      <trkpt lat="46.57175" lon="5.70948">
        <ele>482</ele>
        <time>2022-06-06T15:04:47Z</time>
      </trkpt>
      <trkpt lat="46.5724" lon="5.70912">
        <ele>481</ele>
        <time>2022-06-06T15:04:59Z</time>
      </trkpt>
      <trkpt lat="46.57396" lon="5.70792">
        <ele>476</ele>
        <time>2022-06-06T15:05:30Z</time>
      </trkpt>
      <trkpt lat="46.57476" lon="5.70724">
        <ele>472</ele>
        <time>2022-06-06T15:05:47Z</time>
      </trkpt>
      <trkpt lat="46.57511" lon="5.70699">
        <ele>469</ele>
        <time>2022-06-06T15:05:54Z</time>
      </trkpt>
      <trkpt lat="46.57541" lon="5.70689">
        <ele>468</ele>
        <time>2022-06-06T15:05:59Z</time>
      </trkpt>
      <trkpt lat="46.57569" lon="5.70675">
        <ele>467</ele>
        <time>2022-06-06T15:06:05Z</time>
      </trkpt>
      <trkpt lat="46.57732" lon="5.70508">
        <ele>456</ele>
        <time>2022-06-06T15:06:40Z</time>
      </trkpt>
      <trkpt lat="46.57756" lon="5.7049">
        <ele>455</ele>
        <time>2022-06-06T15:06:45Z</time>
      </trkpt>
      <trkpt lat="46.57769" lon="5.70487">
        <ele>454</ele>
        <time>2022-06-06T15:06:47Z</time>
      </trkpt>
      <trkpt lat="46.57802" lon="5.70489">
        <ele>454</ele>
        <time>2022-06-06T15:06:53Z</time>
      </trkpt>
      <trkpt lat="46.57822" lon="5.70487">
        <ele>453</ele>
        <time>2022-06-06T15:06:57Z</time>
      </trkpt>
      <trkpt lat="46.57845" lon="5.70477">
        <ele>452</ele>
        <time>2022-06-06T15:07:01Z</time>
      </trkpt>
      <trkpt lat="46.57892" lon="5.70448">
        <ele>451</ele>
        <time>2022-06-06T15:07:10Z</time>
      </trkpt>
      <trkpt lat="46.57915" lon="5.70431">
        <ele>449</ele>
        <time>2022-06-06T15:07:15Z</time>
      </trkpt>
      <trkpt lat="46.57929" lon="5.70425">
        <ele>448</ele>
        <time>2022-06-06T15:07:17Z</time>
      </trkpt>
      <trkpt lat="46.58069" lon="5.70406">
        <ele>439</ele>
        <time>2022-06-06T15:07:42Z</time>
      </trkpt>
      <trkpt lat="46.58091" lon="5.70404">
        <ele>438</ele>
        <time>2022-06-06T15:07:46Z</time>
      </trkpt>
      <trkpt lat="46.58105" lon="5.70399">
        <ele>439</ele>
        <time>2022-06-06T15:07:49Z</time>
      </trkpt>
      <trkpt lat="46.58123" lon="5.7039">
        <ele>439</ele>
        <time>2022-06-06T15:07:52Z</time>
      </trkpt>
      <trkpt lat="46.58358" lon="5.70208">
        <ele>438</ele>
        <time>2022-06-06T15:08:39Z</time>
      </trkpt>
      <trkpt lat="46.58386" lon="5.7019">
        <ele>439</ele>
        <time>2022-06-06T15:08:45Z</time>
      </trkpt>
      <trkpt lat="46.58421" lon="5.70172">
        <ele>439</ele>
        <time>2022-06-06T15:08:51Z</time>
      </trkpt>
      <trkpt lat="46.58454" lon="5.70163">
        <ele>440</ele>
        <time>2022-06-06T15:08:57Z</time>
      </trkpt>
      <trkpt lat="46.58519" lon="5.7016">
        <ele>442</ele>
        <time>2022-06-06T15:09:09Z</time>
      </trkpt>
      <trkpt lat="46.58515" lon="5.70147">
        <ele>441</ele>
        <time>2022-06-06T15:09:11Z</time>
      </trkpt>
      <trkpt lat="46.58509" lon="5.70111">
        <ele>440</ele>
        <time>2022-06-06T15:09:15Z</time>
      </trkpt>
      <trkpt lat="46.585" lon="5.70016">
        <ele>437</ele>
        <time>2022-06-06T15:09:27Z</time>
      </trkpt>
      <trkpt lat="46.58496" lon="5.69952">
        <ele>438</ele>
        <time>2022-06-06T15:09:35Z</time>
      </trkpt>
      <trkpt lat="46.58497" lon="5.6994">
        <ele>438</ele>
        <time>2022-06-06T15:09:36Z</time>
      </trkpt>
      <trkpt lat="46.58674" lon="5.69346">
        <ele>441</ele>
        <time>2022-06-06T15:10:56Z</time>
      </trkpt>
      <trkpt lat="46.58719" lon="5.69198">
        <ele>441</ele>
        <time>2022-06-06T15:11:15Z</time>
      </trkpt>
      <trkpt lat="46.58751" lon="5.69211">
        <ele>441</ele>
        <time>2022-06-06T15:11:21Z</time>
      </trkpt>
      <trkpt lat="46.58811" lon="5.69228">
        <ele>438</ele>
        <time>2022-06-06T15:11:32Z</time>
      </trkpt>
      <trkpt lat="46.58831" lon="5.69233">
        <ele>437</ele>
        <time>2022-06-06T15:11:36Z</time>
      </trkpt>
      <trkpt lat="46.58846" lon="5.69233">
        <ele>437</ele>
        <time>2022-06-06T15:11:38Z</time>
      </trkpt>
      <trkpt lat="46.58862" lon="5.69225">
        <ele>436</ele>
        <time>2022-06-06T15:11:41Z</time>
      </trkpt>
      <trkpt lat="46.58886" lon="5.69202">
        <ele>436</ele>
        <time>2022-06-06T15:11:47Z</time>
      </trkpt>
      <trkpt lat="46.5892" lon="5.69161">
        <ele>437</ele>
        <time>2022-06-06T15:11:54Z</time>
      </trkpt>
      <trkpt lat="46.58952" lon="5.69129">
        <ele>436</ele>
        <time>2022-06-06T15:12:01Z</time>
      </trkpt>
      <trkpt lat="46.58967" lon="5.69119">
        <ele>435</ele>
        <time>2022-06-06T15:12:04Z</time>
      </trkpt>
      <trkpt lat="46.58995" lon="5.69106">
        <ele>434</ele>
        <time>2022-06-06T15:12:09Z</time>
      </trkpt>
      <trkpt lat="46.59043" lon="5.69098">
        <ele>435</ele>
        <time>2022-06-06T15:12:18Z</time>
      </trkpt>
      <trkpt lat="46.59096" lon="5.69081">
        <ele>436</ele>
        <time>2022-06-06T15:12:28Z</time>
      </trkpt>
      <trkpt lat="46.5919" lon="5.69035">
        <ele>435</ele>
        <time>2022-06-06T15:12:45Z</time>
      </trkpt>
      <trkpt lat="46.59232" lon="5.68997">
        <ele>436</ele>
        <time>2022-06-06T15:12:54Z</time>
      </trkpt>
      <trkpt lat="46.59253" lon="5.68985">
        <ele>438</ele>
        <time>2022-06-06T15:12:58Z</time>
      </trkpt>
      <trkpt lat="46.59278" lon="5.68981">
        <ele>438</ele>
        <time>2022-06-06T15:13:03Z</time>
      </trkpt>
      <trkpt lat="46.59316" lon="5.68984">
        <ele>439</ele>
        <time>2022-06-06T15:13:09Z</time>
      </trkpt>
      <trkpt lat="46.59416" lon="5.68987">
        <ele>439</ele>
        <time>2022-06-06T15:13:27Z</time>
      </trkpt>
      <trkpt lat="46.59429" lon="5.68984">
        <ele>439</ele>
        <time>2022-06-06T15:13:30Z</time>
      </trkpt>
      <trkpt lat="46.5946" lon="5.68955">
        <ele>441</ele>
        <time>2022-06-06T15:13:36Z</time>
      </trkpt>
      <trkpt lat="46.59469" lon="5.68947">
        <ele>442</ele>
        <time>2022-06-06T15:13:38Z</time>
      </trkpt>
      <trkpt lat="46.59478" lon="5.68943">
        <ele>442</ele>
        <time>2022-06-06T15:13:40Z</time>
      </trkpt>
      <trkpt lat="46.59582" lon="5.68928">
        <ele>446</ele>
        <time>2022-06-06T15:13:58Z</time>
      </trkpt>
      <trkpt lat="46.5966" lon="5.68898">
        <ele>445</ele>
        <time>2022-06-06T15:14:13Z</time>
      </trkpt>
      <trkpt lat="46.59666" lon="5.68896">
        <ele>445</ele>
        <time>2022-06-06T15:14:14Z</time>
      </trkpt>
      <trkpt lat="46.59747" lon="5.68863">
        <ele>444</ele>
        <time>2022-06-06T15:14:29Z</time>
      </trkpt>
      <trkpt lat="46.59799" lon="5.68846">
        <ele>446</ele>
        <time>2022-06-06T15:14:38Z</time>
      </trkpt>
      <trkpt lat="46.59828" lon="5.68839">
        <ele>448</ele>
        <time>2022-06-06T15:14:43Z</time>
      </trkpt>
      <trkpt lat="46.59871" lon="5.68836">
        <ele>452</ele>
        <time>2022-06-06T15:14:51Z</time>
      </trkpt>
      <trkpt lat="46.5991" lon="5.68831">
        <ele>455</ele>
        <time>2022-06-06T15:14:58Z</time>
      </trkpt>
      <trkpt lat="46.59933" lon="5.68824">
        <ele>457</ele>
        <time>2022-06-06T15:15:02Z</time>
      </trkpt>
      <trkpt lat="46.5994" lon="5.68819">
        <ele>458</ele>
        <time>2022-06-06T15:15:04Z</time>
      </trkpt>
      <trkpt lat="46.59962" lon="5.68828">
        <ele>460</ele>
        <time>2022-06-06T15:15:08Z</time>
      </trkpt>
      <trkpt lat="46.59985" lon="5.68846">
        <ele>463</ele>
        <time>2022-06-06T15:15:12Z</time>
      </trkpt>
      <trkpt lat="46.60006" lon="5.68861">
        <ele>464</ele>
        <time>2022-06-06T15:15:16Z</time>
      </trkpt>
      <trkpt lat="46.60019" lon="5.68866">
        <ele>465</ele>
        <time>2022-06-06T15:15:19Z</time>
      </trkpt>
      <trkpt lat="46.60063" lon="5.68874">
        <ele>469</ele>
        <time>2022-06-06T15:15:27Z</time>
      </trkpt>
      <trkpt lat="46.60126" lon="5.68901">
        <ele>470</ele>
        <time>2022-06-06T15:15:38Z</time>
      </trkpt>
      <trkpt lat="46.60314" lon="5.68961">
        <ele>471</ele>
        <time>2022-06-06T15:16:13Z</time>
      </trkpt>
      <trkpt lat="46.60324" lon="5.68961">
        <ele>471</ele>
        <time>2022-06-06T15:16:14Z</time>
      </trkpt>
      <trkpt lat="46.60335" lon="5.68955">
        <ele>470</ele>
        <time>2022-06-06T15:16:17Z</time>
      </trkpt>
      <trkpt lat="46.60346" lon="5.68945">
        <ele>470</ele>
        <time>2022-06-06T15:16:19Z</time>
      </trkpt>
      <trkpt lat="46.60378" lon="5.68904">
        <ele>469</ele>
        <time>2022-06-06T15:16:26Z</time>
      </trkpt>
      <trkpt lat="46.60388" lon="5.68896">
        <ele>469</ele>
        <time>2022-06-06T15:16:28Z</time>
      </trkpt>
      <trkpt lat="46.60402" lon="5.68891">
        <ele>469</ele>
        <time>2022-06-06T15:16:31Z</time>
      </trkpt>
      <trkpt lat="46.60418" lon="5.68894">
        <ele>469</ele>
        <time>2022-06-06T15:16:34Z</time>
      </trkpt>
      <trkpt lat="46.60433" lon="5.68902">
        <ele>469</ele>
        <time>2022-06-06T15:16:37Z</time>
      </trkpt>
      <trkpt lat="46.6047" lon="5.68933">
        <ele>468</ele>
        <time>2022-06-06T15:16:44Z</time>
      </trkpt>
      <trkpt lat="46.60536" lon="5.68995">
        <ele>468</ele>
        <time>2022-06-06T15:16:58Z</time>
      </trkpt>
      <trkpt lat="46.60565" lon="5.69028">
        <ele>470</ele>
        <time>2022-06-06T15:17:05Z</time>
      </trkpt>
      <trkpt lat="46.60628" lon="5.69126">
        <ele>472</ele>
        <time>2022-06-06T15:17:21Z</time>
      </trkpt>
      <trkpt lat="46.60641" lon="5.69141">
        <ele>472</ele>
        <time>2022-06-06T15:17:24Z</time>
      </trkpt>
      <trkpt lat="46.60732" lon="5.69231">
        <ele>470</ele>
        <time>2022-06-06T15:17:44Z</time>
      </trkpt>
      <trkpt lat="46.60778" lon="5.69278">
        <ele>469</ele>
        <time>2022-06-06T15:17:54Z</time>
      </trkpt>
      <trkpt lat="46.60896" lon="5.6941">
        <ele>463</ele>
        <time>2022-06-06T15:18:20Z</time>
      </trkpt>
      <trkpt lat="46.6104" lon="5.69557">
        <ele>459</ele>
        <time>2022-06-06T15:18:52Z</time>
      </trkpt>
      <trkpt lat="46.61053" lon="5.69568">
        <ele>459</ele>
        <time>2022-06-06T15:18:54Z</time>
      </trkpt>
      <trkpt lat="46.61115" lon="5.6961">
        <ele>462</ele>
        <time>2022-06-06T15:19:06Z</time>
      </trkpt>
      <trkpt lat="46.61126" lon="5.69622">
        <ele>463</ele>
        <time>2022-06-06T15:19:09Z</time>
      </trkpt>
      <trkpt lat="46.61147" lon="5.69653">
        <ele>465</ele>
        <time>2022-06-06T15:19:14Z</time>
      </trkpt>
      <trkpt lat="46.6118" lon="5.69721">
        <ele>467</ele>
        <time>2022-06-06T15:19:24Z</time>
      </trkpt>
      <trkpt lat="46.61254" lon="5.69923">
        <ele>467</ele>
        <time>2022-06-06T15:19:52Z</time>
      </trkpt>
      <trkpt lat="46.61269" lon="5.69953">
        <ele>466</ele>
        <time>2022-06-06T15:19:57Z</time>
      </trkpt>
      <trkpt lat="46.61279" lon="5.69966">
        <ele>466</ele>
        <time>2022-06-06T15:19:59Z</time>
      </trkpt>
      <trkpt lat="46.6134" lon="5.70018">
        <ele>465</ele>
        <time>2022-06-06T15:20:12Z</time>
      </trkpt>
      <trkpt lat="46.61383" lon="5.70052">
        <ele>467</ele>
        <time>2022-06-06T15:20:21Z</time>
      </trkpt>
      <trkpt lat="46.61417" lon="5.70072">
        <ele>467</ele>
        <time>2022-06-06T15:20:27Z</time>
      </trkpt>
      <trkpt lat="46.6157" lon="5.70144">
        <ele>466</ele>
        <time>2022-06-06T15:20:56Z</time>
      </trkpt>
      <trkpt lat="46.61595" lon="5.7015">
        <ele>467</ele>
        <time>2022-06-06T15:21:00Z</time>
      </trkpt>
      <trkpt lat="46.61608" lon="5.70151">
        <ele>467</ele>
        <time>2022-06-06T15:21:02Z</time>
      </trkpt>
      <trkpt lat="46.6165" lon="5.70147">
        <ele>468</ele>
        <time>2022-06-06T15:21:10Z</time>
      </trkpt>
      <trkpt lat="46.61707" lon="5.70134">
        <ele>469</ele>
        <time>2022-06-06T15:21:20Z</time>
      </trkpt>
      <trkpt lat="46.61723" lon="5.70133">
        <ele>470</ele>
        <time>2022-06-06T15:21:23Z</time>
      </trkpt>
      <trkpt lat="46.61733" lon="5.70134">
        <ele>470</ele>
        <time>2022-06-06T15:21:25Z</time>
      </trkpt>
      <trkpt lat="46.61856" lon="5.70169">
        <ele>470</ele>
        <time>2022-06-06T15:21:47Z</time>
      </trkpt>
      <trkpt lat="46.61892" lon="5.70187">
        <ele>470</ele>
        <time>2022-06-06T15:21:54Z</time>
      </trkpt>
      <trkpt lat="46.62109" lon="5.70271">
        <ele>474</ele>
        <time>2022-06-06T15:22:34Z</time>
      </trkpt>
      <trkpt lat="46.62158" lon="5.70299">
        <ele>473</ele>
        <time>2022-06-06T15:22:43Z</time>
      </trkpt>
      <trkpt lat="46.62177" lon="5.70318">
        <ele>473</ele>
        <time>2022-06-06T15:22:47Z</time>
      </trkpt>
      <trkpt lat="46.62232" lon="5.70331">
        <ele>474</ele>
        <time>2022-06-06T15:22:57Z</time>
      </trkpt>
      <trkpt lat="46.62271" lon="5.70346">
        <ele>474</ele>
        <time>2022-06-06T15:23:04Z</time>
      </trkpt>
      <trkpt lat="46.62279" lon="5.70352">
        <ele>473</ele>
        <time>2022-06-06T15:23:06Z</time>
      </trkpt>
      <trkpt lat="46.62283" lon="5.70361">
        <ele>473</ele>
        <time>2022-06-06T15:23:07Z</time>
      </trkpt>
      <trkpt lat="46.62285" lon="5.70371">
        <ele>474</ele>
        <time>2022-06-06T15:23:09Z</time>
      </trkpt>
      <trkpt lat="46.62285" lon="5.70402">
        <ele>474</ele>
        <time>2022-06-06T15:23:12Z</time>
      </trkpt>
      <trkpt lat="46.6229" lon="5.70413">
        <ele>474</ele>
        <time>2022-06-06T15:23:14Z</time>
      </trkpt>
      <trkpt lat="46.62297" lon="5.7042">
        <ele>474</ele>
        <time>2022-06-06T15:23:16Z</time>
      </trkpt>
      <trkpt lat="46.62338" lon="5.70433">
        <ele>474</ele>
        <time>2022-06-06T15:23:23Z</time>
      </trkpt>
      <trkpt lat="46.62392" lon="5.70438">
        <ele>472</ele>
        <time>2022-06-06T15:23:33Z</time>
      </trkpt>
      <trkpt lat="46.62403" lon="5.70444">
        <ele>472</ele>
        <time>2022-06-06T15:23:35Z</time>
      </trkpt>
      <trkpt lat="46.6241" lon="5.70451">
        <ele>471</ele>
        <time>2022-06-06T15:23:36Z</time>
      </trkpt>
      <trkpt lat="46.62437" lon="5.70487">
        <ele>470</ele>
        <time>2022-06-06T15:23:43Z</time>
      </trkpt>
      <trkpt lat="46.62462" lon="5.7051">
        <ele>471</ele>
        <time>2022-06-06T15:23:48Z</time>
      </trkpt>
      <trkpt lat="46.62486" lon="5.70541">
        <ele>471</ele>
        <time>2022-06-06T15:23:54Z</time>
      </trkpt>
      <trkpt lat="46.62521" lon="5.70573">
        <ele>471</ele>
        <time>2022-06-06T15:24:01Z</time>
      </trkpt>
      <trkpt lat="46.6258" lon="5.70612">
        <ele>470</ele>
        <time>2022-06-06T15:24:13Z</time>
      </trkpt>
      <trkpt lat="46.6264" lon="5.70661">
        <ele>470</ele>
        <time>2022-06-06T15:24:25Z</time>
      </trkpt>
      <trkpt lat="46.62702" lon="5.70693">
        <ele>470</ele>
        <time>2022-06-06T15:24:37Z</time>
      </trkpt>
      <trkpt lat="46.62745" lon="5.70712">
        <ele>468</ele>
        <time>2022-06-06T15:24:45Z</time>
      </trkpt>
      <trkpt lat="46.62826" lon="5.70738">
        <ele>466</ele>
        <time>2022-06-06T15:24:59Z</time>
      </trkpt>
      <trkpt lat="46.6297" lon="5.70804">
        <ele>471</ele>
        <time>2022-06-06T15:25:26Z</time>
      </trkpt>
      <trkpt lat="46.6307" lon="5.70848">
        <ele>477</ele>
        <time>2022-06-06T15:25:45Z</time>
      </trkpt>
      <trkpt lat="46.63087" lon="5.70862">
        <ele>478</ele>
        <time>2022-06-06T15:25:48Z</time>
      </trkpt>
      <trkpt lat="46.63107" lon="5.70885">
        <ele>480</ele>
        <time>2022-06-06T15:25:53Z</time>
      </trkpt>
      <trkpt lat="46.63123" lon="5.70911">
        <ele>481</ele>
        <time>2022-06-06T15:25:57Z</time>
      </trkpt>
      <trkpt lat="46.63141" lon="5.70952">
        <ele>483</ele>
        <time>2022-06-06T15:26:03Z</time>
      </trkpt>
      <trkpt lat="46.6318" lon="5.71055">
        <ele>487</ele>
        <time>2022-06-06T15:26:17Z</time>
      </trkpt>
      <trkpt lat="46.63192" lon="5.7108">
        <ele>488</ele>
        <time>2022-06-06T15:26:21Z</time>
      </trkpt>
      <trkpt lat="46.63205" lon="5.71101">
        <ele>489</ele>
        <time>2022-06-06T15:26:25Z</time>
      </trkpt>
      <trkpt lat="46.63216" lon="5.71112">
        <ele>490</ele>
        <time>2022-06-06T15:26:27Z</time>
      </trkpt>
      <trkpt lat="46.6323" lon="5.71121">
        <ele>490</ele>
        <time>2022-06-06T15:26:30Z</time>
      </trkpt>
      <trkpt lat="46.63245" lon="5.71126">
        <ele>491</ele>
        <time>2022-06-06T15:26:32Z</time>
      </trkpt>
      <trkpt lat="46.63303" lon="5.71133">
        <ele>496</ele>
        <time>2022-06-06T15:26:43Z</time>
      </trkpt>
      <trkpt lat="46.63414" lon="5.71133">
        <ele>502</ele>
        <time>2022-06-06T15:27:02Z</time>
      </trkpt>
      <trkpt lat="46.63542" lon="5.7116">
        <ele>505</ele>
        <time>2022-06-06T15:27:25Z</time>
      </trkpt>
      <trkpt lat="46.63585" lon="5.71173">
        <ele>508</ele>
        <time>2022-06-06T15:27:33Z</time>
      </trkpt>
      <trkpt lat="46.63596" lon="5.7118">
        <ele>507</ele>
        <time>2022-06-06T15:27:35Z</time>
      </trkpt>
      <trkpt lat="46.63611" lon="5.71195">
        <ele>507</ele>
        <time>2022-06-06T15:27:39Z</time>
      </trkpt>
      <trkpt lat="46.63622" lon="5.71214">
        <ele>506</ele>
        <time>2022-06-06T15:27:42Z</time>
      </trkpt>
      <trkpt lat="46.63666" lon="5.71328">
        <ele>504</ele>
        <time>2022-06-06T15:27:58Z</time>
      </trkpt>
      <trkpt lat="46.63684" lon="5.71354">
        <ele>504</ele>
        <time>2022-06-06T15:28:02Z</time>
      </trkpt>
      <trkpt lat="46.63694" lon="5.71362">
        <ele>505</ele>
        <time>2022-06-06T15:28:04Z</time>
      </trkpt>
      <trkpt lat="46.63741" lon="5.71391">
        <ele>507</ele>
        <time>2022-06-06T15:28:13Z</time>
      </trkpt>
      <trkpt lat="46.63787" lon="5.71422">
        <ele>512</ele>
        <time>2022-06-06T15:28:22Z</time>
      </trkpt>
      <trkpt lat="46.63822" lon="5.71452">
        <ele>516</ele>
        <time>2022-06-06T15:28:30Z</time>
      </trkpt>
      <trkpt lat="46.63991" lon="5.71614">
        <ele>523</ele>
        <time>2022-06-06T15:29:06Z</time>
      </trkpt>
      <trkpt lat="46.64041" lon="5.71682">
        <ele>523</ele>
        <time>2022-06-06T15:29:18Z</time>
      </trkpt>
      <trkpt lat="46.64059" lon="5.71701">
        <ele>524</ele>
        <time>2022-06-06T15:29:22Z</time>
      </trkpt>
      <trkpt lat="46.64082" lon="5.71718">
        <ele>524</ele>
        <time>2022-06-06T15:29:26Z</time>
      </trkpt>
      <trkpt lat="46.64107" lon="5.71732">
        <ele>523</ele>
        <time>2022-06-06T15:29:31Z</time>
      </trkpt>
      <trkpt lat="46.64133" lon="5.7174">
        <ele>522</ele>
        <time>2022-06-06T15:29:36Z</time>
      </trkpt>
      <trkpt lat="46.6417" lon="5.71741">
        <ele>521</ele>
        <time>2022-06-06T15:29:42Z</time>
      </trkpt>
      <trkpt lat="46.64189" lon="5.71736">
        <ele>522</ele>
        <time>2022-06-06T15:29:46Z</time>
      </trkpt>
      <trkpt lat="46.6421" lon="5.71725">
        <ele>524</ele>
        <time>2022-06-06T15:29:50Z</time>
      </trkpt>
      <trkpt lat="46.6423" lon="5.7171">
        <ele>525</ele>
        <time>2022-06-06T15:29:54Z</time>
      </trkpt>
      <trkpt lat="46.6426" lon="5.71675">
        <ele>525</ele>
        <time>2022-06-06T15:30:01Z</time>
      </trkpt>
      <trkpt lat="46.64291" lon="5.71628">
        <ele>525</ele>
        <time>2022-06-06T15:30:09Z</time>
      </trkpt>
      <trkpt lat="46.64304" lon="5.71603">
        <ele>524</ele>
        <time>2022-06-06T15:30:12Z</time>
      </trkpt>
      <trkpt lat="46.6431" lon="5.71587">
        <ele>524</ele>
        <time>2022-06-06T15:30:15Z</time>
      </trkpt>
      <trkpt lat="46.64314" lon="5.71561">
        <ele>524</ele>
        <time>2022-06-06T15:30:18Z</time>
      </trkpt>
      <trkpt lat="46.64315" lon="5.71542">
        <ele>524</ele>
        <time>2022-06-06T15:30:20Z</time>
      </trkpt>
      <trkpt lat="46.64315" lon="5.7149">
        <ele>526</ele>
        <time>2022-06-06T15:30:27Z</time>
      </trkpt>
      <trkpt lat="46.64318" lon="5.71471">
        <ele>527</ele>
        <time>2022-06-06T15:30:29Z</time>
      </trkpt>
      <trkpt lat="46.64323" lon="5.71453">
        <ele>527</ele>
        <time>2022-06-06T15:30:31Z</time>
      </trkpt>
      <trkpt lat="46.64353" lon="5.71379">
        <ele>524</ele>
        <time>2022-06-06T15:30:42Z</time>
      </trkpt>
      <trkpt lat="46.64362" lon="5.71351">
        <ele>524</ele>
        <time>2022-06-06T15:30:46Z</time>
      </trkpt>
      <trkpt lat="46.6438" lon="5.71271">
        <ele>520</ele>
        <time>2022-06-06T15:30:56Z</time>
      </trkpt>
      <trkpt lat="46.64385" lon="5.71237">
        <ele>518</ele>
        <time>2022-06-06T15:31:00Z</time>
      </trkpt>
      <trkpt lat="46.64398" lon="5.71171">
        <ele>515</ele>
        <time>2022-06-06T15:31:08Z</time>
      </trkpt>
      <trkpt lat="46.64406" lon="5.71107">
        <ele>514</ele>
        <time>2022-06-06T15:31:16Z</time>
      </trkpt>
      <trkpt lat="46.6441" lon="5.71091">
        <ele>513</ele>
        <time>2022-06-06T15:31:19Z</time>
      </trkpt>
      <trkpt lat="46.64418" lon="5.71074">
        <ele>513</ele>
        <time>2022-06-06T15:31:21Z</time>
      </trkpt>
      <trkpt lat="46.64427" lon="5.71062">
        <ele>511</ele>
        <time>2022-06-06T15:31:23Z</time>
      </trkpt>
      <trkpt lat="46.64438" lon="5.71054">
        <ele>510</ele>
        <time>2022-06-06T15:31:25Z</time>
      </trkpt>
      <trkpt lat="46.64449" lon="5.71049">
        <ele>509</ele>
        <time>2022-06-06T15:31:27Z</time>
      </trkpt>
      <trkpt lat="46.64475" lon="5.7105">
        <ele>506</ele>
        <time>2022-06-06T15:31:32Z</time>
      </trkpt>
      <trkpt lat="46.64494" lon="5.71057">
        <ele>504</ele>
        <time>2022-06-06T15:31:36Z</time>
      </trkpt>
      <trkpt lat="46.64762" lon="5.71173">
        <ele>498</ele>
        <time>2022-06-06T15:32:25Z</time>
      </trkpt>
      <trkpt lat="46.64788" lon="5.71195">
        <ele>497</ele>
        <time>2022-06-06T15:32:31Z</time>
      </trkpt>
      <trkpt lat="46.65045" lon="5.71542">
        <ele>489</ele>
        <time>2022-06-06T15:33:33Z</time>
      </trkpt>
      <trkpt lat="46.65063" lon="5.71572">
        <ele>489</ele>
        <time>2022-06-06T15:33:38Z</time>
      </trkpt>
      <trkpt lat="46.65085" lon="5.7162">
        <ele>487</ele>
        <time>2022-06-06T15:33:45Z</time>
      </trkpt>
      <trkpt lat="46.65093" lon="5.71642">
        <ele>486</ele>
        <time>2022-06-06T15:33:48Z</time>
      </trkpt>
      <trkpt lat="46.65101" lon="5.71677">
        <ele>483</ele>
        <time>2022-06-06T15:33:52Z</time>
      </trkpt>
      <trkpt lat="46.65104" lon="5.71734">
        <ele>477</ele>
        <time>2022-06-06T15:33:59Z</time>
      </trkpt>
      <trkpt lat="46.65107" lon="5.71757">
        <ele>475</ele>
        <time>2022-06-06T15:34:02Z</time>
      </trkpt>
      <trkpt lat="46.65111" lon="5.71786">
        <ele>473</ele>
        <time>2022-06-06T15:34:06Z</time>
      </trkpt>
      <trkpt lat="46.65119" lon="5.71823">
        <ele>471</ele>
        <time>2022-06-06T15:34:11Z</time>
      </trkpt>
      <trkpt lat="46.65133" lon="5.71863">
        <ele>470</ele>
        <time>2022-06-06T15:34:16Z</time>
      </trkpt>
      <trkpt lat="46.65143" lon="5.71881">
        <ele>470</ele>
        <time>2022-06-06T15:34:19Z</time>
      </trkpt>
      <trkpt lat="46.6517" lon="5.71924">
        <ele>470</ele>
        <time>2022-06-06T15:34:26Z</time>
      </trkpt>
      <trkpt lat="46.6518" lon="5.71954">
        <ele>470</ele>
        <time>2022-06-06T15:34:30Z</time>
      </trkpt>
      <trkpt lat="46.65188" lon="5.71991">
        <ele>469</ele>
        <time>2022-06-06T15:34:35Z</time>
      </trkpt>
      <trkpt lat="46.65186" lon="5.7199">
        <ele>469</ele>
        <time>2022-06-06T15:34:35Z</time>
      </trkpt>
      <trkpt lat="46.65169" lon="5.71963">
        <ele>469</ele>
        <time>2022-06-06T15:34:40Z</time>
      </trkpt>
      <trkpt lat="46.65152" lon="5.71953">
        <ele>468</ele>
        <time>2022-06-06T15:34:43Z</time>
      </trkpt>
      <trkpt lat="46.65126" lon="5.71948">
        <ele>466</ele>
        <time>2022-06-06T15:34:48Z</time>
      </trkpt>
      <trkpt lat="46.65152" lon="5.71953">
        <ele>468</ele>
        <time>2022-06-06T15:34:52Z</time>
      </trkpt>
      <trkpt lat="46.65169" lon="5.71963">
        <ele>469</ele>
        <time>2022-06-06T15:34:56Z</time>
      </trkpt>
      <trkpt lat="46.65186" lon="5.7199">
        <ele>469</ele>
        <time>2022-06-06T15:35:00Z</time>
      </trkpt>
      <trkpt lat="46.65188" lon="5.71991">
        <ele>469</ele>
        <time>2022-06-06T15:35:00Z</time>
      </trkpt>
      <trkpt lat="46.65198" lon="5.72019">
        <ele>470</ele>
        <time>2022-06-06T15:35:04Z</time>
      </trkpt>
      <trkpt lat="46.65206" lon="5.72037">
        <ele>471</ele>
        <time>2022-06-06T15:35:07Z</time>
      </trkpt>
      <trkpt lat="46.65216" lon="5.72056">
        <ele>472</ele>
        <time>2022-06-06T15:35:10Z</time>
      </trkpt>
      <trkpt lat="46.65234" lon="5.72084">
        <ele>473</ele>
        <time>2022-06-06T15:35:15Z</time>
      </trkpt>
      <trkpt lat="46.65257" lon="5.72114">
        <ele>472</ele>
        <time>2022-06-06T15:35:20Z</time>
      </trkpt>
      <trkpt lat="46.65318" lon="5.72177">
        <ele>471</ele>
        <time>2022-06-06T15:35:33Z</time>
      </trkpt>
      <trkpt lat="46.65375" lon="5.7224">
        <ele>469</ele>
        <time>2022-06-06T15:35:46Z</time>
      </trkpt>
      <trkpt lat="46.65467" lon="5.72324">
        <ele>471</ele>
        <time>2022-06-06T15:36:05Z</time>
      </trkpt>
      <trkpt lat="46.65526" lon="5.72386">
        <ele>474</ele>
        <time>2022-06-06T15:36:18Z</time>
      </trkpt>
      <trkpt lat="46.65587" lon="5.72433">
        <ele>477</ele>
        <time>2022-06-06T15:36:31Z</time>
      </trkpt>
      <trkpt lat="46.65603" lon="5.72448">
        <ele>478</ele>
        <time>2022-06-06T15:36:34Z</time>
      </trkpt>
      <trkpt lat="46.65621" lon="5.72469">
        <ele>479</ele>
        <time>2022-06-06T15:36:38Z</time>
      </trkpt>
      <trkpt lat="46.65653" lon="5.72513">
        <ele>481</ele>
        <time>2022-06-06T15:36:46Z</time>
      </trkpt>
      <trkpt lat="46.65644" lon="5.72532">
        <ele>481</ele>
        <time>2022-06-06T15:36:49Z</time>
      </trkpt>
      <trkpt lat="46.6564" lon="5.7255">
        <ele>481</ele>
        <time>2022-06-06T15:36:51Z</time>
      </trkpt>
      <trkpt lat="46.65639" lon="5.72567">
        <ele>481</ele>
        <time>2022-06-06T15:36:53Z</time>
      </trkpt>
      <trkpt lat="46.65651" lon="5.72642">
        <ele>481</ele>
        <time>2022-06-06T15:37:03Z</time>
      </trkpt>
      <trkpt lat="46.65662" lon="5.72686">
        <ele>481</ele>
        <time>2022-06-06T15:37:08Z</time>
      </trkpt>
      <trkpt lat="46.6567" lon="5.72761">
        <ele>482</ele>
        <time>2022-06-06T15:37:18Z</time>
      </trkpt>
      <trkpt lat="46.65675" lon="5.72836">
        <ele>482</ele>
        <time>2022-06-06T15:37:27Z</time>
      </trkpt>
      <trkpt lat="46.65675" lon="5.72851">
        <ele>482</ele>
        <time>2022-06-06T15:37:29Z</time>
      </trkpt>
      <trkpt lat="46.65662" lon="5.72898">
        <ele>480</ele>
        <time>2022-06-06T15:37:35Z</time>
      </trkpt>
      <trkpt lat="46.6566" lon="5.72918">
        <ele>479</ele>
        <time>2022-06-06T15:37:37Z</time>
      </trkpt>
      <trkpt lat="46.6566" lon="5.72955">
        <ele>478</ele>
        <time>2022-06-06T15:37:42Z</time>
      </trkpt>
      <trkpt lat="46.65671" lon="5.73012">
        <ele>478</ele>
        <time>2022-06-06T15:37:49Z</time>
      </trkpt>
      <trkpt lat="46.6568" lon="5.73043">
        <ele>478</ele>
        <time>2022-06-06T15:37:53Z</time>
      </trkpt>
      <trkpt lat="46.6571" lon="5.73112">
        <ele>478</ele>
        <time>2022-06-06T15:38:03Z</time>
      </trkpt>
      <trkpt lat="46.65713" lon="5.73128">
        <ele>478</ele>
        <time>2022-06-06T15:38:05Z</time>
      </trkpt>
      <trkpt lat="46.65712" lon="5.73152">
        <ele>476</ele>
        <time>2022-06-06T15:38:08Z</time>
      </trkpt>
      <trkpt lat="46.65696" lon="5.73219">
        <ele>474</ele>
        <time>2022-06-06T15:38:17Z</time>
      </trkpt>
      <trkpt lat="46.65688" lon="5.73248">
        <ele>472</ele>
        <time>2022-06-06T15:38:21Z</time>
      </trkpt>
      <trkpt lat="46.65678" lon="5.73275">
        <ele>471</ele>
        <time>2022-06-06T15:38:24Z</time>
      </trkpt>
      <trkpt lat="46.65667" lon="5.73296">
        <ele>470</ele>
        <time>2022-06-06T15:38:27Z</time>
      </trkpt>
      <trkpt lat="46.65653" lon="5.73314">
        <ele>469</ele>
        <time>2022-06-06T15:38:31Z</time>
      </trkpt>
      <trkpt lat="46.65623" lon="5.73348">
        <ele>467</ele>
        <time>2022-06-06T15:38:38Z</time>
      </trkpt>
      <trkpt lat="46.65622" lon="5.73351">
        <ele>467</ele>
        <time>2022-06-06T15:38:38Z</time>
      </trkpt>
      <trkpt lat="46.65585" lon="5.73366">
        <ele>466</ele>
        <time>2022-06-06T15:38:45Z</time>
      </trkpt>
      <trkpt lat="46.65556" lon="5.73382">
        <ele>465</ele>
        <time>2022-06-06T15:38:50Z</time>
      </trkpt>
      <trkpt lat="46.65541" lon="5.73396">
        <ele>464</ele>
        <time>2022-06-06T15:38:53Z</time>
      </trkpt>
      <trkpt lat="46.65532" lon="5.73407">
        <ele>464</ele>
        <time>2022-06-06T15:38:56Z</time>
      </trkpt>
      <trkpt lat="46.65521" lon="5.73426">
        <ele>464</ele>
        <time>2022-06-06T15:38:59Z</time>
      </trkpt>
      <trkpt lat="46.6551" lon="5.73464">
        <ele>463</ele>
        <time>2022-06-06T15:39:04Z</time>
      </trkpt>
      <trkpt lat="46.65499" lon="5.73539">
        <ele>462</ele>
        <time>2022-06-06T15:39:13Z</time>
      </trkpt>
      <trkpt lat="46.65495" lon="5.73592">
        <ele>463</ele>
        <time>2022-06-06T15:39:20Z</time>
      </trkpt>
      <trkpt lat="46.65483" lon="5.73834">
        <ele>462</ele>
        <time>2022-06-06T15:39:49Z</time>
      </trkpt>
      <trkpt lat="46.65479" lon="5.7394">
        <ele>461</ele>
        <time>2022-06-06T15:40:02Z</time>
      </trkpt>
      <trkpt lat="46.65474" lon="5.73989">
        <ele>460</ele>
        <time>2022-06-06T15:40:08Z</time>
      </trkpt>
      <trkpt lat="46.65469" lon="5.74008">
        <ele>459</ele>
        <time>2022-06-06T15:40:11Z</time>
      </trkpt>
      <trkpt lat="46.65464" lon="5.74023">
        <ele>458</ele>
        <time>2022-06-06T15:40:13Z</time>
      </trkpt>
      <trkpt lat="46.6545" lon="5.74049">
        <ele>457</ele>
        <time>2022-06-06T15:40:17Z</time>
      </trkpt>
      <trkpt lat="46.65415" lon="5.74106">
        <ele>457</ele>
        <time>2022-06-06T15:40:26Z</time>
      </trkpt>
      <trkpt lat="46.65405" lon="5.74125">
        <ele>459</ele>
        <time>2022-06-06T15:40:29Z</time>
      </trkpt>
      <trkpt lat="46.65399" lon="5.74141">
        <ele>460</ele>
        <time>2022-06-06T15:40:31Z</time>
      </trkpt>
      <trkpt lat="46.65398" lon="5.74154">
        <ele>461</ele>
        <time>2022-06-06T15:40:33Z</time>
      </trkpt>
      <trkpt lat="46.65399" lon="5.74166">
        <ele>461</ele>
        <time>2022-06-06T15:40:34Z</time>
      </trkpt>
      <trkpt lat="46.65401" lon="5.74175">
        <ele>462</ele>
        <time>2022-06-06T15:40:35Z</time>
      </trkpt>
      <trkpt lat="46.65405" lon="5.74191">
        <ele>462</ele>
        <time>2022-06-06T15:40:38Z</time>
      </trkpt>
      <trkpt lat="46.65474" lon="5.7434">
        <ele>467</ele>
        <time>2022-06-06T15:40:59Z</time>
      </trkpt>
      <trkpt lat="46.65458" lon="5.74356">
        <ele>470</ele>
        <time>2022-06-06T15:41:03Z</time>
      </trkpt>
      <trkpt lat="46.6545" lon="5.74362">
        <ele>471</ele>
        <time>2022-06-06T15:41:05Z</time>
      </trkpt>
      <trkpt lat="46.65437" lon="5.74364">
        <ele>472</ele>
        <time>2022-06-06T15:41:07Z</time>
      </trkpt>
      <trkpt lat="46.65426" lon="5.74355">
        <ele>472</ele>
        <time>2022-06-06T15:41:09Z</time>
      </trkpt>
      <trkpt lat="46.65397" lon="5.74307">
        <ele>470</ele>
        <time>2022-06-06T15:41:17Z</time>
      </trkpt>
      <trkpt lat="46.65375" lon="5.74285">
        <ele>470</ele>
        <time>2022-06-06T15:41:22Z</time>
      </trkpt>
      <trkpt lat="46.65273" lon="5.74211">
        <ele>475</ele>
        <time>2022-06-06T15:41:42Z</time>
      </trkpt>
      <trkpt lat="46.65256" lon="5.74201">
        <ele>476</ele>
        <time>2022-06-06T15:41:45Z</time>
      </trkpt>
      <trkpt lat="46.65243" lon="5.74197">
        <ele>476</ele>
        <time>2022-06-06T15:41:48Z</time>
      </trkpt>
      <trkpt lat="46.65234" lon="5.74195">
        <ele>477</ele>
        <time>2022-06-06T15:41:49Z</time>
      </trkpt>
      <trkpt lat="46.65201" lon="5.742">
        <ele>478</ele>
        <time>2022-06-06T15:41:55Z</time>
      </trkpt>
      <trkpt lat="46.65173" lon="5.74223">
        <ele>479</ele>
        <time>2022-06-06T15:42:01Z</time>
      </trkpt>
      <trkpt lat="46.65154" lon="5.74246">
        <ele>480</ele>
        <time>2022-06-06T15:42:05Z</time>
      </trkpt>
      <trkpt lat="46.65133" lon="5.7428">
        <ele>479</ele>
        <time>2022-06-06T15:42:11Z</time>
      </trkpt>
      <trkpt lat="46.65125" lon="5.74301">
        <ele>479</ele>
        <time>2022-06-06T15:42:14Z</time>
      </trkpt>
      <trkpt lat="46.65085" lon="5.74435">
        <ele>476</ele>
        <time>2022-06-06T15:42:32Z</time>
      </trkpt>
      <trkpt lat="46.65071" lon="5.74483">
        <ele>474</ele>
        <time>2022-06-06T15:42:38Z</time>
      </trkpt>
      <trkpt lat="46.65068" lon="5.74514">
        <ele>473</ele>
        <time>2022-06-06T15:42:42Z</time>
      </trkpt>
      <trkpt lat="46.65069" lon="5.74529">
        <ele>472</ele>
        <time>2022-06-06T15:42:44Z</time>
      </trkpt>
      <trkpt lat="46.65084" lon="5.74594">
        <ele>472</ele>
        <time>2022-06-06T15:42:52Z</time>
      </trkpt>
      <trkpt lat="46.65086" lon="5.74632">
        <ele>471</ele>
        <time>2022-06-06T15:42:57Z</time>
      </trkpt>
      <trkpt lat="46.65063" lon="5.74825">
        <ele>467</ele>
        <time>2022-06-06T15:43:21Z</time>
      </trkpt>
      <trkpt lat="46.65059" lon="5.7485">
        <ele>467</ele>
        <time>2022-06-06T15:43:24Z</time>
      </trkpt>
      <trkpt lat="46.6505" lon="5.74879">
        <ele>467</ele>
        <time>2022-06-06T15:43:28Z</time>
      </trkpt>
      <trkpt lat="46.65043" lon="5.74892">
        <ele>467</ele>
        <time>2022-06-06T15:43:30Z</time>
      </trkpt>
      <trkpt lat="46.65034" lon="5.74904">
        <ele>467</ele>
        <time>2022-06-06T15:43:32Z</time>
      </trkpt>
      <trkpt lat="46.65006" lon="5.74935">
        <ele>465</ele>
        <time>2022-06-06T15:43:38Z</time>
      </trkpt>
      <trkpt lat="46.64977" lon="5.74974">
        <ele>465</ele>
        <time>2022-06-06T15:43:45Z</time>
      </trkpt>
      <trkpt lat="46.64967" lon="5.74995">
        <ele>466</ele>
        <time>2022-06-06T15:43:48Z</time>
      </trkpt>
      <trkpt lat="46.64961" lon="5.75013">
        <ele>466</ele>
        <time>2022-06-06T15:43:51Z</time>
      </trkpt>
      <trkpt lat="46.64957" lon="5.75037">
        <ele>467</ele>
        <time>2022-06-06T15:43:54Z</time>
      </trkpt>
      <trkpt lat="46.64955" lon="5.75053">
        <ele>468</ele>
        <time>2022-06-06T15:43:56Z</time>
      </trkpt>
      <trkpt lat="46.64952" lon="5.75064">
        <ele>469</ele>
        <time>2022-06-06T15:43:57Z</time>
      </trkpt>
      <trkpt lat="46.64948" lon="5.7507">
        <ele>469</ele>
        <time>2022-06-06T15:43:58Z</time>
      </trkpt>
      <trkpt lat="46.64943" lon="5.75074">
        <ele>470</ele>
        <time>2022-06-06T15:43:59Z</time>
      </trkpt>
      <trkpt lat="46.64937" lon="5.75074">
        <ele>471</ele>
        <time>2022-06-06T15:44:00Z</time>
      </trkpt>
      <trkpt lat="46.64931" lon="5.7507">
        <ele>471</ele>
        <time>2022-06-06T15:44:01Z</time>
      </trkpt>
      <trkpt lat="46.64916" lon="5.75055">
        <ele>471</ele>
        <time>2022-06-06T15:44:05Z</time>
      </trkpt>
      <trkpt lat="46.64894" lon="5.75016">
        <ele>471</ele>
        <time>2022-06-06T15:44:11Z</time>
      </trkpt>
      <trkpt lat="46.64887" lon="5.75007">
        <ele>472</ele>
        <time>2022-06-06T15:44:12Z</time>
      </trkpt>
      <trkpt lat="46.64879" lon="5.75">
        <ele>472</ele>
        <time>2022-06-06T15:44:14Z</time>
      </trkpt>
      <trkpt lat="46.64837" lon="5.74975">
        <ele>475</ele>
        <time>2022-06-06T15:44:22Z</time>
      </trkpt>
      <trkpt lat="46.64829" lon="5.74967">
        <ele>475</ele>
        <time>2022-06-06T15:44:24Z</time>
      </trkpt>
      <trkpt lat="46.64823" lon="5.74958">
        <ele>475</ele>
        <time>2022-06-06T15:44:25Z</time>
      </trkpt>
      <trkpt lat="46.6481" lon="5.74931">
        <ele>475</ele>
        <time>2022-06-06T15:44:29Z</time>
      </trkpt>
      <trkpt lat="46.64803" lon="5.74921">
        <ele>476</ele>
        <time>2022-06-06T15:44:31Z</time>
      </trkpt>
      <trkpt lat="46.64797" lon="5.74916">
        <ele>476</ele>
        <time>2022-06-06T15:44:32Z</time>
      </trkpt>
      <trkpt lat="46.64791" lon="5.74914">
        <ele>477</ele>
        <time>2022-06-06T15:44:34Z</time>
      </trkpt>
      <trkpt lat="46.64783" lon="5.74915">
        <ele>478</ele>
        <time>2022-06-06T15:44:35Z</time>
      </trkpt>
      <trkpt lat="46.64777" lon="5.74919">
        <ele>479</ele>
        <time>2022-06-06T15:44:36Z</time>
      </trkpt>
      <trkpt lat="46.64771" lon="5.74926">
        <ele>480</ele>
        <time>2022-06-06T15:44:37Z</time>
      </trkpt>
      <trkpt lat="46.64756" lon="5.74963">
        <ele>483</ele>
        <time>2022-06-06T15:44:43Z</time>
      </trkpt>
      <trkpt lat="46.64749" lon="5.74976">
        <ele>484</ele>
        <time>2022-06-06T15:44:45Z</time>
      </trkpt>
      <trkpt lat="46.64737" lon="5.74988">
        <ele>485</ele>
        <time>2022-06-06T15:44:47Z</time>
      </trkpt>
      <trkpt lat="46.64702" lon="5.75012">
        <ele>485</ele>
        <time>2022-06-06T15:44:54Z</time>
      </trkpt>
      <trkpt lat="46.64691" lon="5.75016">
        <ele>485</ele>
        <time>2022-06-06T15:44:56Z</time>
      </trkpt>
      <trkpt lat="46.64669" lon="5.75014">
        <ele>485</ele>
        <time>2022-06-06T15:45:00Z</time>
      </trkpt>
      <trkpt lat="46.64618" lon="5.75017">
        <ele>484</ele>
        <time>2022-06-06T15:45:09Z</time>
      </trkpt>
      <trkpt lat="46.64529" lon="5.75027">
        <ele>484</ele>
        <time>2022-06-06T15:45:25Z</time>
      </trkpt>
      <trkpt lat="46.6448" lon="5.75026">
        <ele>483</ele>
        <time>2022-06-06T15:45:34Z</time>
      </trkpt>
      <trkpt lat="46.64458" lon="5.75032">
        <ele>483</ele>
        <time>2022-06-06T15:45:38Z</time>
      </trkpt>
      <trkpt lat="46.64453" lon="5.7504">
        <ele>483</ele>
        <time>2022-06-06T15:45:39Z</time>
      </trkpt>
      <trkpt lat="46.64442" lon="5.75067">
        <ele>484</ele>
        <time>2022-06-06T15:45:43Z</time>
      </trkpt>
      <trkpt lat="46.64423" lon="5.75105">
        <ele>485</ele>
        <time>2022-06-06T15:45:49Z</time>
      </trkpt>
      <trkpt lat="46.64401" lon="5.75144">
        <ele>485</ele>
        <time>2022-06-06T15:45:55Z</time>
      </trkpt>
      <trkpt lat="46.64291" lon="5.75313">
        <ele>490</ele>
        <time>2022-06-06T15:46:23Z</time>
      </trkpt>
      <trkpt lat="46.64285" lon="5.7533">
        <ele>492</ele>
        <time>2022-06-06T15:46:26Z</time>
      </trkpt>
      <trkpt lat="46.64274" lon="5.75345">
        <ele>496</ele>
        <time>2022-06-06T15:46:28Z</time>
      </trkpt>
      <trkpt lat="46.64267" lon="5.75352">
        <ele>499</ele>
        <time>2022-06-06T15:46:30Z</time>
      </trkpt>
      <trkpt lat="46.64263" lon="5.75354">
        <ele>500</ele>
        <time>2022-06-06T15:46:31Z</time>
      </trkpt>
      <trkpt lat="46.64251" lon="5.75352">
        <ele>500</ele>
        <time>2022-06-06T15:46:33Z</time>
      </trkpt>
      <trkpt lat="46.64191" lon="5.75333">
        <ele>506</ele>
        <time>2022-06-06T15:46:44Z</time>
      </trkpt>
      <trkpt lat="46.64139" lon="5.75312">
        <ele>510</ele>
        <time>2022-06-06T15:46:53Z</time>
      </trkpt>
      <trkpt lat="46.64047" lon="5.75249">
        <ele>512</ele>
        <time>2022-06-06T15:47:11Z</time>
      </trkpt>
      <trkpt lat="46.64005" lon="5.75228">
        <ele>514</ele>
        <time>2022-06-06T15:47:19Z</time>
      </trkpt>
      <trkpt lat="46.63975" lon="5.75223">
        <ele>518</ele>
        <time>2022-06-06T15:47:25Z</time>
      </trkpt>
      <trkpt lat="46.63966" lon="5.75224">
        <ele>520</ele>
        <time>2022-06-06T15:47:26Z</time>
      </trkpt>
      <trkpt lat="46.63865" lon="5.75182">
        <ele>515</ele>
        <time>2022-06-06T15:47:45Z</time>
      </trkpt>
      <trkpt lat="46.63847" lon="5.75176">
        <ele>514</ele>
        <time>2022-06-06T15:47:48Z</time>
      </trkpt>
      <trkpt lat="46.6382" lon="5.75173">
        <ele>513</ele>
        <time>2022-06-06T15:47:53Z</time>
      </trkpt>
      <trkpt lat="46.63768" lon="5.75176">
        <ele>510</ele>
        <time>2022-06-06T15:48:02Z</time>
      </trkpt>
      <trkpt lat="46.63743" lon="5.75183">
        <ele>511</ele>
        <time>2022-06-06T15:48:07Z</time>
      </trkpt>
      <trkpt lat="46.6371" lon="5.75201">
        <ele>512</ele>
        <time>2022-06-06T15:48:13Z</time>
      </trkpt>
      <trkpt lat="46.63613" lon="5.75288">
        <ele>524</ele>
        <time>2022-06-06T15:48:33Z</time>
      </trkpt>
      <trkpt lat="46.636" lon="5.75298">
        <ele>526</ele>
        <time>2022-06-06T15:48:36Z</time>
      </trkpt>
      <trkpt lat="46.63584" lon="5.75303">
        <ele>526</ele>
        <time>2022-06-06T15:48:39Z</time>
      </trkpt>
      <trkpt lat="46.63575" lon="5.75302">
        <ele>528</ele>
        <time>2022-06-06T15:48:41Z</time>
      </trkpt>
      <trkpt lat="46.63565" lon="5.75299">
        <ele>530</ele>
        <time>2022-06-06T15:48:42Z</time>
      </trkpt>
      <trkpt lat="46.6355" lon="5.75286">
        <ele>529</ele>
        <time>2022-06-06T15:48:45Z</time>
      </trkpt>
      <trkpt lat="46.63514" lon="5.75246">
        <ele>520</ele>
        <time>2022-06-06T15:48:53Z</time>
      </trkpt>
      <trkpt lat="46.63465" lon="5.75181">
        <ele>528</ele>
        <time>2022-06-06T15:49:05Z</time>
      </trkpt>
      <trkpt lat="46.63462" lon="5.75172">
        <ele>528</ele>
        <time>2022-06-06T15:49:07Z</time>
      </trkpt>
      <trkpt lat="46.63458" lon="5.75152">
        <ele>526</ele>
        <time>2022-06-06T15:49:09Z</time>
      </trkpt>
      <trkpt lat="46.63431" lon="5.74931">
        <ele>511</ele>
        <time>2022-06-06T15:49:36Z</time>
      </trkpt>
      <trkpt lat="46.63425" lon="5.74903">
        <ele>508</ele>
        <time>2022-06-06T15:49:40Z</time>
      </trkpt>
      <trkpt lat="46.63413" lon="5.74875">
        <ele>505</ele>
        <time>2022-06-06T15:49:44Z</time>
      </trkpt>
      <trkpt lat="46.63401" lon="5.7486">
        <ele>505</ele>
        <time>2022-06-06T15:49:47Z</time>
      </trkpt>
      <trkpt lat="46.63384" lon="5.74847">
        <ele>505</ele>
        <time>2022-06-06T15:49:50Z</time>
      </trkpt>
      <trkpt lat="46.63361" lon="5.74841">
        <ele>507</ele>
        <time>2022-06-06T15:49:54Z</time>
      </trkpt>
      <trkpt lat="46.63302" lon="5.74843">
        <ele>514</ele>
        <time>2022-06-06T15:50:05Z</time>
      </trkpt>
      <trkpt lat="46.63238" lon="5.74856">
        <ele>520</ele>
        <time>2022-06-06T15:50:16Z</time>
      </trkpt>
      <trkpt lat="46.63103" lon="5.74893">
        <ele>519</ele>
        <time>2022-06-06T15:50:41Z</time>
      </trkpt>
      <trkpt lat="46.63056" lon="5.74916">
        <ele>519</ele>
        <time>2022-06-06T15:50:50Z</time>
      </trkpt>
      <trkpt lat="46.63003" lon="5.74948">
        <ele>521</ele>
        <time>2022-06-06T15:51:00Z</time>
      </trkpt>
      <trkpt lat="46.62983" lon="5.74955">
        <ele>521</ele>
        <time>2022-06-06T15:51:04Z</time>
      </trkpt>
      <trkpt lat="46.62914" lon="5.74969">
        <ele>519</ele>
        <time>2022-06-06T15:51:16Z</time>
      </trkpt>
      <trkpt lat="46.62829" lon="5.74998">
        <ele>522</ele>
        <time>2022-06-06T15:51:32Z</time>
      </trkpt>
      <trkpt lat="46.62791" lon="5.75022">
        <ele>525</ele>
        <time>2022-06-06T15:51:39Z</time>
      </trkpt>
      <trkpt lat="46.62771" lon="5.75038">
        <ele>525</ele>
        <time>2022-06-06T15:51:43Z</time>
      </trkpt>
      <trkpt lat="46.62721" lon="5.75087">
        <ele>524</ele>
        <time>2022-06-06T15:51:54Z</time>
      </trkpt>
      <trkpt lat="46.62676" lon="5.75126">
        <ele>525</ele>
        <time>2022-06-06T15:52:03Z</time>
      </trkpt>
      <trkpt lat="46.62637" lon="5.75167">
        <ele>525</ele>
        <time>2022-06-06T15:52:12Z</time>
      </trkpt>
      <trkpt lat="46.62621" lon="5.7519">
        <ele>528</ele>
        <time>2022-06-06T15:52:16Z</time>
      </trkpt>
      <trkpt lat="46.62596" lon="5.75223">
        <ele>528</ele>
        <time>2022-06-06T15:52:22Z</time>
      </trkpt>
      <trkpt lat="46.62548" lon="5.75275">
        <ele>531</ele>
        <time>2022-06-06T15:52:32Z</time>
      </trkpt>
      <trkpt lat="46.62521" lon="5.75292">
        <ele>530</ele>
        <time>2022-06-06T15:52:37Z</time>
      </trkpt>
      <trkpt lat="46.625" lon="5.75294">
        <ele>527</ele>
        <time>2022-06-06T15:52:41Z</time>
      </trkpt>
      <trkpt lat="46.62491" lon="5.75291">
        <ele>527</ele>
        <time>2022-06-06T15:52:43Z</time>
      </trkpt>
      <trkpt lat="46.62443" lon="5.75259">
        <ele>523</ele>
        <time>2022-06-06T15:52:52Z</time>
      </trkpt>
      <trkpt lat="46.62396" lon="5.75245">
        <ele>522</ele>
        <time>2022-06-06T15:53:01Z</time>
      </trkpt>
      <trkpt lat="46.62376" lon="5.75228">
        <ele>521</ele>
        <time>2022-06-06T15:53:05Z</time>
      </trkpt>
      <trkpt lat="46.62361" lon="5.75205">
        <ele>520</ele>
        <time>2022-06-06T15:53:09Z</time>
      </trkpt>
      <trkpt lat="46.62354" lon="5.7519">
        <ele>520</ele>
        <time>2022-06-06T15:53:11Z</time>
      </trkpt>
      <trkpt lat="46.62346" lon="5.7516">
        <ele>519</ele>
        <time>2022-06-06T15:53:15Z</time>
      </trkpt>
      <trkpt lat="46.62301" lon="5.74926">
        <ele>512</ele>
        <time>2022-06-06T15:53:45Z</time>
      </trkpt>
      <trkpt lat="46.62287" lon="5.74865">
        <ele>511</ele>
        <time>2022-06-06T15:53:52Z</time>
      </trkpt>
      <trkpt lat="46.62276" lon="5.7483">
        <ele>512</ele>
        <time>2022-06-06T15:53:57Z</time>
      </trkpt>
      <trkpt lat="46.62261" lon="5.74794">
        <ele>513</ele>
        <time>2022-06-06T15:54:02Z</time>
      </trkpt>
      <trkpt lat="46.6223" lon="5.74737">
        <ele>515</ele>
        <time>2022-06-06T15:54:11Z</time>
      </trkpt>
      <trkpt lat="46.62115" lon="5.74548">
        <ele>515</ele>
        <time>2022-06-06T15:54:42Z</time>
      </trkpt>
      <trkpt lat="46.62091" lon="5.74516">
        <ele>514</ele>
        <time>2022-06-06T15:54:48Z</time>
      </trkpt>
      <trkpt lat="46.62076" lon="5.74501">
        <ele>514</ele>
        <time>2022-06-06T15:54:51Z</time>
      </trkpt>
      <trkpt lat="46.6198" lon="5.7442">
        <ele>509</ele>
        <time>2022-06-06T15:55:11Z</time>
      </trkpt>
      <trkpt lat="46.6195" lon="5.74383">
        <ele>506</ele>
        <time>2022-06-06T15:55:18Z</time>
      </trkpt>
      <trkpt lat="46.61936" lon="5.7436">
        <ele>505</ele>
        <time>2022-06-06T15:55:22Z</time>
      </trkpt>
      <trkpt lat="46.61926" lon="5.74337">
        <ele>504</ele>
        <time>2022-06-06T15:55:25Z</time>
      </trkpt>
      <trkpt lat="46.61917" lon="5.74312">
        <ele>505</ele>
        <time>2022-06-06T15:55:28Z</time>
      </trkpt>
      <trkpt lat="46.61893" lon="5.74234">
        <ele>505</ele>
        <time>2022-06-06T15:55:39Z</time>
      </trkpt>
      <trkpt lat="46.61879" lon="5.74204">
        <ele>504</ele>
        <time>2022-06-06T15:55:43Z</time>
      </trkpt>
      <trkpt lat="46.61766" lon="5.74016">
        <ele>495</ele>
        <time>2022-06-06T15:56:14Z</time>
      </trkpt>
      <trkpt lat="46.61746" lon="5.73985">
        <ele>495</ele>
        <time>2022-06-06T15:56:19Z</time>
      </trkpt>
      <trkpt lat="46.61721" lon="5.73959">
        <ele>497</ele>
        <time>2022-06-06T15:56:24Z</time>
      </trkpt>
      <trkpt lat="46.61665" lon="5.73925">
        <ele>499</ele>
        <time>2022-06-06T15:56:35Z</time>
      </trkpt>
      <trkpt lat="46.61645" lon="5.73908">
        <ele>498</ele>
        <time>2022-06-06T15:56:39Z</time>
      </trkpt>
      <trkpt lat="46.61627" lon="5.7389">
        <ele>496</ele>
        <time>2022-06-06T15:56:43Z</time>
      </trkpt>
      <trkpt lat="46.61524" lon="5.7375">
        <ele>488</ele>
        <time>2022-06-06T15:57:08Z</time>
      </trkpt>
      <trkpt lat="46.61505" lon="5.73721">
        <ele>487</ele>
        <time>2022-06-06T15:57:13Z</time>
      </trkpt>
      <trkpt lat="46.61489" lon="5.73689">
        <ele>485</ele>
        <time>2022-06-06T15:57:18Z</time>
      </trkpt>
      <trkpt lat="46.61428" lon="5.73551">
        <ele>480</ele>
        <time>2022-06-06T15:57:38Z</time>
      </trkpt>
      <trkpt lat="46.61406" lon="5.73512">
        <ele>480</ele>
        <time>2022-06-06T15:57:44Z</time>
      </trkpt>
      <trkpt lat="46.61388" lon="5.7349">
        <ele>480</ele>
        <time>2022-06-06T15:57:48Z</time>
      </trkpt>
      <trkpt lat="46.61378" lon="5.73481">
        <ele>479</ele>
        <time>2022-06-06T15:57:51Z</time>
      </trkpt>
      <trkpt lat="46.61307" lon="5.7342">
        <ele>477</ele>
        <time>2022-06-06T15:58:05Z</time>
      </trkpt>
      <trkpt lat="46.61298" lon="5.7341">
        <ele>477</ele>
        <time>2022-06-06T15:58:07Z</time>
      </trkpt>
      <trkpt lat="46.61278" lon="5.73383">
        <ele>476</ele>
        <time>2022-06-06T15:58:12Z</time>
      </trkpt>
      <trkpt lat="46.6122" lon="5.73292">
        <ele>476</ele>
        <time>2022-06-06T15:58:27Z</time>
      </trkpt>
      <trkpt lat="46.61206" lon="5.73264">
        <ele>475</ele>
        <time>2022-06-06T15:58:31Z</time>
      </trkpt>
      <trkpt lat="46.61171" lon="5.73157">
        <ele>473</ele>
        <time>2022-06-06T15:58:46Z</time>
      </trkpt>
      <trkpt lat="46.61158" lon="5.73129">
        <ele>473</ele>
        <time>2022-06-06T15:58:50Z</time>
      </trkpt>
      <trkpt lat="46.61147" lon="5.73112">
        <ele>472</ele>
        <time>2022-06-06T15:58:53Z</time>
      </trkpt>
      <trkpt lat="46.61069" lon="5.73029">
        <ele>469</ele>
        <time>2022-06-06T15:59:10Z</time>
      </trkpt>
      <trkpt lat="46.60977" lon="5.72938">
        <ele>466</ele>
        <time>2022-06-06T15:59:30Z</time>
      </trkpt>
      <trkpt lat="46.60958" lon="5.72925">
        <ele>465</ele>
        <time>2022-06-06T15:59:34Z</time>
      </trkpt>
      <trkpt lat="46.60939" lon="5.7292">
        <ele>463</ele>
        <time>2022-06-06T15:59:37Z</time>
      </trkpt>
      <trkpt lat="46.60923" lon="5.72922">
        <ele>461</ele>
        <time>2022-06-06T15:59:40Z</time>
      </trkpt>
      <trkpt lat="46.60904" lon="5.7293">
        <ele>460</ele>
        <time>2022-06-06T15:59:43Z</time>
      </trkpt>
      <trkpt lat="46.60885" lon="5.72942">
        <ele>460</ele>
        <time>2022-06-06T15:59:47Z</time>
      </trkpt>
      <trkpt lat="46.60799" lon="5.72991">
        <ele>461</ele>
        <time>2022-06-06T16:00:04Z</time>
      </trkpt>
      <trkpt lat="46.60782" lon="5.72996">
        <ele>461</ele>
        <time>2022-06-06T16:00:07Z</time>
      </trkpt>
      <trkpt lat="46.6077" lon="5.72997">
        <ele>461</ele>
        <time>2022-06-06T16:00:09Z</time>
      </trkpt>
      <trkpt lat="46.60746" lon="5.7299">
        <ele>462</ele>
        <time>2022-06-06T16:00:13Z</time>
      </trkpt>
      <trkpt lat="46.60596" lon="5.72898">
        <ele>464</ele>
        <time>2022-06-06T16:00:42Z</time>
      </trkpt>
      <trkpt lat="46.60567" lon="5.72864">
        <ele>464</ele>
        <time>2022-06-06T16:00:49Z</time>
      </trkpt>
      <trkpt lat="46.6055" lon="5.72834">
        <ele>464</ele>
        <time>2022-06-06T16:00:54Z</time>
      </trkpt>
      <trkpt lat="46.60526" lon="5.72764">
        <ele>465</ele>
        <time>2022-06-06T16:01:03Z</time>
      </trkpt>
      <trkpt lat="46.60512" lon="5.7274">
        <ele>467</ele>
        <time>2022-06-06T16:01:07Z</time>
      </trkpt>
      <trkpt lat="46.6048" lon="5.72702">
        <ele>469</ele>
        <time>2022-06-06T16:01:14Z</time>
      </trkpt>
      <trkpt lat="46.6028" lon="5.72573">
        <ele>480</ele>
        <time>2022-06-06T16:01:53Z</time>
      </trkpt>
      <trkpt lat="46.60091" lon="5.72391">
        <ele>479</ele>
        <time>2022-06-06T16:02:34Z</time>
      </trkpt>
      <trkpt lat="46.59915" lon="5.72218">
        <ele>479</ele>
        <time>2022-06-06T16:03:11Z</time>
      </trkpt>
      <trkpt lat="46.59881" lon="5.72189">
        <ele>478</ele>
        <time>2022-06-06T16:03:18Z</time>
      </trkpt>
      <trkpt lat="46.59861" lon="5.72179">
        <ele>477</ele>
        <time>2022-06-06T16:03:22Z</time>
      </trkpt>
      <trkpt lat="46.59839" lon="5.72175">
        <ele>476</ele>
        <time>2022-06-06T16:03:26Z</time>
      </trkpt>
      <trkpt lat="46.5982" lon="5.72179">
        <ele>475</ele>
        <time>2022-06-06T16:03:29Z</time>
      </trkpt>
      <trkpt lat="46.59803" lon="5.72187">
        <ele>474</ele>
        <time>2022-06-06T16:03:33Z</time>
      </trkpt>
      <trkpt lat="46.59774" lon="5.72219">
        <ele>474</ele>
        <time>2022-06-06T16:03:39Z</time>
      </trkpt>
      <trkpt lat="46.59764" lon="5.72239">
        <ele>474</ele>
        <time>2022-06-06T16:03:42Z</time>
      </trkpt>
      <trkpt lat="46.59747" lon="5.72283">
        <ele>476</ele>
        <time>2022-06-06T16:03:48Z</time>
      </trkpt>
      <trkpt lat="46.59719" lon="5.72398">
        <ele>473</ele>
        <time>2022-06-06T16:04:03Z</time>
      </trkpt>
      <trkpt lat="46.59712" lon="5.72472">
        <ele>470</ele>
        <time>2022-06-06T16:04:12Z</time>
      </trkpt>
      <trkpt lat="46.59704" lon="5.72524">
        <ele>467</ele>
        <time>2022-06-06T16:04:19Z</time>
      </trkpt>
      <trkpt lat="46.59695" lon="5.72576">
        <ele>465</ele>
        <time>2022-06-06T16:04:25Z</time>
      </trkpt>
      <trkpt lat="46.59676" lon="5.72631">
        <ele>464</ele>
        <time>2022-06-06T16:04:33Z</time>
      </trkpt>
      <trkpt lat="46.59654" lon="5.72678">
        <ele>464</ele>
        <time>2022-06-06T16:04:40Z</time>
      </trkpt>
      <trkpt lat="46.59591" lon="5.72788">
        <ele>459</ele>
        <time>2022-06-06T16:04:57Z</time>
      </trkpt>
      <trkpt lat="46.5958" lon="5.72798">
        <ele>458</ele>
        <time>2022-06-06T16:05:00Z</time>
      </trkpt>
      <trkpt lat="46.59573" lon="5.72801">
        <ele>458</ele>
        <time>2022-06-06T16:05:01Z</time>
      </trkpt>
      <trkpt lat="46.59562" lon="5.72799">
        <ele>458</ele>
        <time>2022-06-06T16:05:03Z</time>
      </trkpt>
      <trkpt lat="46.59557" lon="5.72794">
        <ele>458</ele>
        <time>2022-06-06T16:05:04Z</time>
      </trkpt>
      <trkpt lat="46.59542" lon="5.72771">
        <ele>457</ele>
        <time>2022-06-06T16:05:08Z</time>
      </trkpt>
      <trkpt lat="46.59496" lon="5.72698">
        <ele>455</ele>
        <time>2022-06-06T16:05:20Z</time>
      </trkpt>
      <trkpt lat="46.59473" lon="5.72655">
        <ele>456</ele>
        <time>2022-06-06T16:05:27Z</time>
      </trkpt>
      <trkpt lat="46.59457" lon="5.72676">
        <ele>457</ele>
        <time>2022-06-06T16:05:31Z</time>
      </trkpt>
      <trkpt lat="46.59442" lon="5.72711">
        <ele>459</ele>
        <time>2022-06-06T16:05:36Z</time>
      </trkpt>
      <trkpt lat="46.59436" lon="5.72744">
        <ele>460</ele>
        <time>2022-06-06T16:05:40Z</time>
      </trkpt>
      <trkpt lat="46.59436" lon="5.72787">
        <ele>462</ele>
        <time>2022-06-06T16:05:45Z</time>
      </trkpt>
      <trkpt lat="46.59442" lon="5.7289">
        <ele>465</ele>
        <time>2022-06-06T16:05:58Z</time>
      </trkpt>
      <trkpt lat="46.59439" lon="5.72919">
        <ele>466</ele>
        <time>2022-06-06T16:06:01Z</time>
      </trkpt>
      <trkpt lat="46.59428" lon="5.72958">
        <ele>468</ele>
        <time>2022-06-06T16:06:06Z</time>
      </trkpt>
      <trkpt lat="46.59352" lon="5.73117">
        <ele>476</ele>
        <time>2022-06-06T16:06:30Z</time>
      </trkpt>
      <trkpt lat="46.59339" lon="5.73139">
        <ele>478</ele>
        <time>2022-06-06T16:06:34Z</time>
      </trkpt>
      <trkpt lat="46.5933" lon="5.7315">
        <ele>479</ele>
        <time>2022-06-06T16:06:36Z</time>
      </trkpt>
      <trkpt lat="46.59319" lon="5.73159">
        <ele>480</ele>
        <time>2022-06-06T16:06:38Z</time>
      </trkpt>
      <trkpt lat="46.59308" lon="5.73166">
        <ele>480</ele>
        <time>2022-06-06T16:06:40Z</time>
      </trkpt>
      <trkpt lat="46.59289" lon="5.73171">
        <ele>481</ele>
        <time>2022-06-06T16:06:44Z</time>
      </trkpt>
      <trkpt lat="46.5927" lon="5.73168">
        <ele>482</ele>
        <time>2022-06-06T16:06:47Z</time>
      </trkpt>
      <trkpt lat="46.59238" lon="5.73156">
        <ele>483</ele>
        <time>2022-06-06T16:06:53Z</time>
      </trkpt>
      <trkpt lat="46.5894" lon="5.73017">
        <ele>482</ele>
        <time>2022-06-06T16:07:48Z</time>
      </trkpt>
      <trkpt lat="46.58839" lon="5.72972">
        <ele>481</ele>
        <time>2022-06-06T16:08:07Z</time>
      </trkpt>
      <trkpt lat="46.58809" lon="5.72956">
        <ele>481</ele>
        <time>2022-06-06T16:08:13Z</time>
      </trkpt>
      <trkpt lat="46.58711" lon="5.72889">
        <ele>479</ele>
        <time>2022-06-06T16:08:32Z</time>
      </trkpt>
      <trkpt lat="46.58612" lon="5.72833">
        <ele>479</ele>
        <time>2022-06-06T16:08:51Z</time>
      </trkpt>
      <trkpt lat="46.58576" lon="5.72802">
        <ele>480</ele>
        <time>2022-06-06T16:08:59Z</time>
      </trkpt>
      <trkpt lat="46.5851" lon="5.72739">
        <ele>481</ele>
        <time>2022-06-06T16:09:13Z</time>
      </trkpt>
      <trkpt lat="46.58498" lon="5.72729">
        <ele>481</ele>
        <time>2022-06-06T16:09:15Z</time>
      </trkpt>
      <trkpt lat="46.5848" lon="5.7272">
        <ele>481</ele>
        <time>2022-06-06T16:09:18Z</time>
      </trkpt>
      <trkpt lat="46.58436" lon="5.72707">
        <ele>481</ele>
        <time>2022-06-06T16:09:26Z</time>
      </trkpt>
      <trkpt lat="46.58342" lon="5.72694">
        <ele>484</ele>
        <time>2022-06-06T16:09:43Z</time>
      </trkpt>
      <trkpt lat="46.58318" lon="5.72693">
        <ele>484</ele>
        <time>2022-06-06T16:09:48Z</time>
      </trkpt>
      <trkpt lat="46.58285" lon="5.72697">
        <ele>485</ele>
        <time>2022-06-06T16:09:53Z</time>
      </trkpt>
      <trkpt lat="46.5826" lon="5.72694">
        <ele>485</ele>
        <time>2022-06-06T16:09:58Z</time>
      </trkpt>
      <trkpt lat="46.58233" lon="5.72681">
        <ele>486</ele>
        <time>2022-06-06T16:10:03Z</time>
      </trkpt>
      <trkpt lat="46.58169" lon="5.72637">
        <ele>489</ele>
        <time>2022-06-06T16:10:16Z</time>
      </trkpt>
      <trkpt lat="46.5815" lon="5.72627">
        <ele>489</ele>
        <time>2022-06-06T16:10:19Z</time>
      </trkpt>
      <trkpt lat="46.58101" lon="5.72832">
        <ele>495</ele>
        <time>2022-06-06T16:10:46Z</time>
      </trkpt>
      <trkpt lat="46.58048" lon="5.73072">
        <ele>504</ele>
        <time>2022-06-06T16:11:17Z</time>
      </trkpt>
      <trkpt lat="46.5801" lon="5.73182">
        <ele>510</ele>
        <time>2022-06-06T16:11:32Z</time>
      </trkpt>
      <trkpt lat="46.57989" lon="5.73237">
        <ele>514</ele>
        <time>2022-06-06T16:11:39Z</time>
      </trkpt>
      <trkpt lat="46.57963" lon="5.73291">
        <ele>517</ele>
        <time>2022-06-06T16:11:47Z</time>
      </trkpt>
      <trkpt lat="46.57904" lon="5.73399">
        <ele>524</ele>
        <time>2022-06-06T16:12:04Z</time>
      </trkpt>
      <trkpt lat="46.57819" lon="5.73549">
        <ele>536</ele>
        <time>2022-06-06T16:12:28Z</time>
      </trkpt>
      <trkpt lat="46.57809" lon="5.7357">
        <ele>538</ele>
        <time>2022-06-06T16:12:31Z</time>
      </trkpt>
      <trkpt lat="46.57775" lon="5.73659">
        <ele>545</ele>
        <time>2022-06-06T16:12:44Z</time>
      </trkpt>
      <trkpt lat="46.57757" lon="5.73715">
        <ele>549</ele>
        <time>2022-06-06T16:12:51Z</time>
      </trkpt>
      <trkpt lat="46.57742" lon="5.73747">
        <ele>551</ele>
        <time>2022-06-06T16:12:56Z</time>
      </trkpt>
      <trkpt lat="46.57727" lon="5.73768">
        <ele>552</ele>
        <time>2022-06-06T16:13:00Z</time>
      </trkpt>
      <trkpt lat="46.57671" lon="5.73817">
        <ele>554</ele>
        <time>2022-06-06T16:13:11Z</time>
      </trkpt>
      <trkpt lat="46.57644" lon="5.73846">
        <ele>555</ele>
        <time>2022-06-06T16:13:17Z</time>
      </trkpt>
      <trkpt lat="46.57527" lon="5.73998">
        <ele>565</ele>
        <time>2022-06-06T16:13:45Z</time>
      </trkpt>
      <trkpt lat="46.57439" lon="5.74104">
        <ele>560</ele>
        <time>2022-06-06T16:14:05Z</time>
      </trkpt>
      <trkpt lat="46.57421" lon="5.74137">
        <ele>558</ele>
        <time>2022-06-06T16:14:11Z</time>
      </trkpt>
      <trkpt lat="46.57414" lon="5.74155">
        <ele>557</ele>
        <time>2022-06-06T16:14:13Z</time>
      </trkpt>
      <trkpt lat="46.57404" lon="5.74194">
        <ele>555</ele>
        <time>2022-06-06T16:14:18Z</time>
      </trkpt>
      <trkpt lat="46.57398" lon="5.74237">
        <ele>554</ele>
        <time>2022-06-06T16:14:24Z</time>
      </trkpt>
      <trkpt lat="46.5739" lon="5.74324">
        <ele>556</ele>
        <time>2022-06-06T16:14:34Z</time>
      </trkpt>
      <trkpt lat="46.57387" lon="5.74469">
        <ele>555</ele>
        <time>2022-06-06T16:14:52Z</time>
      </trkpt>
      <trkpt lat="46.57386" lon="5.74481">
        <ele>554</ele>
        <time>2022-06-06T16:14:53Z</time>
      </trkpt>
      <trkpt lat="46.57364" lon="5.74565">
        <ele>544</ele>
        <time>2022-06-06T16:15:04Z</time>
      </trkpt>
      <trkpt lat="46.57363" lon="5.74586">
        <ele>541</ele>
        <time>2022-06-06T16:15:07Z</time>
      </trkpt>
      <trkpt lat="46.57365" lon="5.74599">
        <ele>539</ele>
        <time>2022-06-06T16:15:09Z</time>
      </trkpt>
      <trkpt lat="46.57387" lon="5.74688">
        <ele>532</ele>
        <time>2022-06-06T16:15:20Z</time>
      </trkpt>
      <trkpt lat="46.57387" lon="5.74697">
        <ele>532</ele>
        <time>2022-06-06T16:15:21Z</time>
      </trkpt>
      <trkpt lat="46.57384" lon="5.74706">
        <ele>531</ele>
        <time>2022-06-06T16:15:23Z</time>
      </trkpt>
      <trkpt lat="46.57348" lon="5.74668">
        <ele>534</ele>
        <time>2022-06-06T16:15:30Z</time>
      </trkpt>
      <trkpt lat="46.57315" lon="5.74645">
        <ele>536</ele>
        <time>2022-06-06T16:15:37Z</time>
      </trkpt>
      <trkpt lat="46.57255" lon="5.74611">
        <ele>538</ele>
        <time>2022-06-06T16:15:48Z</time>
      </trkpt>
      <trkpt lat="46.57175" lon="5.74581">
        <ele>534</ele>
        <time>2022-06-06T16:16:03Z</time>
      </trkpt>
      <trkpt lat="46.56897" lon="5.74487">
        <ele>537</ele>
        <time>2022-06-06T16:16:54Z</time>
      </trkpt>
      <trkpt lat="46.5679" lon="5.74454">
        <ele>540</ele>
        <time>2022-06-06T16:17:13Z</time>
      </trkpt>
      <trkpt lat="46.5674" lon="5.74442">
        <ele>539</ele>
        <time>2022-06-06T16:17:22Z</time>
      </trkpt>
      <trkpt lat="46.56336" lon="5.74383">
        <ele>539</ele>
        <time>2022-06-06T16:18:35Z</time>
      </trkpt>
      <trkpt lat="46.5629" lon="5.74379">
        <ele>540</ele>
        <time>2022-06-06T16:18:43Z</time>
      </trkpt>
      <trkpt lat="46.56264" lon="5.74381">
        <ele>540</ele>
        <time>2022-06-06T16:18:47Z</time>
      </trkpt>
      <trkpt lat="46.56241" lon="5.74385">
        <ele>540</ele>
        <time>2022-06-06T16:18:52Z</time>
      </trkpt>
      <trkpt lat="46.55879" lon="5.74492">
        <ele>547</ele>
        <time>2022-06-06T16:19:57Z</time>
      </trkpt>
      <trkpt lat="46.55858" lon="5.74495">
        <ele>547</ele>
        <time>2022-06-06T16:20:01Z</time>
      </trkpt>
      <trkpt lat="46.55808" lon="5.74494">
        <ele>547</ele>
        <time>2022-06-06T16:20:10Z</time>
      </trkpt>
      <trkpt lat="46.55644" lon="5.74481">
        <ele>550</ele>
        <time>2022-06-06T16:20:39Z</time>
      </trkpt>
      <trkpt lat="46.55607" lon="5.74483">
        <ele>551</ele>
        <time>2022-06-06T16:20:46Z</time>
      </trkpt>
      <trkpt lat="46.55564" lon="5.74492">
        <ele>552</ele>
        <time>2022-06-06T16:20:54Z</time>
      </trkpt>
      <trkpt lat="46.55482" lon="5.74521">
        <ele>554</ele>
        <time>2022-06-06T16:21:09Z</time>
      </trkpt>
      <trkpt lat="46.55425" lon="5.74533">
        <ele>554</ele>
        <time>2022-06-06T16:21:19Z</time>
      </trkpt>
      <trkpt lat="46.55397" lon="5.74535">
        <ele>554</ele>
        <time>2022-06-06T16:21:24Z</time>
      </trkpt>
      <trkpt lat="46.55352" lon="5.74534">
        <ele>554</ele>
        <time>2022-06-06T16:21:32Z</time>
      </trkpt>
      <trkpt lat="46.55301" lon="5.74523">
        <ele>557</ele>
        <time>2022-06-06T16:21:41Z</time>
      </trkpt>
      <trkpt lat="46.55136" lon="5.74471">
        <ele>570</ele>
        <time>2022-06-06T16:22:11Z</time>
      </trkpt>
      <trkpt lat="46.55094" lon="5.74464">
        <ele>571</ele>
        <time>2022-06-06T16:22:19Z</time>
      </trkpt>
      <trkpt lat="46.55067" lon="5.74466">
        <ele>572</ele>
        <time>2022-06-06T16:22:23Z</time>
      </trkpt>
      <trkpt lat="46.55044" lon="5.74473">
        <ele>572</ele>
        <time>2022-06-06T16:22:28Z</time>
      </trkpt>
      <trkpt lat="46.55025" lon="5.74484">
        <ele>572</ele>
        <time>2022-06-06T16:22:31Z</time>
      </trkpt>
      <trkpt lat="46.54996" lon="5.74508">
        <ele>571</ele>
        <time>2022-06-06T16:22:37Z</time>
      </trkpt>
      <trkpt lat="46.54885" lon="5.74616">
        <ele>569</ele>
        <time>2022-06-06T16:23:01Z</time>
      </trkpt>
      <trkpt lat="46.54743" lon="5.74713">
        <ele>573</ele>
        <time>2022-06-06T16:23:29Z</time>
      </trkpt>
      <trkpt lat="46.54724" lon="5.74728">
        <ele>576</ele>
        <time>2022-06-06T16:23:33Z</time>
      </trkpt>
      <trkpt lat="46.54639" lon="5.74803">
        <ele>580</ele>
        <time>2022-06-06T16:23:50Z</time>
      </trkpt>
      <trkpt lat="46.54604" lon="5.74827">
        <ele>580</ele>
        <time>2022-06-06T16:23:57Z</time>
      </trkpt>
      <trkpt lat="46.5426" lon="5.75051">
        <ele>586</ele>
        <time>2022-06-06T16:25:04Z</time>
      </trkpt>
      <trkpt lat="46.5418" lon="5.75106">
        <ele>588</ele>
        <time>2022-06-06T16:25:20Z</time>
      </trkpt>
      <trkpt lat="46.54164" lon="5.75121">
        <ele>589</ele>
        <time>2022-06-06T16:25:23Z</time>
      </trkpt>
      <trkpt lat="46.54126" lon="5.75166">
        <ele>590</ele>
        <time>2022-06-06T16:25:32Z</time>
      </trkpt>
      <trkpt lat="46.53969" lon="5.75239">
        <ele>591</ele>
        <time>2022-06-06T16:26:01Z</time>
      </trkpt>
      <trkpt lat="46.5334" lon="5.75523">
        <ele>592</ele>
        <time>2022-06-06T16:27:59Z</time>
      </trkpt>
      <trkpt lat="46.53305" lon="5.75538">
        <ele>592</ele>
        <time>2022-06-06T16:28:05Z</time>
      </trkpt>
      <trkpt lat="46.53278" lon="5.75545">
        <ele>592</ele>
        <time>2022-06-06T16:28:10Z</time>
      </trkpt>
      <trkpt lat="46.53232" lon="5.75551">
        <ele>591</ele>
        <time>2022-06-06T16:28:18Z</time>
      </trkpt>
      <trkpt lat="46.5318" lon="5.75549">
        <ele>589</ele>
        <time>2022-06-06T16:28:27Z</time>
      </trkpt>
      <trkpt lat="46.5274" lon="5.75426">
        <ele>584</ele>
        <time>2022-06-06T16:29:47Z</time>
      </trkpt>
      <trkpt lat="46.52598" lon="5.75381">
        <ele>581</ele>
        <time>2022-06-06T16:30:13Z</time>
      </trkpt>
      <trkpt lat="46.52427" lon="5.75297">
        <ele>581</ele>
        <time>2022-06-06T16:30:45Z</time>
      </trkpt>
      <trkpt lat="46.52333" lon="5.75242">
        <ele>582</ele>
        <time>2022-06-06T16:31:03Z</time>
      </trkpt>
      <trkpt lat="46.52309" lon="5.75227">
        <ele>583</ele>
        <time>2022-06-06T16:31:08Z</time>
      </trkpt>
      <trkpt lat="46.52284" lon="5.75207">
        <ele>584</ele>
        <time>2022-06-06T16:31:13Z</time>
      </trkpt>
      <trkpt lat="46.52241" lon="5.75166">
        <ele>584</ele>
        <time>2022-06-06T16:31:22Z</time>
      </trkpt>
      <trkpt lat="46.52222" lon="5.75153">
        <ele>584</ele>
        <time>2022-06-06T16:31:26Z</time>
      </trkpt>
      <trkpt lat="46.52193" lon="5.75136">
        <ele>584</ele>
        <time>2022-06-06T16:31:31Z</time>
      </trkpt>
      <trkpt lat="46.5216" lon="5.75121">
        <ele>584</ele>
        <time>2022-06-06T16:31:38Z</time>
      </trkpt>
      <trkpt lat="46.52133" lon="5.75107">
        <ele>584</ele>
        <time>2022-06-06T16:31:43Z</time>
      </trkpt>
      <trkpt lat="46.5211" lon="5.75089">
        <ele>584</ele>
        <time>2022-06-06T16:31:47Z</time>
      </trkpt>
      <trkpt lat="46.52089" lon="5.75069">
        <ele>583</ele>
        <time>2022-06-06T16:31:52Z</time>
      </trkpt>
      <trkpt lat="46.52049" lon="5.7502">
        <ele>579</ele>
        <time>2022-06-06T16:32:01Z</time>
      </trkpt>
      <trkpt lat="46.5203" lon="5.75">
        <ele>576</ele>
        <time>2022-06-06T16:32:05Z</time>
      </trkpt>
      <trkpt lat="46.52008" lon="5.74981">
        <ele>576</ele>
        <time>2022-06-06T16:32:10Z</time>
      </trkpt>
      <trkpt lat="46.5199" lon="5.74969">
        <ele>575</ele>
        <time>2022-06-06T16:32:13Z</time>
      </trkpt>
      <trkpt lat="46.51968" lon="5.74958">
        <ele>576</ele>
        <time>2022-06-06T16:32:17Z</time>
      </trkpt>
      <trkpt lat="46.51864" lon="5.74918">
        <ele>574</ele>
        <time>2022-06-06T16:32:37Z</time>
      </trkpt>
      <trkpt lat="46.5181" lon="5.749">
        <ele>575</ele>
        <time>2022-06-06T16:32:46Z</time>
      </trkpt>
      <trkpt lat="46.51771" lon="5.74889">
        <ele>577</ele>
        <time>2022-06-06T16:32:54Z</time>
      </trkpt>
      <trkpt lat="46.51713" lon="5.7488">
        <ele>581</ele>
        <time>2022-06-06T16:33:04Z</time>
      </trkpt>
      <trkpt lat="46.51667" lon="5.7488">
        <ele>585</ele>
        <time>2022-06-06T16:33:12Z</time>
      </trkpt>
      <trkpt lat="46.51624" lon="5.74885">
        <ele>583</ele>
        <time>2022-06-06T16:33:20Z</time>
      </trkpt>
      <trkpt lat="46.51412" lon="5.74947">
        <ele>586</ele>
        <time>2022-06-06T16:33:58Z</time>
      </trkpt>
      <trkpt lat="46.51393" lon="5.74947">
        <ele>588</ele>
        <time>2022-06-06T16:34:02Z</time>
      </trkpt>
      <trkpt lat="46.51375" lon="5.74941">
        <ele>588</ele>
        <time>2022-06-06T16:34:05Z</time>
      </trkpt>
      <trkpt lat="46.51318" lon="5.74911">
        <ele>579</ele>
        <time>2022-06-06T16:34:16Z</time>
      </trkpt>
      <trkpt lat="46.513" lon="5.74906">
        <ele>578</ele>
        <time>2022-06-06T16:34:19Z</time>
      </trkpt>
      <trkpt lat="46.51286" lon="5.74906">
        <ele>578</ele>
        <time>2022-06-06T16:34:21Z</time>
      </trkpt>
      <trkpt lat="46.51269" lon="5.7491">
        <ele>580</ele>
        <time>2022-06-06T16:34:25Z</time>
      </trkpt>
      <trkpt lat="46.51228" lon="5.74927">
        <ele>587</ele>
        <time>2022-06-06T16:34:32Z</time>
      </trkpt>
      <trkpt lat="46.51207" lon="5.7493">
        <ele>588</ele>
        <time>2022-06-06T16:34:36Z</time>
      </trkpt>
      <trkpt lat="46.51146" lon="5.74932">
        <ele>590</ele>
        <time>2022-06-06T16:34:47Z</time>
      </trkpt>
      <trkpt lat="46.51125" lon="5.74929">
        <ele>590</ele>
        <time>2022-06-06T16:34:50Z</time>
      </trkpt>
      <trkpt lat="46.51103" lon="5.74918">
        <ele>587</ele>
        <time>2022-06-06T16:34:55Z</time>
      </trkpt>
      <trkpt lat="46.51059" lon="5.74888">
        <ele>584</ele>
        <time>2022-06-06T16:35:03Z</time>
      </trkpt>
      <trkpt lat="46.51016" lon="5.74862">
        <ele>582</ele>
        <time>2022-06-06T16:35:12Z</time>
      </trkpt>
      <trkpt lat="46.50942" lon="5.74824">
        <ele>581</ele>
        <time>2022-06-06T16:35:26Z</time>
      </trkpt>
      <trkpt lat="46.50921" lon="5.74805">
        <ele>582</ele>
        <time>2022-06-06T16:35:30Z</time>
      </trkpt>
      <trkpt lat="46.50871" lon="5.74753">
        <ele>579</ele>
        <time>2022-06-06T16:35:41Z</time>
      </trkpt>
      <trkpt lat="46.50847" lon="5.74726">
        <ele>579</ele>
        <time>2022-06-06T16:35:46Z</time>
      </trkpt>
      <trkpt lat="46.50835" lon="5.74709">
        <ele>579</ele>
        <time>2022-06-06T16:35:49Z</time>
      </trkpt>
      <trkpt lat="46.50824" lon="5.74689">
        <ele>579</ele>
        <time>2022-06-06T16:35:52Z</time>
      </trkpt>
      <trkpt lat="46.50809" lon="5.74654">
        <ele>579</ele>
        <time>2022-06-06T16:35:57Z</time>
      </trkpt>
      <trkpt lat="46.50705" lon="5.7438">
        <ele>573</ele>
        <time>2022-06-06T16:36:36Z</time>
      </trkpt>
      <trkpt lat="46.50695" lon="5.7436">
        <ele>571</ele>
        <time>2022-06-06T16:36:39Z</time>
      </trkpt>
      <trkpt lat="46.50685" lon="5.74345">
        <ele>570</ele>
        <time>2022-06-06T16:36:41Z</time>
      </trkpt>
      <trkpt lat="46.50669" lon="5.74328">
        <ele>569</ele>
        <time>2022-06-06T16:36:45Z</time>
      </trkpt>
      <trkpt lat="46.50655" lon="5.7432">
        <ele>567</ele>
        <time>2022-06-06T16:36:48Z</time>
      </trkpt>
      <trkpt lat="46.50633" lon="5.74312">
        <ele>565</ele>
        <time>2022-06-06T16:36:52Z</time>
      </trkpt>
      <trkpt lat="46.5059" lon="5.74303">
        <ele>562</ele>
        <time>2022-06-06T16:36:59Z</time>
      </trkpt>
      <trkpt lat="46.50537" lon="5.74287">
        <ele>561</ele>
        <time>2022-06-06T16:37:09Z</time>
      </trkpt>
      <trkpt lat="46.50514" lon="5.74273">
        <ele>561</ele>
        <time>2022-06-06T16:37:13Z</time>
      </trkpt>
      <trkpt lat="46.50498" lon="5.74257">
        <ele>560</ele>
        <time>2022-06-06T16:37:17Z</time>
      </trkpt>
      <trkpt lat="46.5048" lon="5.74229">
        <ele>560</ele>
        <time>2022-06-06T16:37:21Z</time>
      </trkpt>
      <trkpt lat="46.50463" lon="5.74189">
        <ele>559</ele>
        <time>2022-06-06T16:37:27Z</time>
      </trkpt>
      <trkpt lat="46.50362" lon="5.73862">
        <ele>551</ele>
        <time>2022-06-06T16:38:11Z</time>
      </trkpt>
      <trkpt lat="46.50298" lon="5.73607">
        <ele>566</ele>
        <time>2022-06-06T16:38:44Z</time>
      </trkpt>
      <trkpt lat="46.50239" lon="5.73408">
        <ele>570</ele>
        <time>2022-06-06T16:39:11Z</time>
      </trkpt>
      <trkpt lat="46.50231" lon="5.73371">
        <ele>572</ele>
        <time>2022-06-06T16:39:16Z</time>
      </trkpt>
      <trkpt lat="46.50227" lon="5.73335">
        <ele>574</ele>
        <time>2022-06-06T16:39:20Z</time>
      </trkpt>
      <trkpt lat="46.50217" lon="5.73163">
        <ele>578</ele>
        <time>2022-06-06T16:39:41Z</time>
      </trkpt>
      <trkpt lat="46.50212" lon="5.73122">
        <ele>577</ele>
        <time>2022-06-06T16:39:46Z</time>
      </trkpt>
      <trkpt lat="46.50207" lon="5.73094">
        <ele>577</ele>
        <time>2022-06-06T16:39:50Z</time>
      </trkpt>
      <trkpt lat="46.50197" lon="5.73065">
        <ele>578</ele>
        <time>2022-06-06T16:39:54Z</time>
      </trkpt>
      <trkpt lat="46.50188" lon="5.73043">
        <ele>578</ele>
        <time>2022-06-06T16:39:57Z</time>
      </trkpt>
      <trkpt lat="46.50175" lon="5.73017">
        <ele>579</ele>
        <time>2022-06-06T16:40:01Z</time>
      </trkpt>
      <trkpt lat="46.50163" lon="5.72998">
        <ele>579</ele>
        <time>2022-06-06T16:40:04Z</time>
      </trkpt>
      <trkpt lat="46.49929" lon="5.72704">
        <ele>586</ele>
        <time>2022-06-06T16:40:59Z</time>
      </trkpt>
      <trkpt lat="46.49913" lon="5.72688">
        <ele>586</ele>
        <time>2022-06-06T16:41:03Z</time>
      </trkpt>
      <trkpt lat="46.49884" lon="5.7266">
        <ele>586</ele>
        <time>2022-06-06T16:41:09Z</time>
      </trkpt>
      <trkpt lat="46.49881" lon="5.72656">
        <ele>586</ele>
        <time>2022-06-06T16:41:10Z</time>
      </trkpt>
      <trkpt lat="46.49881" lon="5.72647">
        <ele>586</ele>
        <time>2022-06-06T16:41:11Z</time>
      </trkpt>
      <trkpt lat="46.49868" lon="5.72697">
        <ele>588</ele>
        <time>2022-06-06T16:41:17Z</time>
      </trkpt>
      <trkpt lat="46.49851" lon="5.72737">
        <ele>589</ele>
        <time>2022-06-06T16:41:23Z</time>
      </trkpt>
      <trkpt lat="46.49844" lon="5.72758">
        <ele>590</ele>
        <time>2022-06-06T16:41:26Z</time>
      </trkpt>
      <trkpt lat="46.49843" lon="5.72765">
        <ele>590</ele>
        <time>2022-06-06T16:41:27Z</time>
      </trkpt>
      <trkpt lat="46.49843" lon="5.72796">
        <ele>590</ele>
        <time>2022-06-06T16:41:30Z</time>
      </trkpt>
      <trkpt lat="46.49846" lon="5.72837">
        <ele>591</ele>
        <time>2022-06-06T16:41:36Z</time>
      </trkpt>
      <trkpt lat="46.49857" lon="5.72884">
        <ele>592</ele>
        <time>2022-06-06T16:41:42Z</time>
      </trkpt>
      <trkpt lat="46.49863" lon="5.72983">
        <ele>595</ele>
        <time>2022-06-06T16:41:54Z</time>
      </trkpt>
      <trkpt lat="46.49862" lon="5.73024">
        <ele>596</ele>
        <time>2022-06-06T16:41:59Z</time>
      </trkpt>
      <trkpt lat="46.49855" lon="5.73053">
        <ele>597</ele>
        <time>2022-06-06T16:42:03Z</time>
      </trkpt>
      <trkpt lat="46.49844" lon="5.73085">
        <ele>598</ele>
        <time>2022-06-06T16:42:07Z</time>
      </trkpt>
      <trkpt lat="46.49833" lon="5.73107">
        <ele>598</ele>
        <time>2022-06-06T16:42:10Z</time>
      </trkpt>
      <trkpt lat="46.49815" lon="5.7313">
        <ele>598</ele>
        <time>2022-06-06T16:42:15Z</time>
      </trkpt>
      <trkpt lat="46.49793" lon="5.73156">
        <ele>597</ele>
        <time>2022-06-06T16:42:20Z</time>
      </trkpt>
      <trkpt lat="46.4977" lon="5.73176">
        <ele>597</ele>
        <time>2022-06-06T16:42:24Z</time>
      </trkpt>
      <trkpt lat="46.49759" lon="5.73188">
        <ele>598</ele>
        <time>2022-06-06T16:42:27Z</time>
      </trkpt>
      <trkpt lat="46.49746" lon="5.73215">
        <ele>598</ele>
        <time>2022-06-06T16:42:31Z</time>
      </trkpt>
      <trkpt lat="46.49737" lon="5.73242">
        <ele>599</ele>
        <time>2022-06-06T16:42:35Z</time>
      </trkpt>
      <trkpt lat="46.49706" lon="5.73299">
        <ele>601</ele>
        <time>2022-06-06T16:42:43Z</time>
      </trkpt>
      <trkpt lat="46.49683" lon="5.73353">
        <ele>603</ele>
        <time>2022-06-06T16:42:51Z</time>
      </trkpt>
      <trkpt lat="46.49666" lon="5.7338">
        <ele>605</ele>
        <time>2022-06-06T16:42:56Z</time>
      </trkpt>
      <trkpt lat="46.49651" lon="5.73395">
        <ele>606</ele>
        <time>2022-06-06T16:42:59Z</time>
      </trkpt>
      <trkpt lat="46.49598" lon="5.73437">
        <ele>608</ele>
        <time>2022-06-06T16:43:10Z</time>
      </trkpt>
      <trkpt lat="46.49582" lon="5.73453">
        <ele>608</ele>
        <time>2022-06-06T16:43:13Z</time>
      </trkpt>
      <trkpt lat="46.49573" lon="5.73466">
        <ele>609</ele>
        <time>2022-06-06T16:43:15Z</time>
      </trkpt>
      <trkpt lat="46.49546" lon="5.73579">
        <ele>615</ele>
        <time>2022-06-06T16:43:30Z</time>
      </trkpt>
      <trkpt lat="46.49539" lon="5.73599">
        <ele>616</ele>
        <time>2022-06-06T16:43:33Z</time>
      </trkpt>
      <trkpt lat="46.49527" lon="5.73623">
        <ele>619</ele>
        <time>2022-06-06T16:43:36Z</time>
      </trkpt>
      <trkpt lat="46.4947" lon="5.73719">
        <ele>626</ele>
        <time>2022-06-06T16:43:52Z</time>
      </trkpt>
      <trkpt lat="46.49462" lon="5.73739">
        <ele>628</ele>
        <time>2022-06-06T16:43:55Z</time>
      </trkpt>
      <trkpt lat="46.49456" lon="5.73761">
        <ele>628</ele>
        <time>2022-06-06T16:43:58Z</time>
      </trkpt>
      <trkpt lat="46.49454" lon="5.73783">
        <ele>628</ele>
        <time>2022-06-06T16:44:00Z</time>
      </trkpt>
      <trkpt lat="46.49457" lon="5.73813">
        <ele>628</ele>
        <time>2022-06-06T16:44:04Z</time>
      </trkpt>
      <trkpt lat="46.49493" lon="5.74007">
        <ele>635</ele>
        <time>2022-06-06T16:44:29Z</time>
      </trkpt>
      <trkpt lat="46.49495" lon="5.7403">
        <ele>634</ele>
        <time>2022-06-06T16:44:32Z</time>
      </trkpt>
      <trkpt lat="46.49494" lon="5.74043">
        <ele>633</ele>
        <time>2022-06-06T16:44:33Z</time>
      </trkpt>
      <trkpt lat="46.4949" lon="5.74061">
        <ele>633</ele>
        <time>2022-06-06T16:44:35Z</time>
      </trkpt>
      <trkpt lat="46.49457" lon="5.74137">
        <ele>634</ele>
        <time>2022-06-06T16:44:46Z</time>
      </trkpt>
      <trkpt lat="46.49442" lon="5.74161">
        <ele>635</ele>
        <time>2022-06-06T16:44:50Z</time>
      </trkpt>
      <trkpt lat="46.49431" lon="5.74175">
        <ele>635</ele>
        <time>2022-06-06T16:44:53Z</time>
      </trkpt>
      <trkpt lat="46.49402" lon="5.74194">
        <ele>639</ele>
        <time>2022-06-06T16:44:59Z</time>
      </trkpt>
      <trkpt lat="46.49385" lon="5.74214">
        <ele>640</ele>
        <time>2022-06-06T16:45:03Z</time>
      </trkpt>
      <trkpt lat="46.49379" lon="5.74225">
        <ele>641</ele>
        <time>2022-06-06T16:45:04Z</time>
      </trkpt>
      <trkpt lat="46.4936" lon="5.7427">
        <ele>640</ele>
        <time>2022-06-06T16:45:11Z</time>
      </trkpt>
      <trkpt lat="46.49342" lon="5.74306">
        <ele>639</ele>
        <time>2022-06-06T16:45:16Z</time>
      </trkpt>
      <trkpt lat="46.49305" lon="5.74359">
        <ele>640</ele>
        <time>2022-06-06T16:45:25Z</time>
      </trkpt>
      <trkpt lat="46.4928" lon="5.74382">
        <ele>641</ele>
        <time>2022-06-06T16:45:31Z</time>
      </trkpt>
      <trkpt lat="46.49227" lon="5.74425">
        <ele>643</ele>
        <time>2022-06-06T16:45:42Z</time>
      </trkpt>
      <trkpt lat="46.49218" lon="5.74434">
        <ele>644</ele>
        <time>2022-06-06T16:45:44Z</time>
      </trkpt>
      <trkpt lat="46.49207" lon="5.74448">
        <ele>645</ele>
        <time>2022-06-06T16:45:46Z</time>
      </trkpt>
      <trkpt lat="46.49202" lon="5.74463">
        <ele>644</ele>
        <time>2022-06-06T16:45:48Z</time>
      </trkpt>
      <trkpt lat="46.49201" lon="5.74473">
        <ele>643</ele>
        <time>2022-06-06T16:45:49Z</time>
      </trkpt>
      <trkpt lat="46.492" lon="5.74481">
        <ele>642</ele>
        <time>2022-06-06T16:45:50Z</time>
      </trkpt>
      <trkpt lat="46.49198" lon="5.74498">
        <ele>639</ele>
        <time>2022-06-06T16:45:52Z</time>
      </trkpt>
      <trkpt lat="46.49196" lon="5.74506">
        <ele>640</ele>
        <time>2022-06-06T16:45:54Z</time>
      </trkpt>
      <trkpt lat="46.49181" lon="5.74533">
        <ele>643</ele>
        <time>2022-06-06T16:45:58Z</time>
      </trkpt>
      <trkpt lat="46.49169" lon="5.74559">
        <ele>643</ele>
        <time>2022-06-06T16:46:02Z</time>
      </trkpt>
      <trkpt lat="46.4916" lon="5.7459">
        <ele>645</ele>
        <time>2022-06-06T16:46:06Z</time>
      </trkpt>
      <trkpt lat="46.49151" lon="5.74606">
        <ele>647</ele>
        <time>2022-06-06T16:46:08Z</time>
      </trkpt>
      <trkpt lat="46.49086" lon="5.74696">
        <ele>641</ele>
        <time>2022-06-06T16:46:24Z</time>
      </trkpt>
      <trkpt lat="46.49061" lon="5.74726">
        <ele>645</ele>
        <time>2022-06-06T16:46:30Z</time>
      </trkpt>
      <trkpt lat="46.49052" lon="5.7474">
        <ele>645</ele>
        <time>2022-06-06T16:46:32Z</time>
      </trkpt>
      <trkpt lat="46.49043" lon="5.74762">
        <ele>644</ele>
        <time>2022-06-06T16:46:36Z</time>
      </trkpt>
      <trkpt lat="46.49023" lon="5.74831">
        <ele>636</ele>
        <time>2022-06-06T16:46:45Z</time>
      </trkpt>
      <trkpt lat="46.48998" lon="5.74888">
        <ele>635</ele>
        <time>2022-06-06T16:46:53Z</time>
      </trkpt>
      <trkpt lat="46.48976" lon="5.74917">
        <ele>634</ele>
        <time>2022-06-06T16:46:58Z</time>
      </trkpt>
      <trkpt lat="46.48946" lon="5.74949">
        <ele>633</ele>
        <time>2022-06-06T16:47:05Z</time>
      </trkpt>
      <trkpt lat="46.48939" lon="5.7496">
        <ele>633</ele>
        <time>2022-06-06T16:47:07Z</time>
      </trkpt>
      <trkpt lat="46.4893" lon="5.74986">
        <ele>631</ele>
        <time>2022-06-06T16:47:10Z</time>
      </trkpt>
      <trkpt lat="46.48921" lon="5.75041">
        <ele>631</ele>
        <time>2022-06-06T16:47:17Z</time>
      </trkpt>
      <trkpt lat="46.48857" lon="5.75309">
        <ele>637</ele>
        <time>2022-06-06T16:47:52Z</time>
      </trkpt>
      <trkpt lat="46.48833" lon="5.75391">
        <ele>640</ele>
        <time>2022-06-06T16:48:03Z</time>
      </trkpt>
      <trkpt lat="46.48811" lon="5.75453">
        <ele>646</ele>
        <time>2022-06-06T16:48:11Z</time>
      </trkpt>
      <trkpt lat="46.48783" lon="5.75553">
        <ele>651</ele>
        <time>2022-06-06T16:48:25Z</time>
      </trkpt>
      <trkpt lat="46.48782" lon="5.7557">
        <ele>652</ele>
        <time>2022-06-06T16:48:27Z</time>
      </trkpt>
      <trkpt lat="46.48785" lon="5.7559">
        <ele>653</ele>
        <time>2022-06-06T16:48:29Z</time>
      </trkpt>
      <trkpt lat="46.48805" lon="5.75667">
        <ele>653</ele>
        <time>2022-06-06T16:48:39Z</time>
      </trkpt>
      <trkpt lat="46.48816" lon="5.75689">
        <ele>652</ele>
        <time>2022-06-06T16:48:43Z</time>
      </trkpt>
      <trkpt lat="46.48828" lon="5.75705">
        <ele>651</ele>
        <time>2022-06-06T16:48:46Z</time>
      </trkpt>
      <trkpt lat="46.48841" lon="5.75716">
        <ele>651</ele>
        <time>2022-06-06T16:48:48Z</time>
      </trkpt>
      <trkpt lat="46.48891" lon="5.75734">
        <ele>654</ele>
        <time>2022-06-06T16:48:57Z</time>
      </trkpt>
      <trkpt lat="46.48902" lon="5.75741">
        <ele>654</ele>
        <time>2022-06-06T16:49:00Z</time>
      </trkpt>
      <trkpt lat="46.48943" lon="5.75777">
        <ele>654</ele>
        <time>2022-06-06T16:49:08Z</time>
      </trkpt>
      <trkpt lat="46.48965" lon="5.75792">
        <ele>654</ele>
        <time>2022-06-06T16:49:12Z</time>
      </trkpt>
      <trkpt lat="46.49048" lon="5.75832">
        <ele>658</ele>
        <time>2022-06-06T16:49:28Z</time>
      </trkpt>
      <trkpt lat="46.49075" lon="5.75847">
        <ele>660</ele>
        <time>2022-06-06T16:49:33Z</time>
      </trkpt>
      <trkpt lat="46.49089" lon="5.75868">
        <ele>659</ele>
        <time>2022-06-06T16:49:37Z</time>
      </trkpt>
      <trkpt lat="46.49139" lon="5.75964">
        <ele>658</ele>
        <time>2022-06-06T16:49:51Z</time>
      </trkpt>
      <trkpt lat="46.49154" lon="5.75989">
        <ele>658</ele>
        <time>2022-06-06T16:49:55Z</time>
      </trkpt>
      <trkpt lat="46.49165" lon="5.76001">
        <ele>659</ele>
        <time>2022-06-06T16:49:58Z</time>
      </trkpt>
      <trkpt lat="46.49179" lon="5.76009">
        <ele>661</ele>
        <time>2022-06-06T16:50:01Z</time>
      </trkpt>
      <trkpt lat="46.49222" lon="5.76028">
        <ele>667</ele>
        <time>2022-06-06T16:50:09Z</time>
      </trkpt>
      <trkpt lat="46.49244" lon="5.76041">
        <ele>669</ele>
        <time>2022-06-06T16:50:13Z</time>
      </trkpt>
      <trkpt lat="46.49351" lon="5.76132">
        <ele>685</ele>
        <time>2022-06-06T16:50:35Z</time>
      </trkpt>
      <trkpt lat="46.49379" lon="5.7616">
        <ele>686</ele>
        <time>2022-06-06T16:50:41Z</time>
      </trkpt>
      <trkpt lat="46.49437" lon="5.76228">
        <ele>686</ele>
        <time>2022-06-06T16:50:54Z</time>
      </trkpt>
      <trkpt lat="46.49451" lon="5.76239">
        <ele>687</ele>
        <time>2022-06-06T16:50:57Z</time>
      </trkpt>
      <trkpt lat="46.49466" lon="5.76243">
        <ele>689</ele>
        <time>2022-06-06T16:51:00Z</time>
      </trkpt>
      <trkpt lat="46.49477" lon="5.76254">
        <ele>690</ele>
        <time>2022-06-06T16:51:02Z</time>
      </trkpt>
      <trkpt lat="46.49482" lon="5.76264">
        <ele>690</ele>
        <time>2022-06-06T16:51:04Z</time>
      </trkpt>
      <trkpt lat="46.49484" lon="5.76274">
        <ele>690</ele>
        <time>2022-06-06T16:51:05Z</time>
      </trkpt>
      <trkpt lat="46.4949" lon="5.76354">
        <ele>684</ele>
        <time>2022-06-06T16:51:15Z</time>
      </trkpt>
      <trkpt lat="46.49494" lon="5.76368">
        <ele>683</ele>
        <time>2022-06-06T16:51:17Z</time>
      </trkpt>
      <trkpt lat="46.49504" lon="5.76381">
        <ele>684</ele>
        <time>2022-06-06T16:51:19Z</time>
      </trkpt>
      <trkpt lat="46.496" lon="5.76462">
        <ele>695</ele>
        <time>2022-06-06T16:51:39Z</time>
      </trkpt>
      <trkpt lat="46.49612" lon="5.76469">
        <ele>696</ele>
        <time>2022-06-06T16:51:41Z</time>
      </trkpt>
      <trkpt lat="46.49667" lon="5.76489">
        <ele>705</ele>
        <time>2022-06-06T16:51:51Z</time>
      </trkpt>
      <trkpt lat="46.49692" lon="5.76506">
        <ele>707</ele>
        <time>2022-06-06T16:51:56Z</time>
      </trkpt>
      <trkpt lat="46.49711" lon="5.76524">
        <ele>707</ele>
        <time>2022-06-06T16:52:00Z</time>
      </trkpt>
      <trkpt lat="46.49752" lon="5.76569">
        <ele>707</ele>
        <time>2022-06-06T16:52:09Z</time>
      </trkpt>
      <trkpt lat="46.49766" lon="5.76582">
        <ele>708</ele>
        <time>2022-06-06T16:52:12Z</time>
      </trkpt>
      <trkpt lat="46.49791" lon="5.76592">
        <ele>713</ele>
        <time>2022-06-06T16:52:17Z</time>
      </trkpt>
      <trkpt lat="46.49805" lon="5.76594">
        <ele>717</ele>
        <time>2022-06-06T16:52:19Z</time>
      </trkpt>
      <trkpt lat="46.49834" lon="5.76618">
        <ele>720</ele>
        <time>2022-06-06T16:52:25Z</time>
      </trkpt>
      <trkpt lat="46.49864" lon="5.76656">
        <ele>720</ele>
        <time>2022-06-06T16:52:32Z</time>
      </trkpt>
      <trkpt lat="46.49929" lon="5.76749">
        <ele>721</ele>
        <time>2022-06-06T16:52:49Z</time>
      </trkpt>
      <trkpt lat="46.49936" lon="5.76755">
        <ele>722</ele>
        <time>2022-06-06T16:52:50Z</time>
      </trkpt>
      <trkpt lat="46.49942" lon="5.76758">
        <ele>723</ele>
        <time>2022-06-06T16:52:51Z</time>
      </trkpt>
      <trkpt lat="46.49975" lon="5.76758">
        <ele>732</ele>
        <time>2022-06-06T16:52:57Z</time>
      </trkpt>
      <trkpt lat="46.49985" lon="5.76761">
        <ele>734</ele>
        <time>2022-06-06T16:52:59Z</time>
      </trkpt>
      <trkpt lat="46.49995" lon="5.76768">
        <ele>735</ele>
        <time>2022-06-06T16:53:01Z</time>
      </trkpt>
      <trkpt lat="46.50047" lon="5.76841">
        <ele>736</ele>
        <time>2022-06-06T16:53:14Z</time>
      </trkpt>
      <trkpt lat="46.50055" lon="5.76872">
        <ele>735</ele>
        <time>2022-06-06T16:53:18Z</time>
      </trkpt>
      <trkpt lat="46.50062" lon="5.76884">
        <ele>735</ele>
        <time>2022-06-06T16:53:20Z</time>
      </trkpt>
      <trkpt lat="46.50085" lon="5.76905">
        <ele>736</ele>
        <time>2022-06-06T16:53:24Z</time>
      </trkpt>
      <trkpt lat="46.50134" lon="5.76959">
        <ele>750</ele>
        <time>2022-06-06T16:53:35Z</time>
      </trkpt>
      <trkpt lat="46.50138" lon="5.76965">
        <ele>751</ele>
        <time>2022-06-06T16:53:36Z</time>
      </trkpt>
      <trkpt lat="46.50141" lon="5.76977">
        <ele>751</ele>
        <time>2022-06-06T16:53:38Z</time>
      </trkpt>
      <trkpt lat="46.50141" lon="5.76983">
        <ele>750</ele>
        <time>2022-06-06T16:53:39Z</time>
      </trkpt>
      <trkpt lat="46.50139" lon="5.76991">
        <ele>749</ele>
        <time>2022-06-06T16:53:40Z</time>
      </trkpt>
      <trkpt lat="46.5013" lon="5.76997">
        <ele>748</ele>
        <time>2022-06-06T16:53:42Z</time>
      </trkpt>
      <trkpt lat="46.5012" lon="5.76997">
        <ele>747</ele>
        <time>2022-06-06T16:53:43Z</time>
      </trkpt>
      <trkpt lat="46.50092" lon="5.76985">
        <ele>743</ele>
        <time>2022-06-06T16:53:49Z</time>
      </trkpt>
      <trkpt lat="46.50078" lon="5.76984">
        <ele>741</ele>
        <time>2022-06-06T16:53:51Z</time>
      </trkpt>
      <trkpt lat="46.50047" lon="5.76989">
        <ele>739</ele>
        <time>2022-06-06T16:53:57Z</time>
      </trkpt>
      <trkpt lat="46.5003" lon="5.76999">
        <ele>739</ele>
        <time>2022-06-06T16:54:00Z</time>
      </trkpt>
      <trkpt lat="46.50024" lon="5.77006">
        <ele>740</ele>
        <time>2022-06-06T16:54:01Z</time>
      </trkpt>
      <trkpt lat="46.50015" lon="5.77021">
        <ele>741</ele>
        <time>2022-06-06T16:54:04Z</time>
      </trkpt>
      <trkpt lat="46.49977" lon="5.77113">
        <ele>747</ele>
        <time>2022-06-06T16:54:17Z</time>
      </trkpt>
      <trkpt lat="46.49926" lon="5.77187">
        <ele>748</ele>
        <time>2022-06-06T16:54:30Z</time>
      </trkpt>
      <trkpt lat="46.4989" lon="5.77243">
        <ele>756</ele>
        <time>2022-06-06T16:54:39Z</time>
      </trkpt>
      <trkpt lat="46.49839" lon="5.77305">
        <ele>760</ele>
        <time>2022-06-06T16:54:51Z</time>
      </trkpt>
      <trkpt lat="46.49787" lon="5.77344">
        <ele>761</ele>
        <time>2022-06-06T16:55:01Z</time>
      </trkpt>
      <trkpt lat="46.49748" lon="5.77384">
        <ele>764</ele>
        <time>2022-06-06T16:55:10Z</time>
      </trkpt>
      <trkpt lat="46.49741" lon="5.77388">
        <ele>764</ele>
        <time>2022-06-06T16:55:11Z</time>
      </trkpt>
      <trkpt lat="46.49726" lon="5.77392">
        <ele>764</ele>
        <time>2022-06-06T16:55:14Z</time>
      </trkpt>
      <trkpt lat="46.49664" lon="5.77399">
        <ele>760</ele>
        <time>2022-06-06T16:55:25Z</time>
      </trkpt>
      <trkpt lat="46.4965" lon="5.77399">
        <ele>760</ele>
        <time>2022-06-06T16:55:27Z</time>
      </trkpt>
      <trkpt lat="46.49616" lon="5.77393">
        <ele>760</ele>
        <time>2022-06-06T16:55:33Z</time>
      </trkpt>
      <trkpt lat="46.49599" lon="5.77394">
        <ele>761</ele>
        <time>2022-06-06T16:55:36Z</time>
      </trkpt>
      <trkpt lat="46.49551" lon="5.7741">
        <ele>769</ele>
        <time>2022-06-06T16:55:45Z</time>
      </trkpt>
      <trkpt lat="46.49535" lon="5.77421">
        <ele>771</ele>
        <time>2022-06-06T16:55:48Z</time>
      </trkpt>
      <trkpt lat="46.49505" lon="5.77464">
        <ele>773</ele>
        <time>2022-06-06T16:55:56Z</time>
      </trkpt>
      <trkpt lat="46.49495" lon="5.77475">
        <ele>773</ele>
        <time>2022-06-06T16:55:58Z</time>
      </trkpt>
      <trkpt lat="46.49485" lon="5.7748">
        <ele>773</ele>
        <time>2022-06-06T16:56:00Z</time>
      </trkpt>
      <trkpt lat="46.49457" lon="5.77483">
        <ele>775</ele>
        <time>2022-06-06T16:56:05Z</time>
      </trkpt>
      <trkpt lat="46.49449" lon="5.7749">
        <ele>775</ele>
        <time>2022-06-06T16:56:07Z</time>
      </trkpt>
      <trkpt lat="46.49446" lon="5.77501">
        <ele>774</ele>
        <time>2022-06-06T16:56:08Z</time>
      </trkpt>
      <trkpt lat="46.49442" lon="5.77529">
        <ele>774</ele>
        <time>2022-06-06T16:56:12Z</time>
      </trkpt>
      <trkpt lat="46.49427" lon="5.77593">
        <ele>775</ele>
        <time>2022-06-06T16:56:20Z</time>
      </trkpt>
      <trkpt lat="46.4942" lon="5.7761">
        <ele>776</ele>
        <time>2022-06-06T16:56:22Z</time>
      </trkpt>
      <trkpt lat="46.49412" lon="5.77621">
        <ele>777</ele>
        <time>2022-06-06T16:56:24Z</time>
      </trkpt>
      <trkpt lat="46.49404" lon="5.77626">
        <ele>777</ele>
        <time>2022-06-06T16:56:26Z</time>
      </trkpt>
      <trkpt lat="46.4939" lon="5.77629">
        <ele>777</ele>
        <time>2022-06-06T16:56:28Z</time>
      </trkpt>
      <trkpt lat="46.49378" lon="5.77627">
        <ele>777</ele>
        <time>2022-06-06T16:56:30Z</time>
      </trkpt>
      <trkpt lat="46.49338" lon="5.77616">
        <ele>777</ele>
        <time>2022-06-06T16:56:38Z</time>
      </trkpt>
      <trkpt lat="46.49323" lon="5.77614">
        <ele>777</ele>
        <time>2022-06-06T16:56:40Z</time>
      </trkpt>
      <trkpt lat="46.49311" lon="5.77615">
        <ele>776</ele>
        <time>2022-06-06T16:56:43Z</time>
      </trkpt>
      <trkpt lat="46.49303" lon="5.77623">
        <ele>776</ele>
        <time>2022-06-06T16:56:44Z</time>
      </trkpt>
      <trkpt lat="46.493" lon="5.77636">
        <ele>777</ele>
        <time>2022-06-06T16:56:46Z</time>
      </trkpt>
      <trkpt lat="46.493" lon="5.77651">
        <ele>777</ele>
        <time>2022-06-06T16:56:48Z</time>
      </trkpt>
      <trkpt lat="46.49308" lon="5.77666">
        <ele>778</ele>
        <time>2022-06-06T16:56:50Z</time>
      </trkpt>
      <trkpt lat="46.49317" lon="5.77677">
        <ele>779</ele>
        <time>2022-06-06T16:56:52Z</time>
      </trkpt>
      <trkpt lat="46.49326" lon="5.77685">
        <ele>781</ele>
        <time>2022-06-06T16:56:54Z</time>
      </trkpt>
      <trkpt lat="46.4937" lon="5.77719">
        <ele>784</ele>
        <time>2022-06-06T16:57:03Z</time>
      </trkpt>
      <trkpt lat="46.49417" lon="5.77774">
        <ele>787</ele>
        <time>2022-06-06T16:57:14Z</time>
      </trkpt>
      <trkpt lat="46.49434" lon="5.77787">
        <ele>788</ele>
        <time>2022-06-06T16:57:17Z</time>
      </trkpt>
      <trkpt lat="46.49469" lon="5.77806">
        <ele>788</ele>
        <time>2022-06-06T16:57:24Z</time>
      </trkpt>
      <trkpt lat="46.49519" lon="5.77825">
        <ele>786</ele>
        <time>2022-06-06T16:57:33Z</time>
      </trkpt>
      <trkpt lat="46.49591" lon="5.77823">
        <ele>785</ele>
        <time>2022-06-06T16:57:46Z</time>
      </trkpt>
      <trkpt lat="46.49674" lon="5.7783">
        <ele>788</ele>
        <time>2022-06-06T16:58:01Z</time>
      </trkpt>
      <trkpt lat="46.49687" lon="5.77836">
        <ele>788</ele>
        <time>2022-06-06T16:58:03Z</time>
      </trkpt>
      <trkpt lat="46.49705" lon="5.77851">
        <ele>789</ele>
        <time>2022-06-06T16:58:07Z</time>
      </trkpt>
      <trkpt lat="46.49784" lon="5.77932">
        <ele>793</ele>
        <time>2022-06-06T16:58:24Z</time>
      </trkpt>
      <trkpt lat="46.49846" lon="5.77958">
        <ele>802</ele>
        <time>2022-06-06T16:58:35Z</time>
      </trkpt>
      <trkpt lat="46.49897" lon="5.77996">
        <ele>806</ele>
        <time>2022-06-06T16:58:46Z</time>
      </trkpt>
      <trkpt lat="46.50125" lon="5.78197">
        <ele>804</ele>
        <time>2022-06-06T16:59:33Z</time>
      </trkpt>
      <trkpt lat="46.50149" lon="5.78237">
        <ele>804</ele>
        <time>2022-06-06T16:59:39Z</time>
      </trkpt>
      <trkpt lat="46.50153" lon="5.78265">
        <ele>803</ele>
        <time>2022-06-06T16:59:43Z</time>
      </trkpt>
      <trkpt lat="46.50139" lon="5.78342">
        <ele>802</ele>
        <time>2022-06-06T16:59:53Z</time>
      </trkpt>
      <trkpt lat="46.50137" lon="5.78363">
        <ele>803</ele>
        <time>2022-06-06T16:59:55Z</time>
      </trkpt>
      <trkpt lat="46.50138" lon="5.78378">
        <ele>803</ele>
        <time>2022-06-06T16:59:57Z</time>
      </trkpt>
      <trkpt lat="46.50142" lon="5.78397">
        <ele>803</ele>
        <time>2022-06-06T17:00:00Z</time>
      </trkpt>
      <trkpt lat="46.50152" lon="5.78419">
        <ele>803</ele>
        <time>2022-06-06T17:00:03Z</time>
      </trkpt>
      <trkpt lat="46.50167" lon="5.78443">
        <ele>804</ele>
        <time>2022-06-06T17:00:07Z</time>
      </trkpt>
      <trkpt lat="46.50187" lon="5.78462">
        <ele>805</ele>
        <time>2022-06-06T17:00:11Z</time>
      </trkpt>
      <trkpt lat="46.50297" lon="5.78524">
        <ele>803</ele>
        <time>2022-06-06T17:00:32Z</time>
      </trkpt>
      <trkpt lat="46.5038" lon="5.78544">
        <ele>803</ele>
        <time>2022-06-06T17:00:47Z</time>
      </trkpt>
      <trkpt lat="46.50397" lon="5.78554">
        <ele>803</ele>
        <time>2022-06-06T17:00:50Z</time>
      </trkpt>
      <trkpt lat="46.50489" lon="5.78635">
        <ele>804</ele>
        <time>2022-06-06T17:01:09Z</time>
      </trkpt>
      <trkpt lat="46.50566" lon="5.78719">
        <ele>802</ele>
        <time>2022-06-06T17:01:27Z</time>
      </trkpt>
      <trkpt lat="46.50596" lon="5.78756">
        <ele>803</ele>
        <time>2022-06-06T17:01:34Z</time>
      </trkpt>
      <trkpt lat="46.50608" lon="5.78775">
        <ele>803</ele>
        <time>2022-06-06T17:01:37Z</time>
      </trkpt>
      <trkpt lat="46.50629" lon="5.78833">
        <ele>804</ele>
        <time>2022-06-06T17:01:45Z</time>
      </trkpt>
      <trkpt lat="46.50647" lon="5.78888">
        <ele>804</ele>
        <time>2022-06-06T17:01:52Z</time>
      </trkpt>
      <trkpt lat="46.50668" lon="5.78981">
        <ele>805</ele>
        <time>2022-06-06T17:02:04Z</time>
      </trkpt>
      <trkpt lat="46.50751" lon="5.78996">
        <ele>806</ele>
        <time>2022-06-06T17:02:19Z</time>
      </trkpt>
      <trkpt lat="46.50759" lon="5.78996">
        <ele>806</ele>
        <time>2022-06-06T17:02:21Z</time>
      </trkpt>
      <trkpt lat="46.50768" lon="5.79007">
        <ele>807</ele>
        <time>2022-06-06T17:02:23Z</time>
      </trkpt>
      <trkpt lat="46.50796" lon="5.7901">
        <ele>807</ele>
        <time>2022-06-06T17:02:28Z</time>
      </trkpt>
      <trkpt lat="46.50843" lon="5.79039">
        <ele>809</ele>
        <time>2022-06-06T17:02:37Z</time>
      </trkpt>
      <trkpt lat="46.50857" lon="5.7905">
        <ele>809</ele>
        <time>2022-06-06T17:02:40Z</time>
      </trkpt>
      <trkpt lat="46.50884" lon="5.79092">
        <ele>810</ele>
        <time>2022-06-06T17:02:47Z</time>
      </trkpt>
      <trkpt lat="46.50878" lon="5.79102">
        <ele>810</ele>
        <time>2022-06-06T17:02:48Z</time>
      </trkpt>
      <trkpt lat="46.50874" lon="5.79118">
        <ele>810</ele>
        <time>2022-06-06T17:02:50Z</time>
      </trkpt>
      <trkpt lat="46.50865" lon="5.79205">
        <ele>812</ele>
        <time>2022-06-06T17:03:01Z</time>
      </trkpt>
      <trkpt lat="46.50859" lon="5.79224">
        <ele>813</ele>
        <time>2022-06-06T17:03:04Z</time>
      </trkpt>
      <trkpt lat="46.50846" lon="5.79257">
        <ele>814</ele>
        <time>2022-06-06T17:03:08Z</time>
      </trkpt>
      <trkpt lat="46.50852" lon="5.79269">
        <ele>814</ele>
        <time>2022-06-06T17:03:10Z</time>
      </trkpt>
      <trkpt lat="46.50861" lon="5.79303">
        <ele>814</ele>
        <time>2022-06-06T17:03:15Z</time>
      </trkpt>
      <trkpt lat="46.50864" lon="5.79323">
        <ele>814</ele>
        <time>2022-06-06T17:03:17Z</time>
      </trkpt>
      <trkpt lat="46.50878" lon="5.79319">
        <ele>814</ele>
        <time>2022-06-06T17:03:20Z</time>
      </trkpt>
      <trkpt lat="46.50879" lon="5.79348">
        <ele>814</ele>
        <time>2022-06-06T17:03:23Z</time>
      </trkpt>
      <trkpt lat="46.50877" lon="5.79363">
        <ele>813</ele>
        <time>2022-06-06T17:03:25Z</time>
      </trkpt>
      <trkpt lat="46.50869" lon="5.79381">
        <ele>813</ele>
        <time>2022-06-06T17:03:28Z</time>
      </trkpt>
      <trkpt lat="46.50861" lon="5.79388">
        <ele>813</ele>
        <time>2022-06-06T17:03:29Z</time>
      </trkpt>
      <trkpt lat="46.50986" lon="5.796">
        <ele>802</ele>
        <time>2022-06-06T17:04:03Z</time>
      </trkpt>
      <trkpt lat="46.51013" lon="5.79658">
        <ele>798</ele>
        <time>2022-06-06T17:04:12Z</time>
      </trkpt>
      <trkpt lat="46.51033" lon="5.79692">
        <ele>797</ele>
        <time>2022-06-06T17:04:18Z</time>
      </trkpt>
      <trkpt lat="46.51058" lon="5.79725">
        <ele>796</ele>
        <time>2022-06-06T17:04:24Z</time>
      </trkpt>
      <trkpt lat="46.51091" lon="5.79759">
        <ele>794</ele>
        <time>2022-06-06T17:04:31Z</time>
      </trkpt>
      <trkpt lat="46.51109" lon="5.79784">
        <ele>794</ele>
        <time>2022-06-06T17:04:35Z</time>
      </trkpt>
      <trkpt lat="46.51119" lon="5.79804">
        <ele>793</ele>
        <time>2022-06-06T17:04:38Z</time>
      </trkpt>
      <trkpt lat="46.51132" lon="5.79841">
        <ele>792</ele>
        <time>2022-06-06T17:04:43Z</time>
      </trkpt>
      <trkpt lat="46.51147" lon="5.79898">
        <ele>788</ele>
        <time>2022-06-06T17:04:51Z</time>
      </trkpt>
      <trkpt lat="46.51182" lon="5.79971">
        <ele>786</ele>
        <time>2022-06-06T17:05:02Z</time>
      </trkpt>
      <trkpt lat="46.51217" lon="5.80058">
        <ele>788</ele>
        <time>2022-06-06T17:05:14Z</time>
      </trkpt>
      <trkpt lat="46.51225" lon="5.80091">
        <ele>788</ele>
        <time>2022-06-06T17:05:18Z</time>
      </trkpt>
      <trkpt lat="46.51237" lon="5.8017">
        <ele>787</ele>
        <time>2022-06-06T17:05:28Z</time>
      </trkpt>
      <trkpt lat="46.51247" lon="5.80194">
        <ele>787</ele>
        <time>2022-06-06T17:05:32Z</time>
      </trkpt>
      <trkpt lat="46.51255" lon="5.80206">
        <ele>787</ele>
        <time>2022-06-06T17:05:34Z</time>
      </trkpt>
      <trkpt lat="46.51268" lon="5.80217">
        <ele>787</ele>
        <time>2022-06-06T17:05:36Z</time>
      </trkpt>
      <trkpt lat="46.51309" lon="5.80241">
        <ele>788</ele>
        <time>2022-06-06T17:05:44Z</time>
      </trkpt>
      <trkpt lat="46.51339" lon="5.80264">
        <ele>790</ele>
        <time>2022-06-06T17:05:50Z</time>
      </trkpt>
      <trkpt lat="46.51359" lon="5.80282">
        <ele>793</ele>
        <time>2022-06-06T17:05:54Z</time>
      </trkpt>
      <trkpt lat="46.51376" lon="5.80302">
        <ele>795</ele>
        <time>2022-06-06T17:05:58Z</time>
      </trkpt>
      <trkpt lat="46.51385" lon="5.80315">
        <ele>796</ele>
        <time>2022-06-06T17:06:01Z</time>
      </trkpt>
      <trkpt lat="46.51399" lon="5.80347">
        <ele>798</ele>
        <time>2022-06-06T17:06:05Z</time>
      </trkpt>
      <trkpt lat="46.51429" lon="5.80467">
        <ele>794</ele>
        <time>2022-06-06T17:06:21Z</time>
      </trkpt>
      <trkpt lat="46.51435" lon="5.8048">
        <ele>793</ele>
        <time>2022-06-06T17:06:23Z</time>
      </trkpt>
      <trkpt lat="46.51445" lon="5.80493">
        <ele>793</ele>
        <time>2022-06-06T17:06:25Z</time>
      </trkpt>
      <trkpt lat="46.51457" lon="5.80498">
        <ele>793</ele>
        <time>2022-06-06T17:06:27Z</time>
      </trkpt>
      <trkpt lat="46.51369" lon="5.80891">
        <ele>809</ele>
        <time>2022-06-06T17:07:18Z</time>
      </trkpt>
      <trkpt lat="46.51367" lon="5.80911">
        <ele>812</ele>
        <time>2022-06-06T17:07:20Z</time>
      </trkpt>
      <trkpt lat="46.51371" lon="5.80939">
        <ele>818</ele>
        <time>2022-06-06T17:07:24Z</time>
      </trkpt>
      <trkpt lat="46.51384" lon="5.80974">
        <ele>825</ele>
        <time>2022-06-06T17:07:29Z</time>
      </trkpt>
      <trkpt lat="46.51392" lon="5.80986">
        <ele>827</ele>
        <time>2022-06-06T17:07:31Z</time>
      </trkpt>
      <trkpt lat="46.51454" lon="5.81062">
        <ele>836</ele>
        <time>2022-06-06T17:07:45Z</time>
      </trkpt>
      <trkpt lat="46.51473" lon="5.81088">
        <ele>836</ele>
        <time>2022-06-06T17:07:50Z</time>
      </trkpt>
      <trkpt lat="46.51509" lon="5.81155">
        <ele>842</ele>
        <time>2022-06-06T17:08:00Z</time>
      </trkpt>
      <trkpt lat="46.51522" lon="5.81177">
        <ele>846</ele>
        <time>2022-06-06T17:08:04Z</time>
      </trkpt>
      <trkpt lat="46.51562" lon="5.81213">
        <ele>847</ele>
        <time>2022-06-06T17:08:12Z</time>
      </trkpt>
      <trkpt lat="46.51584" lon="5.81237">
        <ele>847</ele>
        <time>2022-06-06T17:08:17Z</time>
      </trkpt>
      <trkpt lat="46.51639" lon="5.81302">
        <ele>854</ele>
        <time>2022-06-06T17:08:30Z</time>
      </trkpt>
      <trkpt lat="46.51661" lon="5.81337">
        <ele>857</ele>
        <time>2022-06-06T17:08:36Z</time>
      </trkpt>
      <trkpt lat="46.51666" lon="5.81342">
        <ele>857</ele>
        <time>2022-06-06T17:08:37Z</time>
      </trkpt>
      <trkpt lat="46.51683" lon="5.81354">
        <ele>857</ele>
        <time>2022-06-06T17:08:40Z</time>
      </trkpt>
      <trkpt lat="46.51715" lon="5.81373">
        <ele>857</ele>
        <time>2022-06-06T17:08:46Z</time>
      </trkpt>
      <trkpt lat="46.51756" lon="5.81413">
        <ele>863</ele>
        <time>2022-06-06T17:08:55Z</time>
      </trkpt>
      <trkpt lat="46.51805" lon="5.81448">
        <ele>861</ele>
        <time>2022-06-06T17:09:05Z</time>
      </trkpt>
      <trkpt lat="46.51842" lon="5.81471">
        <ele>857</ele>
        <time>2022-06-06T17:09:12Z</time>
      </trkpt>
      <trkpt lat="46.51858" lon="5.8149">
        <ele>858</ele>
        <time>2022-06-06T17:09:16Z</time>
      </trkpt>
      <trkpt lat="46.51873" lon="5.81524">
        <ele>862</ele>
        <time>2022-06-06T17:09:20Z</time>
      </trkpt>
      <trkpt lat="46.51881" lon="5.81552">
        <ele>867</ele>
        <time>2022-06-06T17:09:24Z</time>
      </trkpt>
      <trkpt lat="46.51893" lon="5.81573">
        <ele>869</ele>
        <time>2022-06-06T17:09:28Z</time>
      </trkpt>
      <trkpt lat="46.5191" lon="5.81592">
        <ele>867</ele>
        <time>2022-06-06T17:09:31Z</time>
      </trkpt>
      <trkpt lat="46.51933" lon="5.81608">
        <ele>863</ele>
        <time>2022-06-06T17:09:36Z</time>
      </trkpt>
      <trkpt lat="46.51947" lon="5.81621">
        <ele>862</ele>
        <time>2022-06-06T17:09:39Z</time>
      </trkpt>
      <trkpt lat="46.51994" lon="5.81689">
        <ele>868</ele>
        <time>2022-06-06T17:09:51Z</time>
      </trkpt>
      <trkpt lat="46.52042" lon="5.81787">
        <ele>874</ele>
        <time>2022-06-06T17:10:05Z</time>
      </trkpt>
      <trkpt lat="46.52069" lon="5.81853">
        <ele>883</ele>
        <time>2022-06-06T17:10:15Z</time>
      </trkpt>
      <trkpt lat="46.5208" lon="5.81873">
        <ele>885</ele>
        <time>2022-06-06T17:10:18Z</time>
      </trkpt>
      <trkpt lat="46.52091" lon="5.81883">
        <ele>886</ele>
        <time>2022-06-06T17:10:20Z</time>
      </trkpt>
      <trkpt lat="46.52122" lon="5.81885">
        <ele>881</ele>
        <time>2022-06-06T17:10:26Z</time>
      </trkpt>
      <trkpt lat="46.52149" lon="5.81896">
        <ele>881</ele>
        <time>2022-06-06T17:10:31Z</time>
      </trkpt>
      <trkpt lat="46.52178" lon="5.81893">
        <ele>875</ele>
        <time>2022-06-06T17:10:36Z</time>
      </trkpt>
      <trkpt lat="46.52194" lon="5.81896">
        <ele>874</ele>
        <time>2022-06-06T17:10:39Z</time>
      </trkpt>
      <trkpt lat="46.52201" lon="5.81899">
        <ele>874</ele>
        <time>2022-06-06T17:10:40Z</time>
      </trkpt>
      <trkpt lat="46.52215" lon="5.81907">
        <ele>875</ele>
        <time>2022-06-06T17:10:43Z</time>
      </trkpt>
      <trkpt lat="46.52228" lon="5.81919">
        <ele>878</ele>
        <time>2022-06-06T17:10:45Z</time>
      </trkpt>
      <trkpt lat="46.52242" lon="5.81935">
        <ele>881</ele>
        <time>2022-06-06T17:10:49Z</time>
      </trkpt>
      <trkpt lat="46.52267" lon="5.81977">
        <ele>890</ele>
        <time>2022-06-06T17:10:55Z</time>
      </trkpt>
      <trkpt lat="46.52276" lon="5.81987">
        <ele>892</ele>
        <time>2022-06-06T17:10:57Z</time>
      </trkpt>
      <trkpt lat="46.52287" lon="5.8199">
        <ele>891</ele>
        <time>2022-06-06T17:10:59Z</time>
      </trkpt>
      <trkpt lat="46.52309" lon="5.8199">
        <ele>887</ele>
        <time>2022-06-06T17:11:03Z</time>
      </trkpt>
      <trkpt lat="46.52317" lon="5.81994">
        <ele>887</ele>
        <time>2022-06-06T17:11:05Z</time>
      </trkpt>
      <trkpt lat="46.52325" lon="5.82004">
        <ele>889</ele>
        <time>2022-06-06T17:11:07Z</time>
      </trkpt>
      <trkpt lat="46.52328" lon="5.82012">
        <ele>890</ele>
        <time>2022-06-06T17:11:08Z</time>
      </trkpt>
      <trkpt lat="46.5233" lon="5.82025">
        <ele>892</ele>
        <time>2022-06-06T17:11:09Z</time>
      </trkpt>
      <trkpt lat="46.52329" lon="5.82039">
        <ele>895</ele>
        <time>2022-06-06T17:11:11Z</time>
      </trkpt>
      <trkpt lat="46.52322" lon="5.8205">
        <ele>898</ele>
        <time>2022-06-06T17:11:13Z</time>
      </trkpt>
      <trkpt lat="46.52312" lon="5.82054">
        <ele>900</ele>
        <time>2022-06-06T17:11:15Z</time>
      </trkpt>
      <trkpt lat="46.523" lon="5.82052">
        <ele>901</ele>
        <time>2022-06-06T17:11:17Z</time>
      </trkpt>
      <trkpt lat="46.52285" lon="5.82034">
        <ele>900</ele>
        <time>2022-06-06T17:11:20Z</time>
      </trkpt>
      <trkpt lat="46.52257" lon="5.81991">
        <ele>896</ele>
        <time>2022-06-06T17:11:28Z</time>
      </trkpt>
      <trkpt lat="46.52245" lon="5.81983">
        <ele>895</ele>
        <time>2022-06-06T17:11:30Z</time>
      </trkpt>
      <trkpt lat="46.5223" lon="5.81981">
        <ele>895</ele>
        <time>2022-06-06T17:11:33Z</time>
      </trkpt>
      <trkpt lat="46.52212" lon="5.81987">
        <ele>898</ele>
        <time>2022-06-06T17:11:36Z</time>
      </trkpt>
      <trkpt lat="46.52193" lon="5.82001">
        <ele>903</ele>
        <time>2022-06-06T17:11:40Z</time>
      </trkpt>
      <trkpt lat="46.52175" lon="5.82009">
        <ele>905</ele>
        <time>2022-06-06T17:11:43Z</time>
      </trkpt>
      <trkpt lat="46.52122" lon="5.82017">
        <ele>908</ele>
        <time>2022-06-06T17:11:53Z</time>
      </trkpt>
      <trkpt lat="46.52103" lon="5.82023">
        <ele>910</ele>
        <time>2022-06-06T17:11:56Z</time>
      </trkpt>
      <trkpt lat="46.52049" lon="5.82059">
        <ele>916</ele>
        <time>2022-06-06T17:12:07Z</time>
      </trkpt>
      <trkpt lat="46.52027" lon="5.82067">
        <ele>918</ele>
        <time>2022-06-06T17:12:11Z</time>
      </trkpt>
      <trkpt lat="46.5201" lon="5.82066">
        <ele>918</ele>
        <time>2022-06-06T17:12:14Z</time>
      </trkpt>
      <trkpt lat="46.51909" lon="5.82041">
        <ele>922</ele>
        <time>2022-06-06T17:12:32Z</time>
      </trkpt>
      <trkpt lat="46.51877" lon="5.82037">
        <ele>923</ele>
        <time>2022-06-06T17:12:38Z</time>
      </trkpt>
      <trkpt lat="46.51823" lon="5.82049">
        <ele>926</ele>
        <time>2022-06-06T17:12:47Z</time>
      </trkpt>
      <trkpt lat="46.518" lon="5.82049">
        <ele>927</ele>
        <time>2022-06-06T17:12:52Z</time>
      </trkpt>
      <trkpt lat="46.51788" lon="5.82045">
        <ele>928</ele>
        <time>2022-06-06T17:12:54Z</time>
      </trkpt>
      <trkpt lat="46.51759" lon="5.82027">
        <ele>927</ele>
        <time>2022-06-06T17:12:59Z</time>
      </trkpt>
      <trkpt lat="46.51744" lon="5.82026">
        <ele>927</ele>
        <time>2022-06-06T17:13:02Z</time>
      </trkpt>
      <trkpt lat="46.51738" lon="5.82028">
        <ele>927</ele>
        <time>2022-06-06T17:13:03Z</time>
      </trkpt>
      <trkpt lat="46.51728" lon="5.82035">
        <ele>928</ele>
        <time>2022-06-06T17:13:05Z</time>
      </trkpt>
      <trkpt lat="46.517" lon="5.82067">
        <ele>932</ele>
        <time>2022-06-06T17:13:11Z</time>
      </trkpt>
      <trkpt lat="46.51682" lon="5.82086">
        <ele>934</ele>
        <time>2022-06-06T17:13:15Z</time>
      </trkpt>
      <trkpt lat="46.51651" lon="5.82104">
        <ele>936</ele>
        <time>2022-06-06T17:13:21Z</time>
      </trkpt>
      <trkpt lat="46.5164" lon="5.82106">
        <ele>937</ele>
        <time>2022-06-06T17:13:23Z</time>
      </trkpt>
      <trkpt lat="46.51608" lon="5.82106">
        <ele>938</ele>
        <time>2022-06-06T17:13:29Z</time>
      </trkpt>
      <trkpt lat="46.51575" lon="5.82103">
        <ele>940</ele>
        <time>2022-06-06T17:13:35Z</time>
      </trkpt>
      <trkpt lat="46.51553" lon="5.82098">
        <ele>944</ele>
        <time>2022-06-06T17:13:39Z</time>
      </trkpt>
      <trkpt lat="46.51543" lon="5.8209">
        <ele>946</ele>
        <time>2022-06-06T17:13:41Z</time>
      </trkpt>
      <trkpt lat="46.51534" lon="5.82071">
        <ele>947</ele>
        <time>2022-06-06T17:13:44Z</time>
      </trkpt>
      <trkpt lat="46.51524" lon="5.82009">
        <ele>945</ele>
        <time>2022-06-06T17:13:51Z</time>
      </trkpt>
      <trkpt lat="46.51517" lon="5.81982">
        <ele>945</ele>
        <time>2022-06-06T17:13:55Z</time>
      </trkpt>
      <trkpt lat="46.51508" lon="5.81959">
        <ele>945</ele>
        <time>2022-06-06T17:13:58Z</time>
      </trkpt>
      <trkpt lat="46.51498" lon="5.81946">
        <ele>945</ele>
        <time>2022-06-06T17:14:01Z</time>
      </trkpt>
      <trkpt lat="46.51492" lon="5.81941">
        <ele>946</ele>
        <time>2022-06-06T17:14:02Z</time>
      </trkpt>
      <trkpt lat="46.51473" lon="5.81933">
        <ele>948</ele>
        <time>2022-06-06T17:14:05Z</time>
      </trkpt>
      <trkpt lat="46.51399" lon="5.81907">
        <ele>954</ele>
        <time>2022-06-06T17:14:19Z</time>
      </trkpt>
      <trkpt lat="46.51369" lon="5.81903">
        <ele>957</ele>
        <time>2022-06-06T17:14:24Z</time>
      </trkpt>
      <trkpt lat="46.51346" lon="5.81908">
        <ele>960</ele>
        <time>2022-06-06T17:14:28Z</time>
      </trkpt>
      <trkpt lat="46.51325" lon="5.8192">
        <ele>962</ele>
        <time>2022-06-06T17:14:32Z</time>
      </trkpt>
      <trkpt lat="46.51311" lon="5.81936">
        <ele>963</ele>
        <time>2022-06-06T17:14:36Z</time>
      </trkpt>
      <trkpt lat="46.51283" lon="5.8198">
        <ele>964</ele>
        <time>2022-06-06T17:14:43Z</time>
      </trkpt>
      <trkpt lat="46.51258" lon="5.82014">
        <ele>964</ele>
        <time>2022-06-06T17:14:49Z</time>
      </trkpt>
      <trkpt lat="46.51244" lon="5.82026">
        <ele>963</ele>
        <time>2022-06-06T17:14:52Z</time>
      </trkpt>
      <trkpt lat="46.51228" lon="5.82036">
        <ele>962</ele>
        <time>2022-06-06T17:14:55Z</time>
      </trkpt>
      <trkpt lat="46.5121" lon="5.82056">
        <ele>961</ele>
        <time>2022-06-06T17:14:59Z</time>
      </trkpt>
      <trkpt lat="46.51204" lon="5.82069">
        <ele>961</ele>
        <time>2022-06-06T17:15:01Z</time>
      </trkpt>
      <trkpt lat="46.51194" lon="5.82102">
        <ele>960</ele>
        <time>2022-06-06T17:15:05Z</time>
      </trkpt>
      <trkpt lat="46.51181" lon="5.82138">
        <ele>961</ele>
        <time>2022-06-06T17:15:10Z</time>
      </trkpt>
      <trkpt lat="46.51172" lon="5.82154">
        <ele>961</ele>
        <time>2022-06-06T17:15:13Z</time>
      </trkpt>
      <trkpt lat="46.51162" lon="5.82169">
        <ele>961</ele>
        <time>2022-06-06T17:15:15Z</time>
      </trkpt>
      <trkpt lat="46.51135" lon="5.82193">
        <ele>961</ele>
        <time>2022-06-06T17:15:21Z</time>
      </trkpt>
      <trkpt lat="46.51107" lon="5.82227">
        <ele>961</ele>
        <time>2022-06-06T17:15:28Z</time>
      </trkpt>
      <trkpt lat="46.51066" lon="5.8226">
        <ele>961</ele>
        <time>2022-06-06T17:15:36Z</time>
      </trkpt>
      <trkpt lat="46.5105" lon="5.82276">
        <ele>961</ele>
        <time>2022-06-06T17:15:39Z</time>
      </trkpt>
      <trkpt lat="46.51038" lon="5.82296">
        <ele>961</ele>
        <time>2022-06-06T17:15:43Z</time>
      </trkpt>
      <trkpt lat="46.51028" lon="5.82319">
        <ele>962</ele>
        <time>2022-06-06T17:15:46Z</time>
      </trkpt>
      <trkpt lat="46.51019" lon="5.82352">
        <ele>962</ele>
        <time>2022-06-06T17:15:50Z</time>
      </trkpt>
      <trkpt lat="46.51017" lon="5.82386">
        <ele>963</ele>
        <time>2022-06-06T17:15:54Z</time>
      </trkpt>
      <trkpt lat="46.5102" lon="5.82411">
        <ele>964</ele>
        <time>2022-06-06T17:15:58Z</time>
      </trkpt>
      <trkpt lat="46.51029" lon="5.82434">
        <ele>964</ele>
        <time>2022-06-06T17:16:01Z</time>
      </trkpt>
      <trkpt lat="46.51045" lon="5.8246">
        <ele>965</ele>
        <time>2022-06-06T17:16:05Z</time>
      </trkpt>
      <trkpt lat="46.51056" lon="5.82483">
        <ele>965</ele>
        <time>2022-06-06T17:16:09Z</time>
      </trkpt>
      <trkpt lat="46.51076" lon="5.82556">
        <ele>962</ele>
        <time>2022-06-06T17:16:18Z</time>
      </trkpt>
      <trkpt lat="46.51084" lon="5.82574">
        <ele>961</ele>
        <time>2022-06-06T17:16:21Z</time>
      </trkpt>
      <trkpt lat="46.51093" lon="5.82584">
        <ele>960</ele>
        <time>2022-06-06T17:16:23Z</time>
      </trkpt>
      <trkpt lat="46.51105" lon="5.82593">
        <ele>960</ele>
        <time>2022-06-06T17:16:25Z</time>
      </trkpt>
      <trkpt lat="46.51115" lon="5.82596">
        <ele>959</ele>
        <time>2022-06-06T17:16:27Z</time>
      </trkpt>
      <trkpt lat="46.51148" lon="5.82599">
        <ele>959</ele>
        <time>2022-06-06T17:16:33Z</time>
      </trkpt>
      <trkpt lat="46.51165" lon="5.82603">
        <ele>959</ele>
        <time>2022-06-06T17:16:36Z</time>
      </trkpt>
      <trkpt lat="46.51187" lon="5.82611">
        <ele>960</ele>
        <time>2022-06-06T17:16:40Z</time>
      </trkpt>
      <trkpt lat="46.51202" lon="5.8262">
        <ele>960</ele>
        <time>2022-06-06T17:16:43Z</time>
      </trkpt>
      <trkpt lat="46.51217" lon="5.82632">
        <ele>960</ele>
        <time>2022-06-06T17:16:46Z</time>
      </trkpt>
      <trkpt lat="46.5123" lon="5.82647">
        <ele>960</ele>
        <time>2022-06-06T17:16:49Z</time>
      </trkpt>
      <trkpt lat="46.51248" lon="5.82675">
        <ele>959</ele>
        <time>2022-06-06T17:16:54Z</time>
      </trkpt>
      <trkpt lat="46.51273" lon="5.8273">
        <ele>958</ele>
        <time>2022-06-06T17:17:02Z</time>
      </trkpt>
      <trkpt lat="46.51307" lon="5.82786">
        <ele>960</ele>
        <time>2022-06-06T17:17:11Z</time>
      </trkpt>
      <trkpt lat="46.51315" lon="5.82806">
        <ele>960</ele>
        <time>2022-06-06T17:17:14Z</time>
      </trkpt>
      <trkpt lat="46.51323" lon="5.82832">
        <ele>960</ele>
        <time>2022-06-06T17:17:17Z</time>
      </trkpt>
      <trkpt lat="46.5133" lon="5.82868">
        <ele>959</ele>
        <time>2022-06-06T17:17:22Z</time>
      </trkpt>
      <trkpt lat="46.51331" lon="5.82886">
        <ele>958</ele>
        <time>2022-06-06T17:17:24Z</time>
      </trkpt>
      <trkpt lat="46.51326" lon="5.82937">
        <ele>957</ele>
        <time>2022-06-06T17:17:30Z</time>
      </trkpt>
      <trkpt lat="46.51325" lon="5.82958">
        <ele>956</ele>
        <time>2022-06-06T17:17:33Z</time>
      </trkpt>
      <trkpt lat="46.5133" lon="5.82985">
        <ele>954</ele>
        <time>2022-06-06T17:17:36Z</time>
      </trkpt>
      <trkpt lat="46.51336" lon="5.83001">
        <ele>953</ele>
        <time>2022-06-06T17:17:38Z</time>
      </trkpt>
      <trkpt lat="46.51345" lon="5.83015">
        <ele>955</ele>
        <time>2022-06-06T17:17:41Z</time>
      </trkpt>
      <trkpt lat="46.51388" lon="5.83055">
        <ele>957</ele>
        <time>2022-06-06T17:17:50Z</time>
      </trkpt>
      <trkpt lat="46.51401" lon="5.83077">
        <ele>957</ele>
        <time>2022-06-06T17:17:53Z</time>
      </trkpt>
      <trkpt lat="46.51406" lon="5.83089">
        <ele>956</ele>
        <time>2022-06-06T17:17:55Z</time>
      </trkpt>
      <trkpt lat="46.51409" lon="5.83107">
        <ele>955</ele>
        <time>2022-06-06T17:17:57Z</time>
      </trkpt>
      <trkpt lat="46.51409" lon="5.83124">
        <ele>954</ele>
        <time>2022-06-06T17:17:59Z</time>
      </trkpt>
      <trkpt lat="46.51406" lon="5.83149">
        <ele>954</ele>
        <time>2022-06-06T17:18:03Z</time>
      </trkpt>
      <trkpt lat="46.51402" lon="5.83169">
        <ele>953</ele>
        <time>2022-06-06T17:18:05Z</time>
      </trkpt>
      <trkpt lat="46.51362" lon="5.83302">
        <ele>950</ele>
        <time>2022-06-06T17:18:23Z</time>
      </trkpt>
      <trkpt lat="46.51338" lon="5.83367">
        <ele>952</ele>
        <time>2022-06-06T17:18:32Z</time>
      </trkpt>
      <trkpt lat="46.51328" lon="5.83388">
        <ele>953</ele>
        <time>2022-06-06T17:18:35Z</time>
      </trkpt>
      <trkpt lat="46.51306" lon="5.8342">
        <ele>951</ele>
        <time>2022-06-06T17:18:41Z</time>
      </trkpt>
      <trkpt lat="46.51287" lon="5.83461">
        <ele>950</ele>
        <time>2022-06-06T17:18:47Z</time>
      </trkpt>
      <trkpt lat="46.51272" lon="5.8349">
        <ele>949</ele>
        <time>2022-06-06T17:18:51Z</time>
      </trkpt>
      <trkpt lat="46.5124" lon="5.8353">
        <ele>946</ele>
        <time>2022-06-06T17:18:59Z</time>
      </trkpt>
      <trkpt lat="46.51202" lon="5.83593">
        <ele>942</ele>
        <time>2022-06-06T17:19:09Z</time>
      </trkpt>
      <trkpt lat="46.51195" lon="5.83604">
        <ele>942</ele>
        <time>2022-06-06T17:19:11Z</time>
      </trkpt>
      <trkpt lat="46.51166" lon="5.83633">
        <ele>941</ele>
        <time>2022-06-06T17:19:17Z</time>
      </trkpt>
      <trkpt lat="46.51148" lon="5.83657">
        <ele>942</ele>
        <time>2022-06-06T17:19:21Z</time>
      </trkpt>
      <trkpt lat="46.51118" lon="5.8371">
        <ele>936</ele>
        <time>2022-06-06T17:19:30Z</time>
      </trkpt>
      <trkpt lat="46.51114" lon="5.83721">
        <ele>934</ele>
        <time>2022-06-06T17:19:31Z</time>
      </trkpt>
      <trkpt lat="46.51112" lon="5.83737">
        <ele>932</ele>
        <time>2022-06-06T17:19:33Z</time>
      </trkpt>
      <trkpt lat="46.51112" lon="5.83748">
        <ele>930</ele>
        <time>2022-06-06T17:19:35Z</time>
      </trkpt>
      <trkpt lat="46.51117" lon="5.83763">
        <ele>928</ele>
        <time>2022-06-06T17:19:37Z</time>
      </trkpt>
      <trkpt lat="46.51124" lon="5.83774">
        <ele>927</ele>
        <time>2022-06-06T17:19:38Z</time>
      </trkpt>
      <trkpt lat="46.51135" lon="5.83781">
        <ele>927</ele>
        <time>2022-06-06T17:19:41Z</time>
      </trkpt>
      <trkpt lat="46.5117" lon="5.83787">
        <ele>930</ele>
        <time>2022-06-06T17:19:47Z</time>
      </trkpt>
      <trkpt lat="46.51184" lon="5.83799">
        <ele>929</ele>
        <time>2022-06-06T17:19:50Z</time>
      </trkpt>
      <trkpt lat="46.5119" lon="5.83811">
        <ele>928</ele>
        <time>2022-06-06T17:19:52Z</time>
      </trkpt>
      <trkpt lat="46.51194" lon="5.83825">
        <ele>926</ele>
        <time>2022-06-06T17:19:53Z</time>
      </trkpt>
      <trkpt lat="46.51194" lon="5.83841">
        <ele>924</ele>
        <time>2022-06-06T17:19:55Z</time>
      </trkpt>
      <trkpt lat="46.51192" lon="5.83853">
        <ele>922</ele>
        <time>2022-06-06T17:19:57Z</time>
      </trkpt>
      <trkpt lat="46.51173" lon="5.83908">
        <ele>914</ele>
        <time>2022-06-06T17:20:04Z</time>
      </trkpt>
      <trkpt lat="46.51162" lon="5.83951">
        <ele>911</ele>
        <time>2022-06-06T17:20:10Z</time>
      </trkpt>
      <trkpt lat="46.51161" lon="5.83965">
        <ele>911</ele>
        <time>2022-06-06T17:20:12Z</time>
      </trkpt>
      <trkpt lat="46.51155" lon="5.83968">
        <ele>910</ele>
        <time>2022-06-06T17:20:13Z</time>
      </trkpt>
      <trkpt lat="46.51154" lon="5.83977">
        <ele>910</ele>
        <time>2022-06-06T17:20:14Z</time>
      </trkpt>
      <trkpt lat="46.51135" lon="5.8398">
        <ele>910</ele>
        <time>2022-06-06T17:20:17Z</time>
      </trkpt>
      <trkpt lat="46.51125" lon="5.83977">
        <ele>910</ele>
        <time>2022-06-06T17:20:19Z</time>
      </trkpt>
      <trkpt lat="46.51117" lon="5.83971">
        <ele>910</ele>
        <time>2022-06-06T17:20:21Z</time>
      </trkpt>
      <trkpt lat="46.51109" lon="5.83958">
        <ele>910</ele>
        <time>2022-06-06T17:20:23Z</time>
      </trkpt>
      <trkpt lat="46.51117" lon="5.83971">
        <ele>910</ele>
        <time>2022-06-06T17:20:25Z</time>
      </trkpt>
      <trkpt lat="46.51125" lon="5.83977">
        <ele>910</ele>
        <time>2022-06-06T17:20:27Z</time>
      </trkpt>
      <trkpt lat="46.51135" lon="5.8398">
        <ele>910</ele>
        <time>2022-06-06T17:20:29Z</time>
      </trkpt>
      <trkpt lat="46.51147" lon="5.83978">
        <ele>910</ele>
        <time>2022-06-06T17:20:31Z</time>
      </trkpt>
    </trkseg>
  </trk>
</gpx>